[[{"header":{"parameterUnit":"m.s-1","parameterCategory":1,"la1":31.0,"la2":29.5877,"lo1":-88.7671,"lo2":-86.6584,"dy":0.0162,"dx":0.0185,"nx":115,"ny":88,"refTime":"2023-06-04T18:00:00:Z","depth":0,"parameterNumber":2,"parameterNumberName":"U-component_of_WINDS"},"data":[0.0,0.0,0.0,0.0,0.0,0.0,0.0,0.0,0.0,0.0,0.0,0.0,0.0,0.0,0.0,0.0,0.0,0.0,0.0,0.0,0.0,0.0,0.0,0.0,0.0,0.0,0.0,0.0,0.0,0.0,0.0,0.0,0.0,0.0,0.0,0.0,0.0,0.0,0.0,0.0,0.0,0.0,0.0,0.0,0.0,0.0,0.0,0.0,0.0,0.0,0.0,0.0,0.0,0.0,0.0,0.0,0.0,0.0,0.0,0.0,0.0,0.0,0.0,0.0,0.0,0.0,0.0,0.0,0.0,0.0,0.0,0.0,0.0,0.0,0.0,0.0,0.0,0.0,0.0,0.0,0.0,0.0,0.0,0.0,0.0,0.0,0.0,0.0,0.0,0.0,0.0,0.0,0.0,0.0,0.0,0.0,0.0,0.0,0.0,0.0,0.0,0.0,0.0,0.0,0.0,0.0,0.0,0.0,0.0,0.0,0.0,0.0,0.0,0.0,0.0,0.0,0.0,0.0,0.0,0.0,0.0,0.0,0.0,0.0,0.0,0.0,0.0,0.0,0.0,0.0,0.0,0.0,0.0,0.0,0.0,0.0,0.0,0.0,0.0,0.0,0.0,0.0,0.0,0.0,0.0,0.0,0.0,0.0,0.0,0.0,0.0,0.0,0.0,0.0,0.0,0.0,0.0,0.0,0.0,0.0,0.0,0.0,0.0,0.0,0.0,0.0,0.0,0.0,0.0,0.0,0.0,0.0,0.0,0.0,0.0,0.0,0.0,0.0,0.0,0.0,0.0,0.0,0.0,0.0,0.0,0.0,0.0,0.0,0.0,0.0,0.0,0.0,0.0,0.0,0.0,0.0,0.0,0.0,0.0,0.0,0.0,0.0,0.0,0.0,0.0,0.0,0.0,0.0,0.0,0.0,0.0,0.0,0.0,0.0,0.0,0.0,0.0,0.0,0.0,0.0,0.0,0.0,0.0,0.0,0.0,0.0,0.0,0.0,0.0,0.0,0.0,0.0,0.0,0.0,0.0,0.0,0.0,0.0,0.0,0.0,0.0,0.0,0.0,0.0,0.0,0.0,0.0,0.0,0.0,0.0,0.0,0.0,0.0,0.0,0.0,0.0,0.0,0.0,0.0,0.0,0.0,0.0,0.0,0.0,0.0,0.0,0.0,0.0,0.0,0.0,0.0,0.0,0.0,0.0,0.0,0.0,0.0,0.0,0.0,0.0,0.0,0.0,0.0,0.0,0.0,0.0,0.0,0.0,0.0,0.0,0.0,0.0,0.0,0.0,0.0,0.0,0.0,0.0,0.0,0.0,0.0,0.0,0.0,0.0,0.0,0.0,0.0,0.0,0.0,0.0,0.0,0.0,0.0,0.0,0.0,0.0,0.0,0.0,0.0,0.0,0.0,0.0,0.0,0.0,0.0,0.0,0.0,0.0,0.0,0.0,0.0,0.0,0.0,0.0,0.0,0.0,0.0,0.0,0.0,0.0,0.0,0.0,0.0,0.0,0.0,0.0,0.0,0.0,0.0,0.0,0.0,0.0,0.0,0.0,0.0,0.0,0.0,0.0,0.0,0.0,0.0,0.0,0.0,0.0,0.0,0.0,0.0,0.0,0.0,0.0,0.0,0.0,0.0,0.0,0.0,0.0,0.0,0.0,0.0,0.0,0.0,0.0,0.0,0.0,0.0,0.0,0.0,0.0,0.0,0.0,0.0,0.0,0.0,0.0,0.0,0.0,0.0,0.0,0.0,0.0,0.0,0.0,0.0,0.0,0.0,0.0,0.0,0.0,0.0,0.0,0.0,0.0,0.0,0.0,0.0,0.0,0.0,0.0,0.0,0.0,0.0,0.0,0.0,0.0,0.0,0.0,0.0,0.0,0.0,0.0,0.0,0.0,0.0,0.0,0.0,0.0,0.0,0.0,0.0,0.0,0.0,0.0,0.0,0.0,0.0,0.0,0.0,0.0,0.0,0.0,0.0,0.0,0.0,0.0,0.0,0.0,0.0,0.0,0.0,0.0,0.0,0.0,0.0,0.0,0.0,0.0,0.0,0.0,0.0,0.0,0.0,0.0,0.0,0.0,0.0,0.0,0.0,0.0,0.0,0.0,0.0,0.0,0.0,0.0,0.0,0.0,0.0,0.0,0.0,0.0,0.0,0.0,0.0,0.0,0.0,0.0,0.0,0.0,0.0,0.0,0.0,0.0,0.0,0.0,0.0,0.0,0.0,0.0,0.0,0.0,0.0,0.0,0.0,0.0,0.0,0.0,0.0,0.0,0.0,0.0,0.0,0.0,0.0,0.0,0.0,0.0,0.0,0.0,0.0,0.0,0.0,0.0,0.0,0.0,0.0,0.0,0.0,0.0,0.0,0.0,0.0,0.0,0.0,0.0,0.0,0.0,0.0,0.0,0.0,0.0,0.0,0.0,0.0,0.0,0.0,0.0,0.0,0.0,0.0,0.0,0.0,0.0,0.0,0.0,0.0,0.0,0.0,0.0,0.0,0.0,0.0,0.0,0.0,0.0,0.0,0.0,0.0,0.0,0.0,0.0,0.0,0.0,0.0,0.0,0.0,0.0,0.0,0.0,0.0,0.0,0.0,0.0,0.0,0.0,0.0,0.0,0.0,0.0,0.0,0.0,0.0,0.0,0.0,0.0,0.0,0.0,0.0,0.0,0.0,0.0,0.0,0.0,0.0,0.0,0.0,0.0,0.0,0.0,0.0,0.0,0.0,0.0,0.0,0.0,0.0,0.0,0.0,0.0,0.0,0.0,0.0,0.0,0.0,0.0,0.0,0.0,0.0,0.0,0.0,0.0,0.0,0.0,0.0,0.0,0.0,0.0,0.0,0.0,0.0,0.0,0.0,0.0,0.0,0.0,0.0,0.0,0.0,0.0,0.0,0.0,0.0,0.0,0.0,0.0,0.0,0.0,0.0,0.0,0.0,0.0,0.0,0.0,0.0,0.0,0.0,0.0,0.0,0.0,0.0,0.0,0.0,0.0,0.0,0.0,0.0,0.0,0.0,0.0,0.0,0.0,0.0,0.0,0.0,0.0,0.0,0.0,0.0,0.0,0.0,0.0,0.0,0.0,0.0,0.0,0.0,0.0,0.0,0.0,0.0,0.0,0.0,0.0,0.0,0.0,0.0,0.0,0.0,0.0,0.0,0.0,0.0,0.0,0.0,0.0,0.0,0.0,0.0,0.0,0.0,0.0,0.0,0.0,0.0,0.0,0.0,0.0,0.0,0.0,0.0,0.0,0.0,0.0,0.0,0.0,0.0,0.0,0.0,0.0,0.0,0.0,0.0,0.0,0.0,0.0,0.0,0.0,0.0,0.0,0.0,0.0,0.0,0.0,0.0,0.0,0.0,0.0,0.0,0.0,0.0,0.0,0.0,0.0,0.0,0.0,0.0,0.0,0.0,0.0,0.0,0.0,0.0,0.0,0.0,0.0,0.0,0.0,0.0,0.0,0.0,0.0,0.0,0.0,0.0,0.0,0.0,0.0,0.0,0.0,0.0,0.0,0.0,0.0,0.0,0.0,0.0,0.0,0.0,0.0,0.0,0.0,0.0,0.0,0.0,0.0,0.0,0.0,0.0,0.0,0.0,0.0,0.0,0.0,0.0,0.0,0.0,0.0,0.0,0.0,0.0,0.0,0.0,0.0,0.0,0.0,0.0,0.0,0.0,0.0,0.0,0.0,0.0,0.0,0.0,0.0,0.0,0.0,0.0,0.0,0.0,0.0,0.0,0.0,0.0,0.0,0.0,0.0,0.0,0.0,0.0,0.0,0.0,0.0,0.0,0.0,0.0,0.0,0.0,0.0,0.0,0.0,0.0,0.0,0.0,0.0,0.0,0.0,0.0,0.0,0.0,0.0,0.0,0.0,0.0,0.0,0.0,0.0,0.0,0.0,0.0,0.0,0.0,0.0,0.0,0.0,0.0,0.0,0.0,0.0,0.0,0.0,0.0,0.0,0.0,0.0,0.0,0.0,0.0,0.0,0.0,0.0,0.0,0.0,0.0,0.0,0.0,0.0,0.0,0.0,0.0,0.0,0.0,0.0,0.0,0.0,0.0,0.0,0.0,0.0,0.0,0.0,0.0,0.0,0.0,0.0,0.0,0.0,0.0,0.0,0.0,0.0,0.0,0.0,0.0,0.0,0.0,0.0,0.0,0.0,0.0,0.0,0.0,0.0,0.0,0.0,0.0,0.0,0.0,0.0,0.0,0.0,0.0,0.0,0.0,0.0,0.0,0.0,1.5984,0.0,0.0,0.0,0.0,0.0,0.0,0.0,0.0,0.0,0.0,0.0,0.0,0.0,0.0,0.0,0.0,0.0,0.0,0.0,0.0,0.0,0.0,0.0,0.0,0.0,0.0,0.0,0.0,0.0,0.0,0.0,0.0,0.0,0.0,0.0,0.0,0.0,0.0,0.0,0.0,0.0,0.0,0.0,0.0,0.0,0.0,0.0,0.0,0.0,0.0,0.0,0.0,0.0,0.0,0.0,0.0,0.0,0.0,0.0,0.0,0.0,0.0,0.0,0.0,0.0,0.0,0.0,0.0,0.0,0.0,0.0,0.0,0.0,0.0,0.0,0.0,0.0,0.0,0.0,0.0,0.0,0.0,0.0,0.0,0.0,0.0,0.0,0.0,0.0,0.0,0.0,0.0,0.0,0.0,0.0,0.0,0.0,0.0,0.0,0.0,0.0,0.0,0.0,0.0,0.0,0.0,0.0,0.0,0.0,0.0,1.9331,1.6138,2.0831,2.0908,1.5522,0.0,0.0,0.0,0.0,0.0,0.0,0.0,0.0,0.0,0.0,0.0,0.0,0.0,0.0,0.0,0.0,0.0,0.0,0.0,0.0,0.0,0.0,0.0,0.0,0.0,0.0,0.0,0.0,0.0,0.0,0.0,0.0,0.0,0.0,0.0,0.0,0.0,0.0,0.0,0.0,0.0,0.0,0.0,0.0,0.0,0.0,0.0,0.0,0.0,0.0,0.0,0.0,0.0,0.0,0.0,0.0,0.0,0.0,0.0,0.0,0.0,0.0,0.0,0.0,0.0,0.0,0.0,0.0,0.0,0.0,0.0,0.0,0.0,0.0,0.0,0.0,0.0,0.0,0.0,0.0,0.0,0.0,0.0,0.0,0.0,0.0,0.0,0.0,0.0,0.0,0.0,0.0,0.0,0.0,0.0,0.0,0.0,0.0,0.0,0.0,0.0,0.0,0.0,0.0,0.0,0.0,0.0,0.0,0.0,0.0,0.0,0.0,2.1486,2.1332,1.6675,0.0,0.0,0.0,0.0,0.0,0.0,0.0,0.0,0.0,0.0,0.0,0.0,0.0,0.0,0.0,0.0,0.0,0.0,0.0,0.0,0.0,0.0,0.0,0.0,0.0,0.0,0.0,0.0,0.0,0.0,0.0,0.0,0.0,0.0,0.0,0.0,0.0,0.0,0.0,0.0,0.0,0.0,0.0,0.0,0.0,0.0,0.0,0.0,0.0,0.0,0.0,0.0,0.0,0.0,0.0,0.0,0.0,0.0,0.0,0.0,0.0,0.0,0.0,0.0,0.0,0.0,0.0,0.0,0.0,0.0,0.0,0.0,0.0,0.0,0.0,0.0,0.0,0.0,0.0,0.0,0.0,0.0,0.0,0.0,0.0,0.0,0.0,0.0,0.0,0.0,0.0,0.0,0.0,0.0,0.0,0.0,0.0,0.0,0.0,0.0,0.0,0.0,0.0,0.0,0.0,0.0,0.0,0.0,0.0,0.0,1.9981,2.1204,2.1682,0.0,1.9953,0.0,0.0,0.0,0.0,0.0,0.0,0.0,0.0,0.0,0.0,0.0,0.0,0.0,0.0,0.0,0.0,0.0,0.0,0.0,0.0,0.0,0.0,0.0,0.0,0.0,0.0,0.0,0.0,0.0,0.0,0.0,0.0,0.0,0.0,0.0,0.0,0.0,0.0,0.0,0.0,0.0,0.0,0.0,0.0,0.0,0.0,0.0,0.0,0.0,0.0,0.0,0.0,0.0,0.0,0.0,0.0,0.0,0.0,0.0,0.0,0.0,0.0,0.0,0.0,0.0,0.0,0.0,0.0,0.0,0.0,0.0,0.0,0.0,0.0,0.0,0.0,0.0,0.0,0.0,0.0,0.0,0.0,0.0,0.0,0.0,0.0,0.0,0.0,0.0,0.0,0.0,0.0,0.0,0.0,0.0,0.0,0.0,0.0,0.0,0.0,0.0,0.0,0.0,0.0,0.0,0.0,0.0,0.0,0.0,0.0,2.0734,2.2421,2.1958,2.0834,0.0,0.0,0.0,0.0,0.0,0.0,0.0,0.0,0.0,0.0,0.0,0.0,0.0,0.0,0.0,0.0,0.0,0.0,0.0,0.0,0.0,0.0,0.0,0.0,0.0,0.0,0.0,0.0,0.0,0.0,0.0,0.0,0.0,0.0,0.0,0.0,0.0,0.0,0.0,0.0,0.0,0.0,0.0,0.0,0.0,0.0,0.0,0.0,0.0,0.0,0.0,0.0,0.0,0.0,0.0,0.0,0.0,0.0,0.0,0.0,0.0,0.0,0.0,0.0,0.0,0.0,0.0,0.0,0.0,0.0,0.0,0.0,0.0,0.0,0.0,0.0,0.0,0.0,0.0,0.0,0.0,0.0,0.0,0.0,0.0,0.0,0.0,0.0,0.0,0.0,0.0,0.0,0.0,0.0,0.0,0.0,0.0,0.0,0.0,0.0,0.0,0.0,0.0,0.0,0.0,0.0,0.0,0.0,0.0,0.0,2.1876,2.2441,2.4225,2.222,2.0506,1.937,0.0,0.0,0.0,0.0,0.0,0.0,0.0,0.0,0.0,0.0,0.0,0.0,0.0,0.0,0.0,0.0,0.0,0.0,0.0,0.0,0.0,0.0,0.0,0.0,0.0,0.0,0.0,0.0,0.0,0.0,0.0,0.0,0.0,0.0,0.0,0.0,0.0,0.0,0.0,0.0,0.0,0.0,0.0,0.0,0.0,0.0,0.0,0.0,0.0,0.0,0.0,0.0,0.0,0.0,0.0,0.0,0.0,0.0,0.0,0.0,0.0,0.0,0.0,0.0,0.0,0.0,0.0,0.0,0.0,0.0,0.0,0.0,0.0,0.0,0.0,0.0,0.0,0.0,0.0,0.0,0.0,0.0,0.0,0.0,0.0,0.0,0.0,0.0,0.0,0.0,0.0,0.0,0.0,0.0,0.0,0.0,0.0,0.0,0.0,0.0,0.0,0.0,0.0,0.0,0.0,0.0,0.0,0.0,2.7402,2.541,2.543,2.7715,2.2461,2.0508,0.0,0.0,0.0,0.0,0.0,0.0,0.0,0.0,0.0,0.0,0.0,0.0,0.0,0.0,0.0,0.0,0.0,0.0,0.0,0.0,0.0,0.0,0.0,0.0,0.0,0.0,0.0,0.0,0.0,0.0,0.0,0.0,0.0,0.0,0.0,0.0,0.0,0.0,0.0,0.0,0.0,0.0,0.0,0.0,0.0,0.0,0.0,0.0,0.0,0.0,0.0,0.0,0.0,0.0,0.0,0.0,0.0,0.0,0.0,0.0,0.0,0.0,0.0,0.0,0.0,0.0,0.0,0.0,0.0,0.0,0.0,0.0,0.0,0.0,0.0,0.0,0.0,0.0,0.0,0.0,0.0,0.0,0.0,0.0,0.0,0.0,0.0,0.0,0.0,0.0,0.0,0.0,0.0,0.0,0.0,0.0,0.0,0.0,0.0,0.0,0.0,0.0,0.0,0.0,0.0,0.0,0.0,0.0,0.0,2.332,2.5644,2.6543,2.584,2.5273,2.4727,0.0,0.0,0.0,0.0,0.0,0.0,0.0,0.0,0.0,0.0,0.0,0.0,0.0,0.0,0.0,0.0,0.0,0.0,0.0,0.0,0.0,0.0,0.0,0.0,0.0,0.0,0.0,0.0,0.0,0.0,0.0,0.0,0.0,0.0,0.0,0.0,0.0,0.0,0.0,0.0,0.0,0.0,0.0,0.0,0.0,0.0,0.0,0.0,0.0,0.0,0.0,0.0,0.0,0.0,0.0,0.0,0.0,0.0,0.0,0.0,0.0,0.0,0.0,0.0,0.0,0.0,0.0,0.0,0.0,0.0,0.0,0.0,0.0,0.0,0.0,0.0,0.0,0.0,0.0,0.0,0.0,0.0,0.0,0.0,0.0,0.0,0.0,0.0,0.0,0.0,0.0,0.0,0.0,0.0,0.0,0.0,0.0,0.0,0.0,0.0,0.0,0.0,0.0,0.0,0.0,0.0,0.0,0.0,0.0,2.3119,0.0,2.8639,2.6953,2.6934,2.6191,0.0,0.0,0.0,0.0,0.0,0.0,0.0,0.0,0.0,0.0,0.0,0.0,0.0,0.0,0.0,0.0,0.0,0.0,0.0,0.0,0.0,0.0,0.0,0.0,0.0,0.0,0.0,0.0,0.0,0.0,0.0,0.0,0.0,0.0,0.0,0.0,0.0,0.0,0.0,0.0,0.0,0.0,0.0,0.0,0.0,0.0,0.0,0.0,0.0,0.0,0.0,0.0,0.0,0.0,0.0,0.0,0.0,0.0,0.0,0.0,0.0,0.0,0.0,0.0,0.0,0.0,0.0,0.0,0.0,0.0,0.0,0.0,0.0,0.0,0.0,0.0,0.0,0.0,0.0,0.0,0.0,0.0,0.0,0.0,0.0,0.0,0.0,0.0,0.0,0.0,0.0,0.0,0.0,0.0,0.0,0.0,0.0,0.0,0.0,0.0,0.0,0.0,0.0,0.0,0.0,0.0,0.0,0.0,2.3106,2.7879,3.0483,3.1718,3.1816,2.7129,2.4492,0.0,0.0,0.0,0.0,0.0,0.0,0.0,0.0,0.0,0.0,0.0,0.0,0.0,0.0,0.0,0.0,0.0,0.0,0.0,0.0,0.0,0.0,0.0,0.0,0.0,0.0,0.0,0.0,0.0,0.0,0.0,0.0,0.0,0.0,0.0,0.0,0.0,0.0,0.0,0.0,0.0,0.0,0.0,0.0,0.0,0.0,0.0,0.0,0.0,0.0,0.0,0.0,0.0,0.0,0.0,0.0,0.0,0.0,0.0,0.0,0.0,0.0,0.0,0.0,0.0,0.0,0.0,0.0,0.0,0.0,0.0,0.0,0.0,0.0,0.0,0.0,0.0,0.0,0.0,0.0,0.0,0.0,0.0,0.0,0.0,0.0,0.0,0.0,0.0,0.0,0.0,0.0,0.0,0.0,0.0,0.0,0.0,0.0,0.0,0.0,0.0,0.0,0.0,0.0,0.0,0.0,0.0,0.0,0.0,2.5644,2.9707,3.1936,3.1874,2.875,2.7012,0.0,0.0,0.0,0.0,0.0,0.0,0.0,0.0,0.0,0.0,0.0,0.0,0.0,0.0,0.0,0.0,0.0,0.0,0.0,0.0,0.0,0.0,0.0,0.0,0.0,0.0,0.0,0.0,0.0,0.0,0.0,0.0,0.0,0.0,0.0,0.0,0.0,0.0,0.0,0.0,0.0,0.0,0.0,0.0,0.0,0.0,0.0,0.0,0.0,0.0,0.0,0.0,0.0,0.0,0.0,0.0,0.0,0.0,0.0,0.0,0.0,0.0,0.0,0.0,0.0,0.0,0.0,0.0,0.0,0.0,0.0,0.0,0.0,0.0,0.0,0.0,0.0,0.0,0.0,0.0,0.0,0.0,0.0,0.0,0.0,0.0,0.0,0.0,0.0,0.0,0.0,0.0,0.0,0.0,0.0,0.0,0.0,0.0,0.0,0.0,0.0,0.0,0.0,0.0,0.0,0.0,0.0,0.0,0.0,2.7826,3.1306,3.3273,3.3344,2.9962,2.8143,2.8057,0.0,0.0,0.0,0.0,0.0,0.0,0.0,0.0,0.0,0.0,0.0,0.0,0.0,0.0,0.0,0.0,0.0,0.0,0.0,0.0,0.0,0.0,0.0,0.0,0.0,0.0,0.0,0.0,0.0,0.0,0.0,0.0,0.0,0.0,0.0,0.0,0.0,0.0,0.0,0.0,0.0,0.0,0.0,0.0,0.0,0.0,0.0,0.0,0.0,0.0,0.0,0.0,0.0,0.0,0.0,0.0,0.0,0.0,0.0,0.0,0.0,0.0,0.0,0.0,0.0,0.0,0.0,0.0,0.0,0.0,0.0,0.0,0.0,0.0,0.0,0.0,0.0,0.0,0.0,0.0,0.0,0.0,0.0,0.0,0.0,0.0,0.0,0.0,0.0,0.0,0.0,0.0,0.0,0.0,0.0,0.0,0.0,0.0,0.0,0.0,0.0,0.0,0.0,0.0,0.0,0.0,0.0,0.0,3.3215,3.4807,3.5603,3.5488,3.0642,2.8016,0.0,0.0,0.0,0.0,0.0,0.0,0.0,0.0,0.0,0.0,0.0,0.0,0.0,0.0,0.0,0.0,0.0,0.0,0.0,0.0,0.0,0.0,0.0,0.0,0.0,0.0,0.0,0.0,0.0,0.0,0.0,0.0,0.0,0.0,0.0,0.0,0.0,0.0,0.0,0.0,0.0,0.0,0.0,0.0,0.0,0.0,0.0,0.0,0.0,0.0,0.0,0.0,0.0,0.0,0.0,0.0,0.0,0.0,0.0,0.0,0.0,0.0,0.0,0.0,0.0,0.0,0.0,0.0,0.0,0.0,0.0,0.0,0.0,0.0,0.0,0.0,0.0,0.0,0.0,0.0,0.0,0.0,0.0,0.0,0.0,0.0,0.0,0.0,0.0,0.0,0.0,0.0,0.0,0.0,0.0,0.0,0.0,0.0,0.0,0.0,0.0,0.0,0.0,0.0,0.0,0.0,0.0,0.0,0.0,3.4865,3.6517,3.6796,3.5545,3.0612,2.793,0.0,0.0,0.0,0.0,0.0,0.0,0.0,0.0,0.0,0.0,0.0,0.0,0.0,0.0,0.0,0.0,0.0,0.0,0.0,0.0,0.0,0.0,0.0,0.0,0.0,0.0,0.0,0.0,0.0,0.0,0.0,0.0,0.0,0.0,0.0,0.0,0.0,0.0,0.0,0.0,0.0,0.0,0.0,0.0,0.0,0.0,0.0,0.0,0.0,0.0,0.0,0.0,0.0,0.0,0.0,0.0,0.0,0.0,0.0,0.0,0.0,0.0,0.0,0.0,0.0,0.0,0.0,0.0,0.0,0.0,0.0,0.0,0.0,0.0,0.0,0.0,0.0,0.0,0.0,0.0,0.0,0.0,0.0,0.0,0.0,0.0,0.0,0.0,0.0,0.0,0.0,0.0,0.0,0.0,0.0,0.0,0.0,0.0,0.0,0.0,0.0,0.0,0.0,0.0,0.0,0.0,0.0,0.0,3.3417,3.7064,3.807,3.793,3.6622,3.2346,2.936,0.0,0.0,0.0,0.0,0.0,0.0,0.0,0.0,0.0,0.0,0.0,0.0,0.0,0.0,0.0,0.0,0.0,0.0,0.0,0.0,0.0,0.0,0.0,0.0,0.0,0.0,0.0,0.0,0.0,0.0,0.0,0.0,0.0,0.0,0.0,0.0,0.0,0.0,0.0,0.0,0.0,0.0,0.0,0.0,0.0,0.0,0.0,0.0,0.0,0.0,0.0,0.0,0.0,0.0,0.0,0.0,0.0,0.0,0.0,0.0,0.0,0.0,0.0,0.0,0.0,0.0,0.0,0.0,0.0,0.0,0.0,0.0,0.0,0.0,0.0,0.0,0.0,0.0,0.0,0.0,0.0,0.0,0.0,0.0,0.0,0.0,0.0,0.0,0.0,0.0,0.0,0.0,0.0,0.0,0.0,0.0,0.0,0.0,0.0,0.0,0.0,0.0,0.0,0.0,0.0,0.0,0.0,0.0,3.5086,3.9296,3.9431,3.9008,3.8084,3.4889,3.1533,0.0,0.0,0.0,0.0,0.0,0.0,0.0,0.0,0.0,0.0,0.0,0.0,0.0,0.0,0.0,0.0,0.0,0.0,0.0,0.0,0.0,0.0,0.0,0.0,0.0,0.0,0.0,0.0,0.0,0.0,0.0,0.0,0.0,0.0,0.0,0.0,0.0,0.0,0.0,0.0,0.0,0.0,0.0,0.0,0.0,0.0,0.0,0.0,0.0,0.0,0.0,0.0,0.0,0.0,0.0,0.0,0.0,0.0,0.0,0.0,0.0,0.0,0.0,0.0,0.0,0.0,0.0,0.0,0.0,0.0,0.0,0.0,0.0,0.0,0.0,0.0,0.0,0.0,0.0,0.0,0.0,0.0,0.0,0.0,0.0,0.0,0.0,0.0,0.0,0.0,0.0,0.0,0.0,0.0,0.0,0.0,0.0,0.0,0.0,0.0,0.0,0.0,0.0,0.0,0.0,0.0,0.0,0.0,3.5374,4.0085,4.0239,3.9854,3.9027,3.5724,3.2352,0.0,0.0,0.0,0.0,0.0,0.0,0.0,0.0,0.0,0.0,0.0,0.0,0.0,0.0,0.0,0.0,0.0,0.0,0.0,0.0,0.0,0.0,0.0,0.0,0.0,0.0,0.0,0.0,0.0,0.0,0.0,0.0,0.0,0.0,0.0,0.0,0.0,0.0,0.0,0.0,0.0,0.0,0.0,0.0,0.0,0.0,0.0,0.0,2.0057,0.0,0.0,0.0,0.0,0.0,0.0,0.0,0.0,0.0,0.0,0.0,0.0,0.0,0.0,0.0,0.0,0.0,0.0,0.0,0.0,0.0,0.0,0.0,0.0,0.0,0.0,0.0,0.0,0.0,0.0,0.0,0.0,0.0,0.0,0.0,0.0,0.0,0.0,0.0,0.0,0.0,0.0,0.0,0.0,0.0,0.0,0.0,0.0,0.0,0.0,0.0,0.0,0.0,0.0,0.0,0.0,0.0,0.0,0.0,3.6613,4.0335,4.0489,4.0296,3.9815,3.8104,3.4814,0.0,0.0,0.0,0.0,0.0,0.0,0.0,0.0,0.0,0.0,0.0,0.0,0.0,0.0,0.0,0.0,0.0,0.0,0.0,0.0,0.0,0.0,0.0,0.0,0.0,0.0,0.0,0.0,0.0,0.0,0.0,0.0,0.0,0.0,0.0,0.0,0.0,0.0,0.0,0.0,0.0,0.0,0.0,0.0,0.0,0.0,0.0,0.0,0.0,0.0,0.0,0.0,0.0,0.0,0.0,0.0,0.0,0.0,0.0,0.0,0.0,0.0,0.0,0.0,0.0,0.0,0.0,0.0,0.0,0.0,0.0,0.0,0.0,0.0,0.0,0.0,0.0,0.0,0.0,0.0,0.0,0.0,0.0,0.0,0.0,0.0,0.0,0.0,0.0,0.0,0.0,0.0,0.0,0.0,0.0,0.0,0.0,0.0,0.0,0.0,0.0,0.0,0.0,0.0,0.0,0.0,0.0,3.5056,3.7546,4.0354,4.0489,4.0489,4.0489,4.0489,3.745,3.1071,0.0,0.0,0.0,0.0,0.0,0.0,0.0,0.0,0.0,0.0,0.0,0.0,0.0,0.0,0.0,0.0,0.0,0.0,0.0,0.0,0.0,0.0,0.0,0.0,0.0,0.0,0.0,0.0,0.0,0.0,0.0,0.0,0.0,0.0,0.0,0.0,0.0,0.0,1.6537,1.9204,0.0,0.0,0.0,0.0,0.0,0.0,0.0,0.0,2.2226,0.0,0.0,0.0,0.0,0.0,0.0,0.0,0.0,0.0,0.0,0.0,0.0,0.0,0.0,0.0,0.0,0.0,0.0,0.0,0.0,0.0,0.0,0.0,0.0,0.0,0.0,0.0,0.0,0.0,0.0,0.0,0.0,0.0,0.0,0.0,0.0,0.0,0.0,0.0,0.0,0.0,0.0,0.0,0.0,0.0,0.0,0.0,0.0,0.0,0.0,0.0,0.0,0.0,0.0,0.0,0.0,3.2859,3.3333,3.5776,4.0354,4.0489,4.0489,4.0489,4.0489,3.7988,3.2833,0.0,0.0,0.0,0.0,0.0,0.0,0.0,0.0,0.0,0.0,0.0,0.0,0.0,0.0,0.0,0.0,0.0,0.0,0.0,0.0,0.0,0.0,0.0,0.0,0.0,0.0,0.0,0.0,0.0,0.0,0.0,0.0,0.0,0.0,0.0,0.0,0.0,0.0,0.0,2.3728,2.4555,0.0,0.0,0.0,0.0,0.0,0.0,0.0,0.0,2.4531,0.0,0.0,0.0,0.0,0.0,0.0,0.0,0.0,0.0,0.0,0.0,0.0,0.0,0.0,0.0,0.0,0.0,0.0,0.0,0.0,0.0,0.0,0.0,0.0,0.0,0.0,0.0,0.0,0.0,0.0,0.0,0.0,0.0,0.0,0.0,0.0,0.0,0.0,0.0,0.0,0.0,0.0,0.0,0.0,0.0,0.0,0.0,0.0,0.0,0.0,0.0,0.0,0.0,0.0,0.0,3.2891,3.5488,3.8027,4.0392,4.0356,4.0285,4.0304,4.012,3.7734,0.0,0.0,0.0,0.0,0.0,0.0,0.0,0.0,0.0,0.0,0.0,0.0,0.0,0.0,0.0,0.0,0.0,0.0,0.0,0.0,0.0,0.0,0.0,0.0,0.0,0.0,0.0,0.0,0.0,0.0,0.0,0.0,0.0,0.0,0.0,0.0,0.0,0.0,0.0,0.0,2.5699,2.6612,2.8231,0.0,0.0,0.0,0.0,0.0,0.0,2.4989,2.4571,0.0,0.0,0.0,0.0,0.0,0.0,0.0,0.0,0.0,0.0,0.0,0.0,0.0,0.0,0.0,0.0,0.0,0.0,0.0,0.0,0.0,0.0,0.0,0.0,0.0,0.0,0.0,0.0,0.0,0.0,0.0,0.0,0.0,0.0,0.0,0.0,0.0,0.0,0.0,0.0,0.0,0.0,0.0,0.0,0.0,0.0,0.0,0.0,0.0,0.0,0.0,0.0,0.0,0.0,0.0,3.3045,3.7392,3.9988,4.045,4.0232,4.0101,4.0101,3.9775,3.7364,0.0,0.0,0.0,0.0,0.0,0.0,0.0,0.0,0.0,0.0,0.0,0.0,0.0,0.0,0.0,0.0,0.0,0.0,0.0,0.0,0.0,0.0,0.0,0.0,0.0,0.0,0.0,0.0,0.0,0.0,0.0,0.0,0.0,0.0,0.0,0.0,0.0,0.0,0.0,0.0,0.0,2.8417,3.0327,2.9079,0.0,0.0,0.0,0.0,2.5633,2.5709,0.0,0.0,0.0,0.0,0.0,0.0,0.0,0.0,0.0,0.0,0.0,0.0,0.0,0.0,0.0,0.0,0.0,0.0,0.0,0.0,0.0,0.0,0.0,0.0,0.0,0.0,0.0,0.0,0.0,0.0,0.0,0.0,0.0,0.0,0.0,0.0,0.0,0.0,0.0,0.0,0.0,0.0,0.0,0.0,0.0,0.0,0.0,0.0,0.0,0.0,0.0,0.0,0.0,0.0,0.0,0.0,3.2891,3.5699,3.8219,4.0354,4.0251,4.0101,4.0101,3.9775,3.7366,0.0,0.0,0.0,0.0,0.0,0.0,0.0,0.0,0.0,0.0,0.0,0.0,0.0,0.0,0.0,0.0,0.0,0.0,0.0,0.0,0.0,0.0,0.0,0.0,0.0,0.0,0.0,0.0,0.0,0.0,0.0,0.0,0.0,0.0,0.0,0.0,0.0,0.0,0.0,0.0,0.0,3.0438,2.8555,2.8114,2.7884,0.0,0.0,2.8491,3.0585,3.096,0.0,0.0,0.0,0.0,0.0,0.0,0.0,0.0,0.0,0.0,0.0,0.0,0.0,0.0,0.0,0.0,0.0,0.0,0.0,0.0,0.0,0.0,0.0,0.0,0.0,0.0,0.0,0.0,0.0,0.0,0.0,0.0,0.0,0.0,0.0,0.0,0.0,0.0,0.0,0.0,0.0,0.0,0.0,0.0,0.0,0.0,0.0,0.0,0.0,0.0,0.0,0.0,0.0,0.0,0.0,3.1795,3.3006,3.6834,3.9373,4.045,4.0251,3.9983,3.9838,3.9505,3.708,0.0,0.0,0.0,0.0,0.0,0.0,0.0,0.0,0.0,0.0,0.0,0.0,0.0,0.0,0.0,0.0,0.0,0.0,0.0,0.0,0.0,0.0,0.0,0.0,0.0,0.0,0.0,0.0,0.0,0.0,0.0,0.0,0.0,0.0,0.0,0.0,0.0,0.0,0.0,0.0,0.0,0.0,3.177,3.0782,0.0,0.0,0.0,3.0139,2.9708,0.0,0.0,0.0,0.0,0.0,0.0,0.0,0.0,0.0,0.0,0.0,0.0,0.0,0.0,0.0,0.0,0.0,0.0,0.0,0.0,0.0,0.0,0.0,0.0,0.0,0.0,0.0,0.0,0.0,0.0,0.0,0.0,0.0,0.0,0.0,0.0,0.0,0.0,0.0,0.0,0.0,0.0,0.0,0.0,0.0,0.0,0.0,0.0,0.0,0.0,0.0,0.0,0.0,0.0,0.0,0.0,0.0,3.2987,3.7911,4.0473,4.0389,4.012,3.9819,3.9462,3.9171,0.0,0.0,0.0,0.0,0.0,0.0,0.0,0.0,0.0,0.0,0.0,0.0,0.0,0.0,0.0,0.0,0.0,0.0,0.0,0.0,0.0,0.0,0.0,0.0,0.0,0.0,0.0,1.6985,0.0,0.0,0.0,0.0,0.0,0.0,0.0,0.0,0.0,0.0,0.0,0.0,0.0,0.0,3.1956,3.3585,3.2581,3.1855,0.0,0.0,3.1933,3.071,3.2072,3.2685,0.0,0.0,0.0,0.0,0.0,0.0,0.0,0.0,0.0,0.0,0.0,0.0,0.0,0.0,0.0,0.0,0.0,0.0,0.0,0.0,0.0,0.0,0.0,0.0,0.0,0.0,0.0,0.0,0.0,0.0,0.0,0.0,0.0,0.0,0.0,0.0,0.0,0.0,0.0,0.0,0.0,0.0,0.0,0.0,0.0,0.0,0.0,0.0,0.0,0.0,0.0,0.0,0.0,0.0,0.0,3.3083,3.7911,4.0392,4.0139,3.9797,3.9462,3.9152,3.8855,3.6611,0.0,0.0,0.0,0.0,0.0,0.0,0.0,0.0,0.0,0.0,0.0,0.0,0.0,0.0,0.0,0.0,0.0,0.0,0.0,0.0,0.0,0.0,0.0,0.0,0.0,0.0,0.0,0.0,0.0,0.0,0.0,0.0,0.0,0.0,0.0,0.0,0.0,0.0,0.0,0.0,0.0,3.144,3.1167,3.1694,3.2991,0.0,0.0,3.451,3.6921,3.7463,3.7651,3.7585,0.0,0.0,0.0,0.0,0.0,0.0,0.0,0.0,0.0,0.0,0.0,0.0,0.0,0.0,0.0,0.0,0.0,0.0,0.0,0.0,0.0,0.0,0.0,0.0,0.0,0.0,0.0,0.0,0.0,0.0,0.0,0.0,0.0,0.0,0.0,0.0,0.0,0.0,0.0,0.0,0.0,0.0,0.0,0.0,0.0,0.0,0.0,0.0,0.0,0.0,0.0,0.0,0.0,3.2891,3.2968,3.7753,4.0195,4.0081,3.9775,3.9438,3.9107,3.8999,3.7403,0.0,0.0,0.0,0.0,0.0,0.0,0.0,0.0,0.0,0.0,0.0,0.0,0.0,0.0,0.0,0.0,0.0,0.0,0.0,0.0,0.0,0.0,0.0,0.0,0.0,0.0,0.0,0.0,2.4401,2.4592,2.3519,0.0,0.0,0.0,0.0,0.0,0.0,0.0,0.0,0.0,0.0,3.4092,3.4501,3.4818,0.0,0.0,3.6453,3.6622,3.78,3.8093,3.8193,3.8286,3.836,0.0,0.0,0.0,0.0,0.0,0.0,0.0,0.0,0.0,0.0,0.0,0.0,0.0,0.0,0.0,0.0,0.0,0.0,0.0,0.0,0.0,0.0,0.0,0.0,0.0,0.0,0.0,0.0,0.0,0.0,0.0,0.0,0.0,0.0,0.0,0.0,0.0,0.0,0.0,0.0,0.0,0.0,0.0,0.0,0.0,0.0,0.0,0.0,0.0,0.0,0.0,0.0,3.2779,3.2799,3.7526,3.9901,3.9797,3.9576,3.9308,3.8999,3.8971,3.7821,0.0,0.0,0.0,0.0,0.0,0.0,0.0,0.0,0.0,0.0,0.0,0.0,0.0,0.0,0.0,0.0,0.0,0.0,0.0,0.0,0.0,0.0,0.0,0.0,0.0,0.0,0.0,0.0,2.6225,2.605,2.5538,0.0,0.0,0.0,0.0,0.0,0.0,0.0,0.0,0.0,0.0,3.6083,3.6589,3.6905,3.7195,3.7461,3.8023,3.8489,3.8708,3.8823,3.8911,3.9012,0.0,0.0,0.0,0.0,0.0,0.0,0.0,0.0,0.0,0.0,0.0,0.0,0.0,0.0,0.0,0.0,0.0,0.0,0.0,0.0,0.0,0.0,0.0,0.0,0.0,0.0,0.0,0.0,0.0,0.0,2.5703,0.0,0.0,0.0,0.0,0.0,0.0,0.0,0.0,0.0,0.0,0.0,0.0,0.0,0.0,0.0,0.0,0.0,0.0,0.0,0.0,0.0,0.0,3.2521,3.2597,3.7177,3.9438,3.9133,3.9107,3.899,3.8701,3.8689,3.7632,3.5366,0.0,0.0,0.0,0.0,0.0,0.0,0.0,0.0,0.0,0.0,0.0,0.0,0.0,0.0,0.0,0.0,0.0,0.0,0.0,0.0,0.0,0.0,0.0,0.0,0.0,0.0,2.459,2.4531,2.5515,0.0,0.0,0.0,0.0,0.0,0.0,0.0,0.0,0.0,0.0,3.6713,3.667,3.6395,3.7211,3.7991,3.8309,3.9286,4.0108,4.0329,4.0412,4.0501,0.0,0.0,0.0,0.0,0.0,0.0,0.0,0.0,0.0,0.0,0.0,0.0,0.0,0.0,0.0,0.0,0.0,0.0,0.0,0.0,0.0,0.0,0.0,0.0,0.0,0.0,0.0,2.5564,2.5564,0.0,0.0,0.0,0.0,0.0,0.0,0.0,0.0,0.0,0.0,0.0,3.8951,3.8951,0.0,0.0,0.0,0.0,0.0,0.0,0.0,0.0,0.0,0.0,0.0,0.0,3.2504,3.2697,3.6983,3.9212,3.9099,3.8923,3.8803,3.8707,3.8707,3.7632,3.5366,0.0,0.0,0.0,0.0,0.0,0.0,0.0,0.0,0.0,0.0,0.0,0.0,0.0,0.0,0.0,0.0,0.0,0.0,0.0,0.0,0.0,0.0,0.0,0.0,0.0,2.8725,0.0,0.0,0.0,0.0,0.0,0.0,0.0,0.0,0.0,0.0,0.0,3.5871,3.7303,3.7377,3.7422,3.7826,3.8203,3.8563,0.0,0.0,0.0,0.0,0.0,0.0,0.0,0.0,0.0,0.0,0.0,0.0,0.0,0.0,3.7132,3.7247,3.7206,3.7178,3.7187,0.0,0.0,0.0,0.0,0.0,0.0,0.0,0.0,0.0,0.0,0.0,0.0,0.0,0.0,0.0,0.0,2.72,0.0,0.0,0.0,0.0,0.0,0.0,0.0,0.0,3.6769,3.868,4.0081,3.9982,3.9735,0.0,3.9552,3.7942,0.0,0.0,0.0,0.0,0.0,0.0,0.0,0.0,3.3582,3.3639,3.7082,3.8961,3.8961,3.8792,3.8707,3.8707,3.8707,3.7996,3.6528,3.5703,3.4641,0.0,0.0,0.0,0.0,0.0,0.0,0.0,0.0,0.0,0.0,0.0,0.0,0.0,0.0,0.0,0.0,0.0,0.0,0.0,0.0,0.0,0.0,0.0,3.1968,0.0,0.0,0.0,0.0,0.0,0.0,0.0,0.0,0.0,3.5268,3.6362,3.74,3.8081,3.8011,3.8102,3.8634,0.0,0.0,0.0,0.0,0.0,0.0,0.0,4.0002,4.0004,4.0285,4.06,4.0739,4.0696,4.0658,4.0677,0.0,0.0,4.062,4.0597,4.0559,4.0568,4.0139,3.9946,4.0474,4.0115,3.9895,0.0,0.0,0.0,0.0,0.0,0.0,0.0,0.0,3.3,3.2923,0.0,3.0422,0.0,0.0,0.0,0.0,0.0,3.1776,0.0,0.0,3.8819,4.0005,4.0022,3.9712,3.9414,3.9125,3.9389,3.937,3.8902,3.6902,0.0,0.0,0.0,0.0,0.0,0.0,3.5612,3.5333,3.7544,3.8689,3.8707,3.8707,3.8707,3.8707,3.8707,3.867,3.8597,3.6602,3.5386,3.5254,3.1239,0.0,0.0,0.0,0.0,0.0,0.0,0.0,0.0,0.0,0.0,0.0,0.0,0.0,0.0,0.0,0.0,0.0,0.0,0.0,0.0,3.3539,0.0,0.0,0.0,0.0,0.0,0.0,0.0,0.0,0.0,0.0,3.8127,3.8016,3.809,3.864,0.0,0.0,0.0,0.0,3.9072,3.9072,3.9339,3.9552,3.9534,3.9574,3.9581,3.9599,0.0,0.0,4.0611,4.0566,4.0511,4.0677,4.0585,4.0489,4.0489,4.0616,4.0669,4.0673,4.0635,4.0658,4.0677,4.0521,4.0453,3.71,0.0,0.0,0.0,0.0,3.1957,3.2325,3.2949,3.2968,3.2968,3.2891,3.2201,0.0,0.0,0.0,0.0,0.0,0.0,3.4006,3.6377,3.6843,3.786,3.9364,3.9289,3.909,3.8815,3.8913,3.8902,3.8796,3.8172,3.6969,3.5243,0.0,0.0,0.0,0.0,3.5397,3.544,3.7552,3.8707,3.8707,3.8707,3.8707,3.8707,3.8707,3.8707,3.8707,3.8051,3.6978,3.5351,3.4096,0.0,0.0,0.0,0.0,0.0,0.0,0.0,0.0,0.0,0.0,0.0,0.0,0.0,0.0,0.0,0.0,0.0,0.0,0.0,3.6313,3.6132,3.5188,0.0,0.0,0.0,0.0,0.0,0.0,0.0,0.0,0.0,3.8786,3.8287,3.8104,0.0,0.0,3.8707,3.8707,3.8762,3.8833,3.8815,0.0,0.0,0.0,3.911,3.9232,3.9234,3.9529,3.984,4.0215,4.0234,4.0272,4.0515,4.0527,4.0489,4.0489,4.0527,4.0566,4.0566,4.0546,4.0546,4.0546,4.0527,4.0489,4.0723,3.6906,3.5984,3.5335,3.4971,3.5,3.5374,3.5911,3.5911,3.5911,3.5815,3.4854,3.4417,3.4353,3.3359,0.0,0.0,0.0,3.5479,3.7775,3.7459,3.7938,3.9043,3.8999,3.8855,3.8689,3.8803,3.8803,3.8707,3.8785,3.8383,3.7432,0.0,0.0,3.5164,3.6235,3.6734,3.6719,3.8,3.8707,3.8707,3.8707,3.8707,3.8707,3.8707,3.8707,3.8707,3.8707,3.8047,3.6705,3.5798,3.4678,0.0,0.0,0.0,0.0,0.0,0.0,0.0,0.0,0.0,0.0,0.0,3.0386,3.3116,0.0,0.0,0.0,3.4451,3.6255,3.8155,3.7753,0.0,0.0,0.0,0.0,0.0,0.0,0.0,3.7339,3.7504,3.7715,3.8002,3.7613,3.7649,3.8578,3.8707,3.8707,3.8707,0.0,3.8707,3.8707,3.8707,3.8707,3.8707,3.8817,3.8969,3.9082,3.9264,3.9529,3.9819,4.0004,4.0156,4.0302,4.0441,4.0489,4.0489,4.0489,4.0489,4.0489,4.0489,4.0489,4.0489,4.0489,4.0489,4.3299,4.3104,4.0905,3.9416,3.8514,3.8495,3.9349,4.0681,4.0681,4.0662,4.0412,3.8132,3.706,3.6873,3.4564,0.0,3.7076,3.7002,3.8044,4.0042,3.9731,3.9383,3.9044,3.8815,3.8707,3.8689,3.8961,3.8933,3.8738,3.9007,3.9165,3.9183,3.9239,3.9202,3.908,3.9053,3.8933,3.8689,3.8689,3.8707,3.8707,3.8707,3.8707,3.8707,3.8707,3.8707,3.8707,3.8707,3.8707,3.8634,3.6685,3.557,3.5502,0.0,0.0,0.0,0.0,0.0,0.0,0.0,0.0,0.0,0.0,0.0,0.0,0.0,0.0,0.0,3.7148,0.0,3.8552,3.8449,0.0,0.0,0.0,3.8497,3.7948,3.7685,3.738,3.6907,0.0,0.0,3.6457,0.0,3.702,3.8433,3.8645,3.8676,3.8707,3.8707,3.8707,3.8707,3.8707,3.8707,3.8707,3.8726,3.881,3.8999,3.9072,3.9238,3.9552,3.9867,4.008,4.0157,4.0339,4.0489,4.0489,4.0489,4.0489,4.0489,4.0489,4.0489,4.0489,4.0489,4.0489,4.4989,4.4951,4.4376,4.328,4.1937,4.1918,4.2126,4.2489,4.247,4.2104,4.1431,4.0866,4.0231,3.9565,3.895,3.9046,3.9611,3.9406,3.9432,3.969,3.9364,3.9082,3.8803,3.8719,3.8707,3.8689,3.8762,3.8743,3.8726,3.9369,3.9706,3.9743,4.032,4.0104,3.9127,3.8913,3.8743,3.8707,3.8707,3.8707,3.8707,3.8707,3.8707,3.8707,3.8707,3.8707,3.8707,3.8707,3.8707,3.8689,3.8198,3.7893,3.7863,3.5996,0.0,0.0,0.0,0.0,0.0,0.0,0.0,0.0,0.0,3.6488,3.9252,0.0,3.8822,0.0,3.7535,3.7461,3.8157,3.7802,0.0,0.0,3.7626,3.7449,3.6307,3.6714,3.6943,3.6556,3.644,3.658,3.696,3.7305,3.7667,3.8065,3.8099,3.8234,3.8609,3.8707,3.8707,3.8707,3.8707,3.8707,3.8707,3.8707,3.8719,3.8792,3.8961,3.9212,3.9552,3.9858,4.0165,4.0347,4.0457,4.0489,4.0489,4.0489,4.0489,4.0489,4.0489,4.0489,4.0489,4.0489,4.0489,4.5586,4.5586,4.5586,4.4412,4.2566,4.3316,4.3431,4.3104,4.3085,4.2835,4.2393,4.239,4.2101,4.1643,4.1662,4.1662,4.1627,4.1323,4.1005,4.0688,4.0379,4.0073,3.9772,3.9772,3.9772,3.9772,3.9772,3.9772,3.9808,4.0212,4.0432,4.0451,4.0891,4.073,4.0004,3.9829,3.9753,3.9766,3.9774,3.9626,3.9258,3.9234,3.905,3.8707,3.8707,3.8707,3.8707,3.8707,3.8707,3.8707,3.8707,3.8707,3.8689,3.7686,3.7616,0.0,0.0,0.0,0.0,0.0,0.0,0.0,0.0,0.0,0.0,0.0,3.8523,3.8081,3.7311,3.7102,3.7654,3.717,3.6806,3.6678,3.6907,3.6663,3.5722,3.6036,3.6253,3.6037,3.6054,3.6182,3.644,3.6746,3.6946,3.7193,3.7433,3.7843,3.8546,3.8707,3.8707,3.8707,3.8707,3.8707,3.8707,3.8707,3.8707,3.8707,3.8815,3.899,3.9181,3.9452,3.9733,4.0038,4.0224,4.0354,4.0469,4.0489,4.0489,4.0489,4.0489,4.0489,4.0489,4.0489,4.0489,4.5586,4.5586,4.5586,4.4316,4.2393,4.3855,4.3701,4.245,4.245,4.2585,4.278,4.3008,4.3085,4.3104,4.3085,4.3069,4.2996,4.2661,4.2329,4.2033,4.1735,4.1415,4.1111,4.1097,4.1097,4.1097,4.1097,4.1097,4.1097,4.1222,4.1277,4.1277,4.1387,4.1423,4.1423,4.1423,4.1328,4.1103,4.1106,4.0743,4.0065,4.0068,3.9682,3.8909,3.8854,3.8799,3.8707,3.8707,3.8707,3.8707,3.8707,3.8707,3.8707,3.8726,3.8838,0.0,3.9025,0.0,0.0,0.0,0.0,0.0,0.0,0.0,0.0,3.7811,3.7455,3.747,3.6746,3.6482,3.6946,3.6577,3.6282,3.631,3.632,3.6097,3.565,3.5639,3.5639,3.5639,3.5639,3.5622,3.5667,3.5667,3.5898,3.6416,3.6904,3.7524,3.8285,3.8596,3.8707,3.8707,3.8707,3.8707,3.8707,3.8707,3.8707,3.8707,3.8773,3.8743,3.8822,3.9024,3.9295,3.9571,3.9852,4.0106,4.0351,4.0364,4.0354,4.0354,4.0373,4.0431,4.0469,4.0489,4.0489,4.5586,4.5586,4.5586,4.5316,4.4913,4.522,4.2912,3.8969,3.8969,3.973,4.1085,4.2494,4.3104,4.3088,4.3104,4.2925,4.2602,4.2522,4.2196,4.1698,4.1632,4.1415,4.1111,4.1097,4.1097,4.1097,4.1097,4.1097,4.113,4.1754,4.2084,4.2084,4.2727,4.3039,4.3039,0.0,0.0,0.0,4.1123,4.1031,4.0891,4.0873,4.0469,3.9717,3.9662,0.0,3.8744,3.8707,3.8707,3.8707,3.8707,0.0,0.0,0.0,0.0,0.0,0.0,0.0,0.0,0.0,0.0,0.0,3.7025,3.7216,3.8259,3.7294,3.6631,3.6589,3.6094,3.5812,3.5881,3.5807,3.574,3.5768,3.5745,3.5694,3.5622,3.5639,3.5639,3.5639,3.5639,3.5639,3.5622,3.5985,3.6249,3.6392,3.6882,3.7266,3.7451,3.8168,3.8658,3.8707,3.8707,3.8707,3.8707,3.8707,3.8707,3.8719,3.8877,3.9007,3.9017,3.9245,3.9485,3.9577,3.9652,3.9702,3.9781,3.9756,3.9823,3.98,3.9992,4.0239,4.045,4.0489,4.0489,4.6836,0.0,4.6413,4.5528,0.0,4.3912,4.1546,3.818,4.0662,4.2242,4.3075,4.3953,4.4335,4.4259,4.2885,4.2144,4.1875,4.0388,4.0158,4.0999,4.0833,4.1285,4.2286,4.2286,4.2286,4.2304,4.2268,4.2304,4.2304,4.269,4.2892,4.291,4.3296,4.3479,4.3479,4.3479,4.3094,4.2286,4.2276,4.2093,4.1735,4.1687,4.1302,4.0524,0.0,0.0,0.0,0.0,0.0,0.0,0.0,0.0,0.0,0.0,0.0,3.8334,3.8206,3.797,3.7585,3.7341,3.7206,3.7175,3.6714,3.6571,3.6996,3.6371,3.6014,3.6028,3.5776,3.5639,3.5639,3.5639,3.5639,3.5639,3.5639,3.5639,3.5639,3.5639,3.5639,3.5639,3.5639,3.5639,3.5639,3.5827,3.5985,3.6011,3.644,3.6803,3.6882,3.7667,3.8382,3.8627,3.8707,3.8707,3.8707,3.8707,3.8707,3.8719,3.8807,3.8886,3.8894,3.9051,3.919,3.9302,3.9343,3.9391,3.9576,3.96,3.9603,3.9624,3.9736,3.9888,4.0062,4.0283,4.0489,4.8087,4.8048,4.7375,4.5913,4.3932,4.322,4.1643,3.9815,0.0,0.0,0.0,4.5411,4.5586,4.5451,4.3176,4.2106,4.1896,3.9373,3.9212,4.1008,4.0708,4.1589,4.3461,4.3479,4.3479,4.3479,4.3479,4.3479,4.3479,4.3479,4.3479,4.3479,4.3479,4.3479,4.3479,4.3479,4.3479,4.3479,4.3479,4.3167,4.2543,4.2512,4.2127,4.135,4.1332,4.0946,4.0139,3.9974,3.9588,3.8977,3.8762,3.8707,3.8707,3.8707,3.8456,3.7955,3.7849,3.7576,3.7072,3.6973,3.6922,3.69,3.6539,3.6071,3.5622,3.5639,3.5639,3.5639,3.5639,3.5639,3.5639,3.5639,3.5639,3.5639,3.5639,3.5639,3.5639,3.5639,3.5639,3.5639,3.5639,3.5639,3.5639,3.5622,3.5639,3.565,3.6097,3.6498,3.6746,3.7435,3.8158,3.859,3.8707,3.8707,3.8707,3.8707,3.8707,3.8707,3.8707,3.8707,3.8707,3.8707,3.8773,3.898,3.901,3.9127,3.9364,3.9397,3.9429,3.9457,3.9495,3.9511,3.957,4.0078,4.0466,4.8106,4.8086,4.7971,4.7721,4.7394,4.7259,4.6624,4.549,4.3335,4.2351,4.2464,4.4641,4.5586,4.5586,4.5184,4.4863,4.4543,4.3818,4.352,0.0,4.3148,4.3149,4.3479,4.3479,4.3479,4.3479,4.3479,4.3479,4.3479,4.3479,4.3479,4.3479,4.3479,4.3479,4.3479,4.3479,4.3479,4.3479,4.3479,4.3442,4.3314,4.3332,4.2965,4.2176,4.2139,4.1772,4.0983,4.0286,3.984,3.9718,3.9068,3.8707,3.8707,3.8689,3.8475,3.7948,3.7524,3.705,3.6542,3.6067,3.5813,3.5844,3.5739,3.565,3.5622,3.5639,3.5639,3.5639,3.5639,3.5639,3.5639,3.5639,3.5639,3.5639,3.5639,3.5639,3.5639,3.5639,3.5639,3.5639,3.5639,3.5639,3.5639,3.5639,3.5639,3.5667,3.6054,3.6684,3.7416,3.7805,3.8112,3.8548,3.8707,3.8707,3.8707,3.8707,3.8707,3.8707,3.8707,3.8707,3.8707,3.8762,3.8811,3.878,3.8934,3.8964,3.8973,3.8833,3.9024,3.9087,3.9261,3.9335,3.9404,4.0102,4.0559,4.951,4.9452,4.9009,4.8798,4.8779,4.8317,4.7894,4.7394,4.5451,4.4297,4.3987,4.5103,4.5586,4.547,4.3998,4.3235,4.3021,4.1194,4.0974,4.1986,4.1673,4.2249,4.3424,4.3479,4.3479,4.3479,4.3479,4.3479,4.3479,4.3479,4.3479,4.3479,4.3479,4.3479,4.3479,4.3479,4.3479,4.3479,4.3479,4.3479,4.3479,4.3479,4.3314,4.2947,4.2947,4.2561,4.1791,4.1405,4.0795,3.9933,3.9559,3.9006,3.8315,3.8261,3.7918,3.7143,3.6891,3.6542,3.6,3.5723,3.5639,3.5639,3.5639,3.5639,3.5639,3.5639,3.5639,3.5639,3.5639,3.5639,3.5639,3.5639,3.5639,3.5639,3.5639,3.5639,3.5639,3.5639,3.5639,3.5639,3.5639,3.5639,3.5639,3.5639,3.5639,3.5667,3.6054,3.6786,3.7755,3.792,3.8095,3.8572,3.8707,3.8707,3.8707,3.8707,3.8707,3.8707,3.8707,3.8707,3.8744,3.8995,3.9307,3.9386,3.9662,3.9992,3.9992,4.0031,4.0007,3.9989,4.0073,4.0184,4.0283,4.0653,4.0898,5.0683,5.0606,4.9971,4.9702,4.9606,4.8759,4.8394,4.8317,4.7528,4.6797,4.618,4.5796,4.5586,4.5374,4.3291,4.2354,4.1992,3.9739,3.9607,4.1166,4.0905,4.1699,4.3351,4.3479,4.3479,4.3479,4.3479,4.3479,4.3479,4.3479,4.3479,4.3479,4.3479,4.3479,4.3479,4.3479,4.3479,4.3479,4.3479,4.3479,4.3479,4.3479,4.3479,4.3479,4.3479,4.3185,4.2616,4.2415,4.1732,4.0533,4.0262,3.9548,3.8296,3.8172,3.766,3.6574,3.6394,3.618,3.5673,3.5639,3.5639,3.5639,3.5639,3.5639,3.5639,3.5639,3.5639,3.5639,3.5639,3.5639,3.5639,3.5639,3.5639,3.5639,3.5639,3.5639,3.5639,3.5639,3.5639,3.5639,3.5639,3.5639,3.5639,3.5639,3.5667,3.5871,3.6249,3.6943,3.772,3.8106,3.8522,3.8784,3.8836,3.8707,3.8707,3.8909,3.9001,3.8964,3.9179,3.9344,3.9454,3.984,4.0097,4.023,4.062,4.0895,4.1056,4.1061,4.0996,4.0941,4.0924,4.1042,4.1291,4.1364,4.139,5.0683,5.0683,5.0567,5.0567,5.0433,4.9644,4.9279,4.9183,4.8355,4.797,4.7701,4.6296,4.5643,4.5566,4.528,4.5068,4.5013,4.4265,4.3894,4.3958,4.3489,4.3277,4.3479,4.3479,4.3479,4.3479,4.3479,4.3479,4.3479,4.3479,4.3479,4.3479,4.3479,4.3479,4.3479,4.3479,4.3479,4.3479,4.3479,4.3479,4.3479,4.3479,4.3479,4.3479,4.3479,4.3461,4.3332,4.269,4.2234,4.2038,4.1372,4.0372,3.9156,3.8993,3.8235,3.6552,3.6382,3.618,3.5673,3.5639,3.5639,3.5639,3.5639,3.5639,3.5639,3.5639,3.5639,3.5639,3.5639,3.5639,3.5639,3.5639,3.5639,3.5639,3.5639,3.5639,3.5639,3.5639,3.5639,3.5639,3.5639,3.5639,3.5639,3.5639,3.5766,3.6182,3.6788,3.7352,3.7918,3.8958,3.9575,3.9612,3.9221,3.8854,3.8909,3.935,3.9717,3.9827,4.0375,4.0596,4.0666,4.0793,4.0985,4.1005,4.1152,4.1335,4.128,4.1111,4.1236,4.1438,4.1431,4.1384,4.1967,4.2165,4.2038,5.0135,5.0336,5.0336,5.0483,5.0625,5.0317,5.0164,5.0067,4.924,4.8856,4.874,4.7586,4.6817,4.6355,4.5836,4.5586,4.5531,4.4919,4.458,4.4546,4.3855,4.3479,4.3479,4.3479,4.3479,4.3479,4.3479,4.3479,4.3479,4.3479,4.3479,4.3479,4.3479,4.3479,4.3479,4.3479,4.3479,4.3479,4.3479,4.3479,4.3479,4.3479,4.3479,4.3479,4.3479,4.3479,4.3461,4.3167,4.2784,4.2349,4.1962,4.1034,3.9398,3.9355,3.8541,3.6778,3.618,3.5836,3.5639,3.5639,3.5639,3.5639,3.5639,3.5639,3.5639,3.5639,3.5639,3.5639,3.5639,3.5639,3.5639,3.5639,3.5639,3.5639,3.5639,3.5639,3.5639,3.5639,3.5639,3.5639,3.5639,3.5639,3.5639,3.5639,3.5827,3.6419,3.7233,3.794,3.8219,3.9547,4.0343,4.0156,4.0054,4.0125,4.012,4.0359,4.0598,4.0653,4.0882,4.1103,4.1222,4.158,4.1803,4.1794,4.2124,4.2381,4.2598,4.2525,4.2525,4.2436,4.2509,4.264,4.2962,4.3033,4.2812,4.9644,4.9943,5.0043,5.0272,5.0544,5.0663,5.0683,5.0625,5.001,4.976,4.9663,4.8836,4.8144,4.749,4.6451,4.597,4.5859,4.5103,4.4682,4.4527,4.3931,4.3579,4.3513,4.3479,4.3479,4.3479,4.3479,4.3479,4.3479,4.3479,4.3479,4.3479,4.3479,4.3479,4.3479,4.3479,4.3479,4.3479,4.3479,4.3479,4.3479,4.3479,4.3479,4.3479,4.3479,4.3479,4.3479,4.3479,4.3155,4.2449,4.2393,4.154,3.9743,3.9605,3.8848,3.7305,3.6571,3.6113,3.5938,3.591,3.5842,3.5656,3.5639,3.5639,3.5639,3.5639,3.5639,3.5639,3.5639,3.5639,3.5639,3.5639,3.5639,3.5639,3.5639,3.5639,3.5639,3.5639,3.5639,3.5639,3.5639,3.5723,3.5893,3.5977,3.6225,3.6852,3.7735,3.8461,3.8629,3.9875,4.1012,4.0655,4.1211,4.1501,4.1258,4.1313,4.1387,4.1534,4.1625,4.1901,4.1772,4.2328,4.2606,4.2708,4.3222,4.3369,4.3167,4.3314,4.3424,4.3461,4.3442,4.3406,4.3369,4.3461,4.3461,4.9514,4.957,4.9949,5.0116,5.0159,5.0544,5.0683,5.0683,5.0625,5.0606,5.0452,4.9721,4.9317,4.9125,4.7605,4.6855,4.6685,4.5621,4.4924,4.4629,4.4136,4.3804,4.3513,4.3479,4.3479,4.3479,4.3479,4.3479,4.3479,4.3479,4.3479,4.3479,4.3479,4.3479,4.3479,4.3479,4.3479,4.3479,4.3479,4.3479,4.3479,4.3479,4.3479,4.3479,4.3479,4.3479,4.3479,4.3479,4.3232,4.2696,4.268,4.1783,4.0044,3.9782,3.915,3.8025,3.7789,3.7445,3.6854,3.6746,3.6451,3.5842,3.5825,3.569,3.5842,3.5859,3.5842,3.569,3.5825,3.5791,3.574,3.569,3.5639,3.5639,3.5639,3.5639,3.5639,3.569,3.5639,3.569,3.5791,3.6113,3.6654,3.6721,3.7055,3.7619,3.827,3.8599,3.886,4.0179,4.1229,4.1595,4.2232,4.2855,4.1589,4.1809,4.2213,4.2323,4.2635,4.3167,4.3351,4.3442,4.3406,4.3387,4.3442,4.3461,4.3479,4.3479,4.3479,4.3479,4.3479,4.3479,4.3479,4.3479,4.3479,4.8881,4.9171,4.9827,5.0111,5.0159,5.0504,5.0683,5.0683,5.0683,5.0683,5.0644,5.0337,5.0221,5.0164,4.9029,4.8048,4.721,4.6079,4.5334,4.4886,4.4077,4.3631,4.3513,4.3479,4.3479,4.3479,4.3479,4.3479,4.3479,4.3479,4.3479,4.3479,4.3479,4.3479,4.3479,4.3479,4.3479,4.3479,4.3479,4.3479,4.3479,4.3479,4.3479,4.3479,4.3479,4.3479,4.3479,4.3479,4.325,4.2693,4.2693,4.2042,4.0627,3.974,3.9101,3.8647,3.8151,3.78,3.7547,3.7489,3.7398,3.7144,3.7077,3.7026,3.7077,3.7094,3.7094,3.706,3.706,3.7102,3.6865,3.6214,3.5639,3.5639,3.5639,3.569,3.5707,3.6051,3.6395,3.6418,3.6746,3.7212,3.7364,3.7499,3.7618,3.7919,3.8711,3.9135,3.9307,4.0764,4.2016,4.1934,4.2667,4.3314,4.2873,4.2837,4.3075,4.3112,4.3296,4.3351,4.3461,4.3479,4.3442,4.3424,4.3479,4.3479,4.3479,4.3479,4.3479,4.3479,4.3479,4.3479,4.3479,4.3479,4.3479,4.8568,4.8847,4.9719,4.9999,4.9993,5.0464,5.0683,5.0683,5.0683,5.0683,5.0683,5.0683,5.0683,5.0586,4.995,4.9105,4.8074,4.6923,4.6082,4.5531,4.4776,4.4223,4.3901,4.3883,4.3736,4.3516,4.3479,4.3479,4.3479,4.3479,4.3479,4.3479,4.3479,4.3479,4.3479,4.3479,4.3479,4.3479,4.3479,4.3479,4.3479,4.3479,4.3479,4.3479,4.3479,4.3479,4.3479,4.3339,4.3014,4.248,4.2221,4.1682,4.0668,3.9831,3.9379,3.9278,3.8875,3.8472,3.8305,3.8284,3.8142,3.7922,3.7905,3.7922,3.7908,3.7891,3.7874,3.7891,3.7922,3.7929,3.7699,3.6961,3.6366,3.6366,3.6349,3.6366,3.6383,3.6848,3.7121,3.7195,3.7492,3.7896,3.8179,3.8261,3.8396,3.8565,3.944,3.9696,3.9737,4.0784,4.2121,4.1955,4.2598,4.3087,4.3013,4.3066,4.3263,4.3334,4.3387,4.3461,4.3479,4.3479,4.3479,4.3479,4.3479,4.3479,4.3479,4.3479,4.3479,4.3479,4.3479,4.3479,4.3479,4.3479,4.3479,4.8657,4.8532,4.9608,4.9898,4.9746,5.0399,5.0683,5.0683,5.0683,5.0683,5.0683,5.0683,5.0663,5.0585,5.0199,4.9803,4.9117,4.8003,4.7061,4.6373,4.6197,4.5608,4.4727,4.4709,4.4305,4.3644,4.3534,4.3516,4.3479,4.3479,4.3479,4.3479,4.3479,4.3479,4.3479,4.3479,4.3479,4.3479,4.3479,4.3479,4.3479,4.3479,4.3479,4.3479,4.3479,4.3479,4.3444,4.2976,4.2462,4.1835,4.1313,4.0703,4.0237,4.002,4.0054,4.002,4.002,3.9665,3.911,3.9007,3.8717,3.8311,3.8041,3.8145,3.8215,3.8162,3.8128,3.8181,3.8145,3.8041,3.8122,3.7956,3.7807,3.7855,3.7638,3.7635,3.7716,3.7877,3.7933,3.8017,3.8154,3.8288,3.8788,3.8988,3.9191,3.9697,3.9968,4.0068,4.0001,4.0681,4.1161,4.1682,4.2203,4.2619,4.2884,4.3087,4.325,4.341,4.3426,4.3479,4.3479,4.3479,4.3479,4.3479,4.3479,4.3479,4.3479,4.3479,4.3479,4.3479,4.3479,4.3479,4.3479,4.3479,4.3479,4.8568,4.8779,4.9416,4.9792,4.9968,5.0483,5.0683,5.0683,5.0683,5.0683,5.0683,5.0683,5.0544,5.0313,5.0116,4.9728,4.9083,4.8602,4.7881,4.6943,4.6356,4.5917,4.5607,4.5516,4.5112,4.4452,4.4323,4.403,4.3589,4.3497,4.3479,4.3479,4.3479,4.3479,4.3479,4.3479,4.3479,4.3479,4.3479,4.3479,4.3479,4.3479,4.3479,4.3479,4.3479,4.3339,4.2976,4.2788,4.2203,4.1268,4.0995,4.0655,4.0204,4.0087,4.0087,4.0087,4.0087,4.0037,3.9817,3.9766,3.9614,3.9428,3.9377,3.9428,3.9395,3.9377,3.936,3.9361,3.9411,3.9411,3.9411,3.9394,3.8957,3.8003,3.7913,3.799,3.8075,3.8367,3.8877,3.9344,3.9413,3.9531,3.9698,3.9715,3.9766,3.9986,4.0087,4.0087,4.0154,4.0528,4.0903,4.1223,4.1679,4.2091,4.2226,4.2328,4.2494,4.2711,4.2923,4.3249,4.3303,4.3251,4.3286,4.3356,4.3356,4.3408,4.3442,4.3479,4.3479,4.3479,4.3479,4.3479,4.3479,4.3479,4.3479,4.8568,4.8744,4.9445,4.9773,4.9949,5.0462,5.0623,5.0483,5.0483,5.0399,5.0272,5.0249,5.0135,4.9879,4.9746,4.9367,4.8897,4.8744,4.8273,4.7591,4.7076,4.6654,4.6342,4.5993,4.5663,4.5241,4.5149,4.4727,4.3993,4.392,4.3791,4.3534,4.3479,4.3479,4.3479,4.3479,4.3479,4.3479,4.3479,4.3479,4.3479,4.3479,4.3428,4.325,4.3214,4.279,4.2121,4.2021,4.1682,4.0995,4.075,4.04,4.0121,4.0087,4.0087,4.0087,4.0087,4.007,4.0087,4.0037,4.0087,4.0087,4.0087,4.007,4.007,4.0087,4.0087,4.0087,4.0037,4.0087,4.0054,4.007,3.9632,3.8858,3.8805,3.8717,3.8768,3.9103,3.9542,3.9901,4.0037,4.0087,4.0087,4.0087,4.0087,4.0087,4.0087,4.0087,4.0171,4.0368,4.0607,4.0814,4.118,4.1436,4.1516,4.1603,4.1684,4.1962,4.2221,4.2662,4.2959,4.2706,4.2602,4.2693,4.2772,4.3013,4.3066,4.3389,4.3479,4.3479,4.3479,4.3479,4.3479,4.3479,4.3479,4.8657,4.8495,4.9532,4.98,4.9636,5.0272,5.0358,5.0111,5.0068,4.9898,4.9589,4.9636,4.9532,4.9386,4.9171,4.8945,4.8813,4.8532,4.8364,4.8233,4.8086,4.7755,4.715,4.6581,4.6214,4.5993,4.5957,4.548,4.4617,4.458,4.4268,4.3552,4.3479,4.3479,4.3479,4.3479,4.3479,4.3479,4.3479,4.3479,4.3479,4.3479,4.325,4.2788,4.2732,4.2244,4.1268,4.1013,4.092,4.078,4.0368,4.0171,4.0121,4.0087,4.0087,4.0087,4.0087,4.0087,4.0087,4.0087,4.0087,4.0087,4.0087,4.0087,4.0087,4.0087,4.0087,4.0087,4.0087,4.0087,4.0087,4.0087,4.002,4.0054,3.9834,3.9851,4.002,4.0036,4.0053,4.0087,4.0087,4.0087,4.0087,4.0087,4.0087,4.0087,4.0087,4.0087,4.0121,4.0254,4.0368,4.0566,4.0796,4.0827,4.0913,4.0987,4.1068,4.1128,4.1446,4.1908,4.2447,4.2269,4.2083,4.2192,4.2329,4.2592,4.2867,4.3226,4.3442,4.3479,4.3479,4.3479,4.3479,4.3479,4.3479,4.8568,4.8779,4.9075,4.9326,4.9504,4.9746,4.9773,4.9664,4.9645,4.958,4.9475,4.9504,4.9295,4.9043,4.8963,4.8763,4.8513,4.8382,4.8324,4.8324,4.8324,4.8233,4.8012,4.7774,4.7333,4.6874,4.6691,4.6067,4.48,4.4727,4.4287,4.3516,4.3479,4.3479,4.3479,4.3479,4.3479,4.3479,4.3479,4.3479,4.3479,4.3479,4.3214,4.275,4.2655,4.208,4.0995,4.0497,4.0336,4.0286,4.0221,4.0087,4.0087,4.0087,4.0087,4.0087,4.0087,4.0087,4.0087,4.0087,4.0087,4.0087,4.0087,4.0087,4.0087,4.0087,4.0087,4.0087,4.0087,4.0087,4.0087,4.0087,4.0087,4.0087,4.0087,4.0087,4.0087,4.0087,4.0087,4.0087,4.0087,4.0087,4.0087,4.0087,4.0087,4.0087,4.0087,4.0087,4.0087,4.0121,4.0254,4.0204,4.0305,4.0305,4.0322,4.0424,4.0458,4.0389,4.0607,4.1013,4.1578,4.1888,4.1839,4.1913,4.2103,4.23,4.2723,4.3098,4.3261,4.3387,4.3479,4.3479,4.3479,4.3479,4.3479,4.844,4.8657,4.8847,4.9043,4.9265,4.9416,4.9397,4.9265,4.9234,4.9139,4.9029,4.9015,4.8881,4.8657,4.8621,4.855,4.8306,4.8324,4.8324,4.8324,4.8324,4.8306,4.8288,4.8306,4.8049,4.7627,4.7241,4.6397,4.5351,4.4911,4.4268,4.3626,4.3479,4.3479,4.3479,4.3479,4.3479,4.3479,4.3479,4.3479,4.3479,4.3479,4.3014,4.251,4.2293,4.1768,4.072,4.0237,4.0087,4.0138,4.0087,4.0087,4.0087,4.0087,4.0087,4.0087,4.0087,4.0087,4.0087,4.0087,4.0087,4.0087,4.0087,4.0087,4.0087,4.0087,4.0087,4.0087,4.0087,4.0087,4.0087,4.0087,4.0087,4.0087,4.0087,4.0087,4.0087,4.0087,4.0087,4.0087,4.0087,4.0087,4.0087,4.0087,4.0087,4.0087,4.0087,4.0087,4.0087,4.0087,4.0087,4.0087,4.0087,4.0138,4.0188,4.0273,4.0256,4.0138,4.0204,4.0531,4.0814,4.1313,4.1286,4.1331,4.1725,4.2009,4.2268,4.2614,4.297,4.3114,4.3332,4.3461,4.3461,4.3375,4.341,4.8324,4.8326,4.8692,4.8847,4.8897,4.9202,4.9108,4.8863,4.8829,4.8657,4.8421,4.8344,4.8402,4.8324,4.8364,4.8324,4.8324,4.8324,4.8324,4.8324,4.8306,4.8251,4.8067,4.8251,4.8141,4.7884,4.7388,4.6562,4.5626,4.4947,4.4305,4.3681,4.3479,4.3479,4.3479,4.3479,4.3479,4.3479,4.3479,4.3479,4.3479,4.3426,4.2978,4.2024,4.1601,4.115,4.0434,4.0087,4.0087,4.0087,4.0087,4.0087,4.0087,4.0087,4.0087,4.0087,4.0087,4.0087,4.0087,4.0087,4.0087,4.0087,4.0087,4.0087,4.0087,4.0087,4.0087,4.0087,4.0087,4.0087,4.0087,4.0087,4.0087,4.0087,4.0087,4.0087,4.0087,4.0087,4.0087,4.0087,4.0087,4.0087,4.0087,4.0087,4.0087,4.0087,4.0087,4.0087,4.0087,4.0087,4.0087,4.0087,4.0087,4.0087,4.0138,4.0138,4.0155,4.0121,4.0121,4.0254,4.0303,4.0594,4.0497,4.0625,4.115,4.1305,4.1288,4.1765,4.2375,4.2668,4.2739,4.3087,4.3336,4.3232,4.3178,4.8324,4.8306,4.8402,4.8421,4.844,4.8513,4.8513,4.8458,4.8458,4.8383,4.8306,4.8324,4.8324,4.8324,4.8324,4.8324,4.8324,4.8324,4.8324,4.8324,4.8324,4.7902,4.7645,4.7884,4.7884,4.7462,4.7223,4.6342,4.5241,4.4745,4.4287,4.3608,4.3479,4.3479,4.3479,4.3479,4.3479,4.3479,4.3479,4.3479,4.3497,4.3444,4.2887,4.181,4.0965,4.0466,4.0221,4.0087,4.0087,4.0087,4.0087,4.0087,4.0087,4.0087,4.0087,4.0087,4.0087,4.0087,4.0087,4.0087,4.0087,4.0087,4.0087,4.0087,4.0087,4.0087,4.0087,4.0087,4.0087,4.0087,4.0087,4.0087,4.0087,4.0087,4.0087,4.0087,4.0087,4.0087,4.0087,4.0087,4.0087,4.0087,4.0087,4.0087,4.0087,4.0087,4.0087,4.0087,4.0087,4.0087,4.0087,4.0087,4.0087,4.0087,4.0087,4.0087,4.0087,4.0087,4.0087,4.0087,4.0171,4.0171,4.0204,4.0368,4.0655,4.0728,4.074,4.1278,4.1996,4.2055,4.2159,4.2564,4.2828,4.2846,4.3124,4.8324,4.8324,4.8324,4.8324,4.8324,4.8324,4.8324,4.8324,4.8324,4.8324,4.8324,4.8324,4.8324,4.8324,4.8324,4.8324,4.8324,4.8306,4.8086,4.7847,4.77,4.7297,4.6728,4.6893,4.6911,4.6507,4.6122,4.5424,4.4837,4.4323,4.3883,4.3534,4.3479,4.3479,4.3479,4.3479,4.3479,4.3479,4.3479,4.3479,4.3497,4.3214,4.2564,4.1513,4.0586,4.0087,4.0087,4.0087,4.0087,4.0087,4.0087,4.0087,4.0087,4.0087,4.0087,4.0087,4.0087,4.0087,4.0087,4.0087,4.0087,4.0087,4.0087,4.0087,4.0087,4.0087,4.0087,4.0087,4.0087,4.0087,4.0087,4.0087,4.0087,4.0087,4.0087,4.0087,4.0087,4.0087,4.0087,4.0087,4.0087,4.0087,4.0087,4.0087,4.0087,4.0087,4.0087,4.0087,4.0087,4.0087,4.0087,4.0087,4.0087,4.0087,4.0087,4.0087,4.0087,4.0087,4.0087,4.0087,4.0121,4.0121,4.0121,4.0286,4.04,4.0402,4.0483,4.1059,4.1383,4.1462,4.1665,4.2068,4.2436,4.2691,4.3032,4.8324,4.8324,4.8324,4.8324,4.8324,4.8324,4.8324,4.8324,4.8324,4.8324,4.8324,4.8324,4.8324,4.8324,4.8324,4.8288,4.8122,4.8031,4.7664,4.7003,4.6929,4.6452,4.592,4.5792,4.5681,4.5498,4.5149,4.4727,4.4342,4.3901,4.3608,4.3479,4.3479,4.3479,4.3479,4.3479,4.3479,4.3479,4.3479,4.3387,4.33,4.2904,4.2185,4.1115,4.0431,4.0121,4.0087,4.0087,4.0087,4.0087,4.0087,4.0087,4.0087,4.0087,4.0087,4.0087,4.0087,4.0087,4.0087,4.0087,4.0087,4.0087,4.0087,4.0087,4.0087,4.0087,4.0087,4.0087,4.0087,4.0087,4.0087,4.0087,4.0087,4.0087,4.0087,4.0087,4.0087,4.0087,4.0087,4.0087,4.0087,4.0087,4.0087,4.0087,4.0087,4.0087,4.0087,4.0087,4.0087,4.0087,4.0087,4.0087,4.0087,4.0087,4.0087,4.0087,4.0087,4.0087,4.0087,4.0087,4.0087,4.0087,4.0087,4.0087,4.0171,4.0155,4.0256,4.0571,4.0814,4.0854,4.1192,4.1626,4.2062,4.2494,4.2882,4.8324,4.8324,4.8324,4.8324,4.8324,4.8324,4.8324,4.8324,4.8324,4.8324,4.8324,4.8324,4.8324,4.8324,4.8324,4.7957,4.7553,4.7333,4.6874,4.6214,4.6067,4.5663,4.5039,4.4892,4.4599,4.4213,4.425,4.4305,4.3883,4.3534,4.3479,4.3479,4.3479,4.3479,4.3479,4.3479,4.3479,4.3479,4.3479,4.3332,4.2955,4.2605,4.2015,4.0891,4.0336,4.0121,4.0087,4.0087,4.0087,4.0087,4.0087,4.0087,4.0087,4.0087,4.0087,4.0087,4.0087,4.0087,4.0087,4.0087,4.0087,4.0087,4.0087,4.0087,4.0087,4.0087,4.0087,4.0087,4.0087,4.0087,4.0087,4.0087,4.0087,4.0087,4.0087,4.0087,4.0087,4.0087,4.0087,4.0087,4.0087,4.0087,4.0087,4.0087,4.0087,4.0087,4.0087,4.0087,4.0087,4.0087,4.0087,4.0087,4.0087,4.0087,4.0087,4.0087,4.0087,4.0087,4.0087,4.0087,4.0087,4.0087,4.0087,4.0087,4.0087,4.0138,4.0189,4.0256,4.0305,4.0439,4.0856,4.1227,4.1609,4.2014,4.2552,4.8324,4.8324,4.8324,4.8324,4.8324,4.8324,4.8324,4.8324,4.8324,4.8324,4.8324,4.8324,4.8324,4.8324,4.8324,4.7865,4.7168,4.6617,4.6067,4.5424,4.5241,4.4856,4.4176,4.4103,4.3864,4.3681,4.3864,4.3938,4.3534,4.3497,4.3479,4.3479,4.3479,4.3479,4.3479,4.3479,4.3479,4.3479,4.3461,4.3224,4.263,4.2208,4.1267,4.0676,4.0286,4.0121,4.0087,4.0087,4.0087,4.0087,4.0087,4.0087,4.0087,4.0087,4.0087,4.0087,4.0087,4.0087,4.0087,4.0087,4.0087,4.0087,4.0087,4.0087,4.0087,4.0087,4.0087,4.0087,4.0087,4.0087,4.0087,4.0087,4.0087,4.0087,4.0087,4.0087,4.0087,4.0087,4.0087,4.0087,4.0087,4.0087,4.0087,4.0087,4.0087,4.0087,4.0087,4.0087,4.0087,4.0087,4.0087,4.0087,4.0087,4.0087,4.0087,4.0087,4.0087,4.0087,4.0087,4.0087,4.0087,4.0087,4.0087,4.0087,4.0087,4.0087,4.0138,4.0189,4.0155,4.0087,4.0449,4.0822,4.113,4.152,4.2085,4.8324,4.8324,4.8324,4.8324,4.8324,4.8324,4.8324,4.8324,4.8324,4.8324,4.8324,4.8324,4.8324,4.8269,4.8012,4.7517,4.6654,4.5883,4.5241,4.4599,4.4452,4.4085,4.3681,4.3479,4.3516,4.3534,4.3534,4.3479,4.3497,4.3479,4.3479,4.3479,4.3479,4.3479,4.3479,4.3479,4.3479,4.3479,4.3356,4.3031,4.2253,4.1328,4.0578,4.0172,4.0087,4.0087,4.0087,4.0087,4.0087,4.0087,4.0087,4.0087,4.0087,4.0087,4.0087,4.0087,4.0087,4.0087,4.0087,4.0087,4.0087,4.0087,4.0087,4.0087,4.0087,4.0087,4.0087,4.0087,4.0087,4.0087,4.0087,4.0087,4.0087,4.0087,4.0087,4.0087,4.0087,4.0087,4.0087,4.0087,4.0087,4.0087,4.0087,4.0087,4.0087,4.0087,4.0087,4.0087,4.0087,4.0087,4.0087,4.0087,4.0087,4.0087,4.0087,4.0087,4.0087,4.0087,4.0087,4.0087,4.0087,4.0087,4.0087,4.0087,4.0087,4.0087,4.0087,4.0087,4.0087,4.0155,4.0206,4.0455,4.0918,4.1161,4.1534,4.8324,4.8324,4.8324,4.8324,4.8324,4.8324,4.8324,4.8324,4.8324,4.8324,4.8324,4.8306,4.8306,4.8067,4.7425,4.6379,4.5406,4.4911,4.447,4.3864,4.3773,4.3699,4.3497,4.3479,4.3479,4.3479,4.3479,4.3479,4.3479,4.3479,4.3479,4.3479,4.3479,4.3479,4.3479,4.3479,4.3479,4.341,4.2996,4.2235,4.1332,4.058,4.0272,4.0155,4.0087,4.0087,4.0087,4.0087,4.0087,4.0087,4.0087,4.0087,4.0087,4.0087,4.0087,4.0087,4.0087,4.007,4.007,4.0087,4.0087,4.0087,4.0087,4.0087,4.0087,4.0087,4.0087,4.0087,4.0087,4.0087,4.0087,4.0087,4.0087,4.0087,4.0087,4.0087,4.0087,4.0087,4.0087,4.0087,4.0087,4.0087,4.0087,4.0087,4.0087,4.0087,4.0087,4.0087,4.0087,4.0087,4.0087,4.0087,4.0087,4.0087,4.0087,4.0087,4.0087,4.0087,4.0087,4.0087,4.0087,4.0087,4.0087,4.0087,4.0087,4.0087,4.0087,4.0087,4.0087,4.0172,4.0222,4.0476,4.0848,4.1003,4.1065,4.8324,4.8324,4.8324,4.8324,4.8324,4.8324,4.8324,4.8324,4.8324,4.8324,4.8324,4.8306,4.8087,4.7426,4.636,4.5406,4.469,4.4268,4.3864,4.3571,4.3479,4.3479,4.3479,4.3479,4.3479,4.3479,4.3479,4.3479,4.3479,4.3479,4.3479,4.3479,4.3479,4.3479,4.3479,4.3479,4.3314,4.2898,4.2196,4.1439,4.0906,4.0417,4.0087,4.0087,4.0087,4.0087,4.0087,4.0087,4.0087,4.0087,4.0087,4.0087,4.0087,4.0054,3.9969,3.9396,3.9413,3.9615,4.0003,4.007,4.0037,4.007,4.007,4.0087,4.0087,4.0087,4.0087,4.0087,4.0087,4.0087,4.0087,4.0087,4.0087,4.0087,4.0087,4.0087,4.0087,4.0087,4.0087,4.0087,4.0087,4.0087,4.0087,4.0087,4.0087,4.0087,4.0087,4.0087,4.0087,4.0087,4.0087,4.0087,4.0087,4.0087,4.0087,4.0087,4.0087,4.0087,4.0087,4.0087,4.0087,4.0087,4.0087,4.0087,4.0087,4.0087,4.0087,4.0087,4.0087,4.0189,4.0273,4.0442,4.0578,4.0476,4.072,4.8324,4.8324,4.8324,4.8324,4.8324,4.8324,4.8324,4.8324,4.8324,4.8324,4.8251,4.8049,4.7426,4.647,4.5332,4.469,4.436,4.3773,4.3552,4.3479,4.3479,4.3479,4.3479,4.3479,4.3479,4.3479,4.3479,4.3479,4.3479,4.3479,4.3479,4.3479,4.3479,4.3479,4.3479,4.3426,4.3228,4.2411,4.1704,4.1135,4.0676,4.0319,4.0121,4.0087,4.0087,4.0087,4.0087,4.0087,4.0087,4.0087,4.0087,4.0087,4.007,3.9817,3.948,3.9007,3.8861,3.8864,3.9242,3.9465,3.9767,3.9851,4.0054,4.0087,4.0087,4.0087,4.0087,4.0087,4.0087,4.0087,4.0087,4.0087,4.0087,4.0087,4.0087,4.0087,4.0087,4.0087,4.0087,4.0087,4.0087,4.0087,4.0087,4.0087,4.0087,4.0087,4.0087,4.0087,4.0087,4.0087,4.0087,4.0087,4.0087,4.0087,4.0087,4.0087,4.0087,4.0087,4.0087,4.0087,4.0087,4.0087,4.0087,4.0087,4.0087,4.0087,4.0087,4.0087,4.0087,4.0172,4.0189,4.0172,4.0172,4.0087,4.0468,4.8324,4.8324,4.8288,4.8306,4.8324,4.8324,4.8324,4.8324,4.8324,4.8269,4.8086,4.7443,4.625,4.5219,4.4762,4.4213,4.3608,4.3516,4.3497,4.3479,4.3479,4.3479,4.3479,4.3479,4.3479,4.3479,4.3479,4.3479,4.3479,4.3479,4.3479,4.3479,4.3479,4.3479,4.3408,4.3248,4.2811,4.2091,4.1542,4.0987,4.0438,4.0121,4.0121,4.0087,4.0087,4.0087,4.0087,4.0087,4.0087,4.0087,4.0087,3.9969,3.9834,3.943,3.9059,3.8525,3.8083,3.7962,3.8036,3.8625,3.8973,3.9194,3.9615,4.0087,4.0087,4.0087,4.0087,4.0087,4.0087,4.0087,4.0087,4.0087,4.0087,4.0087,4.0087,4.0087,4.0087,4.0087,4.0087,4.0087,4.0087,4.0087,4.0087,4.0087,4.0087,4.0087,4.0087,4.0087,4.0087,4.0087,4.0087,4.0087,4.0087,4.0087,4.0087,4.0087,4.0087,4.0087,4.0087,4.0087,4.0087,4.0087,4.0087,4.0087,4.0087,4.0087,4.0087,4.0087,4.0087,4.0087,4.0087,4.0087,4.0087,4.0087,4.0617,4.7826,4.8251,4.7792,4.7847,4.8324,4.8324,4.8324,4.8324,4.8306,4.7976,4.7481,4.6214,4.5277,4.4704,4.4136,4.3828,4.3497,4.3479,4.3479,4.3479,4.3479,4.3479,4.3479,4.3479,4.3479,4.3479,4.3479,4.3479,4.3479,4.3479,4.3479,4.3479,4.3479,4.3479,4.3373,4.2923,4.2261,4.1785,4.1173,4.0476,4.029,4.0087,4.0087,4.0087,4.0087,4.0087,4.0087,4.0087,4.0087,4.0087,4.0087,3.9851,3.948,3.9042,3.8443,3.7742,3.7247,3.6957,3.6778,3.7555,3.835,3.9025,3.9598,4.0054,4.002,4.007,4.007,4.0087,4.0087,4.0087,4.0087,4.0087,4.0087,4.0087,4.0087,4.0087,4.0087,4.0087,4.0087,4.0087,4.0087,4.0087,4.0087,4.0087,4.0087,4.0087,4.0087,4.0087,4.0087,4.0087,4.0087,4.0087,4.0087,4.0087,4.0087,4.0087,4.0087,4.0087,4.0087,4.0087,4.0087,4.0087,4.0087,4.0087,4.0087,4.0087,4.0087,4.0087,4.0087,4.0087,4.0087,4.0087,4.0087,4.0087,4.0634,4.7056,4.7517,4.6985,4.7205,4.7865,4.77,4.7572,4.759,4.7535,4.7131,4.6324,4.5168,4.4542,4.4228,4.3826,4.3534,4.3497,4.3479,4.3479,4.3479,4.3479,4.3479,4.3479,4.3479,4.3479,4.3479,4.3479,4.3479,4.3479,4.3479,4.3479,4.3479,4.3479,4.3479,4.3266,4.2591,4.1907,4.1349,4.0856,4.0201,4.0153,4.0087,4.0087,4.0087,4.0087,4.0087,4.0087,4.0087,4.0087,4.0087,4.002,3.9649,3.9143,3.8537,3.7847,3.7049,3.6325,3.5999,3.6034,3.6595,3.7752,3.841,3.9189,3.958,3.9784,3.9952,4.007,4.0087,4.0087,4.0087,4.0087,4.0087,4.0087,4.0087,4.0087,4.0087,4.0087,4.0087,4.0087,4.0087,4.0087,4.0087,4.0087,4.0087,4.0087,4.0087,4.0087,4.0087,4.0087,4.0087,4.0087,4.0087,4.0087,4.0087,4.0087,4.0087,4.0087,4.0087,4.0087,4.0087,4.0087,4.0087,4.0087,4.0087,4.0087,4.0087,4.0087,4.0087,4.0087,4.0087,4.0087,4.0087,4.0087,4.0138,4.0389,4.5975,4.5938,4.5957,4.6379,4.6966,4.6305,4.6049,4.6195,4.6085,4.5663,4.5059,4.4655,4.4232,4.3752,4.3534,4.3497,4.3479,4.3479,4.3479,4.3479,4.3479,4.3479,4.3479,4.3479,4.3479,4.3479,4.3479,4.3479,4.3479,4.3479,4.3479,4.3444,4.341,4.3375,4.3391,4.2921,4.2062,4.1108,4.0876,4.0474,4.0201,4.0087,4.0087,4.0087,4.0087,4.0087,4.0087,4.0087,4.0087,4.0087,3.9952,3.9514,3.8824,3.8107,3.7382,3.6569,3.5924,3.5614,3.5569,3.626,3.6983,3.7801,3.8597,3.9099,3.921,3.9581,4.007,4.0087,4.0087,4.0087,4.0087,4.0087,4.0087,4.0087,4.0087,4.0087,4.0087,4.0087,4.0087,4.0087,4.0087,4.0087,4.0087,4.0087,4.0087,4.0087,4.0087,4.0087,4.0087,4.0087,4.0087,4.0087,4.0087,4.0087,4.0087,4.0087,4.0087,4.0087,4.0087,4.0087,4.0087,4.0087,4.0087,4.0087,4.0087,4.0087,4.0087,4.0087,4.0087,4.0087,4.0087,4.0087,4.0087,4.0138,4.0339,4.5441,4.5847,4.5333,4.5259,4.5553,4.5828,4.5883,4.5792,4.5351,4.4948,4.4601,4.4213,4.3809,4.3534,4.3479,4.3479,4.3479,4.3479,4.3479,4.3479,4.3479,4.3479,4.3479,4.3479,4.3479,4.3479,4.3479,4.3444,4.3479,4.3356,4.3444,4.3444,4.3087,4.2976,4.2808,4.2382,4.1621,4.0978,4.0548,4.0231,4.0104,4.0087,4.0087,4.0087,4.0087,4.0087,4.0087,4.0087,4.0087,4.002,3.9782,3.9035,3.8278,3.7504,3.672,3.6125,3.5504,3.5504,3.5504,3.5864,3.6213,3.7093,3.8028,3.8714,3.8924,3.9649,3.9986,4.007,4.0054,4.007,4.0087,4.0087,4.0087,4.0087,4.0087,4.0087,4.0087,4.0087,4.0087,4.0087,4.0087,4.0087,4.0087,4.0087,4.0087,4.0087,4.0087,4.0087,4.0087,4.0087,4.0087,4.0087,4.0087,4.0087,4.0087,4.0087,4.0087,4.0087,4.0087,4.0087,4.0087,4.0087,4.0087,4.0087,4.0087,4.0087,4.0087,4.0087,4.0087,4.0087,4.0087,4.0087,4.0087,4.0087,4.0138,4.4595,4.4984,4.4309,4.3999,4.4127,4.4766,4.5076,4.4966,4.4507,4.4305,4.4176,4.3699,4.3497,4.3497,4.3479,4.3479,4.3479,4.3479,4.3479,4.3479,4.3479,4.3479,4.3479,4.3444,4.3479,4.3444,4.3286,4.3196,4.3124,4.2995,4.2865,4.2734,4.258,4.2244,4.2021,4.1578,4.1196,4.0655,4.0285,4.012,4.0087,4.0087,4.0087,4.0087,4.0087,4.0087,4.0087,4.0087,4.0087,3.9901,3.9337,3.8559,3.7809,3.7074,3.6306,3.574,3.5489,3.5489,3.5504,3.5504,3.5864,3.6197,3.7483,3.8026,3.8331,3.8963,3.9462,3.9699,3.9868,4.0037,4.0054,4.0054,4.0087,4.0087,4.0087,4.0087,4.0087,4.0087,4.0087,4.0087,4.0087,4.0087,4.0087,4.0087,4.0087,4.0087,4.0087,4.0087,4.0087,4.0087,4.0087,4.0087,4.0087,4.0087,4.0087,4.0087,4.0087,4.0087,4.0087,4.0087,4.0087,4.0087,4.0087,4.0087,4.0087,4.0087,4.0087,4.0087,4.0087,4.0087,4.0087,4.0087,4.0087,4.0087,4.0087,4.3479,4.3375,4.2939,4.2786,4.2806,4.3378,4.3573,4.3552,4.3481,4.3499,4.3516,4.3534,4.3479,4.3479,4.3479,4.3479,4.3444,4.3444,4.3356,4.3321,4.3196,4.3267,4.3232,4.3232,4.3196,4.316,4.2995,4.2714,4.2637,4.2324,4.2062,4.1835,4.1835,4.149,4.115,4.0891,4.0625,4.0336,4.0171,4.0087,4.0087,4.0087,4.0087,4.0087,4.0087,4.0087,4.0087,4.0087,4.0087,3.985,3.9351,3.8557,3.7822,3.7049,3.6287,3.5737,3.5489,3.5489,3.5489,3.5489,3.5489,3.5782,3.6275,3.6502,3.715,3.8107,3.871,3.9135,3.9358,3.9716,3.9986,4.0037,4.0087,4.0087,4.0087,4.0087,4.0087,4.0087,4.0087,4.0087,4.0087,4.0087,4.0087,4.0087,4.0087,4.0087,4.0087,4.0087,4.0087,4.0087,4.0087,4.0087,4.0087,4.0087,4.0087,4.0087,4.0087,4.0087,4.0087,4.0087,4.0087,4.0087,4.0087,4.0087,4.0087,4.0087,4.0087,4.0087,4.0087,4.0087,4.0087,4.0087,4.0087,4.0087,4.0087,4.2705,4.2329,4.2995,4.279,4.2203,4.2693,4.3124,4.341,4.3142,4.3087,4.3479,4.3479,4.3479,4.3479,4.3479,4.3479,4.3321,4.3124,4.2976,4.2846,4.2619,4.2386,4.2346,4.2444,4.2598,4.2637,4.2462,4.2203,4.244,4.2038,4.1446,4.1206,4.1178,4.0797,4.0546,4.0336,4.0254,4.0171,4.0138,4.0087,4.0087,4.0087,4.0087,4.0087,4.0087,4.0087,4.0087,4.0087,4.0087,3.9952,3.9315,3.8576,3.782,3.7054,3.6254,3.5634,3.5489,3.5489,3.5489,3.5489,3.5489,3.5489,3.5782,3.6107,3.6693,3.7385,3.8052,3.8362,3.878,3.9163,3.9443,3.9614,3.9767,3.9885,3.9986,4.0087,4.0087,4.0087,4.0087,4.0087,4.0087,4.0087,4.0087,4.0087,4.0087,4.0087,4.007,4.002,4.007,4.007,4.0087,4.0087,4.0087,4.0087,4.0087,4.0087,4.0087,4.0087,4.0087,4.0087,4.0087,4.0087,4.0087,4.0087,4.0087,4.0087,4.0087,4.0087,4.0087,4.0087,4.0087,4.0087,4.0087,4.0087,4.0087,4.2623,4.2505,4.2678,4.2426,4.1895,4.1937,4.2523,4.3286,4.3142,4.3214,4.3479,4.3479,4.3479,4.3444,4.3286,4.3142,4.3105,4.258,4.2324,4.2244,4.1955,4.1937,4.181,4.1768,4.208,4.2038,4.1853,4.1578,4.181,4.1464,4.0844,4.0607,4.0559,4.04,4.0204,4.0171,4.0121,4.0121,4.0087,4.0087,4.0087,4.0087,4.0087,4.0087,4.0087,4.0087,4.0087,4.0087,4.0087,4.002,3.9315,3.8547,3.7741,3.6817,3.6129,3.5504,3.5489,3.5489,3.5489,3.5489,3.5489,3.5489,3.5504,3.5724,3.6189,3.6785,3.7112,3.743,3.8036,3.8553,3.8817,3.9104,3.9344,3.9581,3.9851,4.007,4.0087,4.0087,4.0087,4.0087,4.0087,4.0087,4.0087,4.007,4.007,4.002,3.9782,3.9489,3.9662,3.9885,4.002,4.0087,4.0087,4.0087,4.0087,4.0087,4.0087,4.0087,4.0087,4.0087,4.0087,4.0087,4.0087,4.0087,4.0087,4.0087,4.0087,4.0087,4.0087,4.0087,4.0087,4.0087,4.0087,4.0087,4.0087,4.294,4.3196,4.2167,4.1793,4.1707,4.1268,4.18,4.3232,4.3196,4.3375,4.3375,4.3356,4.3232,4.3032,4.2808,4.2655,4.2422,4.2021,4.1707,4.1707,4.1446,4.142,4.142,4.1639,4.1552,4.1446,4.1223,4.092,4.075,4.0528,4.0385,4.0087,4.0171,4.0121,4.0121,4.0087,4.0087,4.0087,4.0087,4.0087,4.0087,4.0087,4.0087,4.0087,4.0087,4.0087,4.0087,4.0087,4.0087,3.985,3.9441,3.8745,3.7799,3.6625,3.5955,3.5629,3.5614,3.5489,3.5489,3.5489,3.5489,3.5489,3.5504,3.5534,3.5906,3.6194,3.643,3.6675,3.7216,3.7621,3.7905,3.8433,3.8764,3.9032,3.9291,3.951,3.9662,3.9645,3.9698,3.9679,3.9668,3.9671,3.961,3.9558,3.9385,3.9558,3.9332,3.8908,3.9016,3.942,3.9662,3.985,4.007,4.007,4.0087,4.0087,4.0087,4.0087,4.0087,4.0087,4.0087,4.0087,4.0087,4.0087,4.0087,4.0087,4.0087,4.0087,4.0087,4.0087,4.0087,4.0087,4.0087,4.0087,4.0087,4.2479,4.2144,4.1446,4.1358,4.1725,4.1178,4.1115,4.1542,4.2026,4.2462,4.277,4.2444,4.2266,4.2324,4.2144,4.2021,4.1895,4.1446,4.1178,4.0949,4.0797,4.0767,4.0594,4.0737,4.0814,4.0844,4.0625,4.0368,4.0336,4.0154,4.0087,4.0087,4.0087,4.0087,4.0087,4.0087,4.0087,4.0087,4.0087,4.0087,4.0087,4.0087,4.0087,4.0087,4.0087,4.0087,4.0087,4.0087,4.0087,4.002,3.9969,3.9391,3.8611,3.7154,3.6429,3.6265,3.5799,3.5534,3.5489,3.5489,3.5489,3.5489,3.5489,3.5489,3.5554,3.5668,3.5831,3.6039,3.6305,3.6677,3.7077,3.7648,3.8165,3.8384,3.8649,3.892,3.9139,3.9199,3.9185,3.9218,3.9204,3.9139,3.9073,3.8978,3.8816,3.8596,3.8318,3.8133,3.8286,3.8564,3.8908,3.9209,3.9901,4.002,4.007,4.0087,4.0087,4.0087,4.0087,4.0087,4.0087,4.0087,4.0087,4.0087,4.0087,4.0087,4.0087,4.0087,4.0087,4.0087,4.0087,4.0087,4.0087,4.0087,4.0087,4.265,4.2465,4.1664,4.1313,4.1313,4.1041,4.1041,4.1296,4.1402,4.1578,4.1895,4.181,4.181,4.1725,4.1534,4.1402,4.1313,4.078,4.0625,4.04,4.0319,4.0204,4.0087,4.0121,4.0303,4.0417,4.0286,4.0121,4.0087,4.0087,4.0087,4.0087,4.0087,4.0087,4.0087,4.0087,4.0087,4.0087,4.0087,4.0087,4.0087,4.0087,4.0087,4.0087,4.0087,4.0087,4.0087,4.0087,4.0087,3.9952,3.9699,3.9391,3.8569,3.7345,3.6676,3.6368,3.5969,3.5489,3.5489,3.5489,3.5489,3.5489,3.5489,3.5489,3.5489,3.5604,3.5604,3.5767,3.5816,3.6113,3.6287,3.6798,3.7212,3.7452,3.7889,3.8253,3.8428,3.8401,3.8454,3.8439,3.8438,3.8435,3.8364,3.8374,3.8206,3.8076,3.7748,3.7279,3.7424,3.7774,3.806,3.8547,3.9229,3.9885,4.007,4.0087,4.0087,4.0087,4.0087,4.0087,4.0087,4.0087,4.0087,4.0087,4.0087,4.0087,4.0087,4.0087,4.0087,4.0087,4.0087,4.0087,4.0087,4.0087,4.0087,4.2795,4.3087,4.2085,4.1385,4.0903,4.0827,4.1041,4.1375,4.0995,4.078,4.092,4.1331,4.1552,4.1375,4.1105,4.092,4.0703,4.04,4.0204,4.0154,4.0121,4.0087,4.0087,4.0121,4.0171,4.0171,4.0121,4.0087,4.0087,4.0087,4.0087,4.0087,4.0087,4.0087,4.007,4.0087,4.0087,4.0087,4.0087,4.0087,4.0087,4.0087,4.0087,4.0087,4.0087,4.0087,4.0087,4.0087,4.0087,3.9952,3.9632,3.9411,3.8911,3.7978,3.7313,3.6796,3.6255,3.5816,3.5569,3.5489,3.5489,3.5489,3.5489,3.5489,3.5489,3.5489,3.5489,3.5489,3.5554,3.5619,3.5797,3.5955,3.6344,3.6735,3.7214,3.761,3.7641,3.7621,3.7632,3.7673,3.7644,3.767,3.7647,3.7594,3.7531,3.7397,3.716,3.6737,3.6554,3.6964,3.7306,3.7866,3.8504,3.9163,3.9885,4.0037,4.002,4.0087,4.0087,4.0087,4.0087,4.0087,4.0087,4.0087,4.0087,4.0087,4.0087,4.0087,4.0087,4.0087,4.0087,4.0087,4.0087,4.0087,4.0087,4.2032,4.2062,4.134,4.0978,4.0827,4.0449,4.0336,4.0385,4.0336,4.0254,4.0336,4.0336,4.0417,4.04,4.0336,4.0286,4.0368,4.0121,4.0121,4.0121,4.0087,4.0087,4.0087,4.0087,4.0087,4.0087,4.0087,4.0087,4.0087,4.0087,4.0121,4.0171,4.0121,4.0121,4.0121,4.0121,4.0171,4.0121,4.0087,4.0087,4.0087,4.0087,4.0087,4.0087,4.0087,4.0087,4.0087,4.0087,4.0087,4.0037,3.9902,3.9783,3.9411,3.8764,3.8105,3.7472,3.6829,3.6275,3.6022,3.5782,3.5718,3.5668,3.5604,3.5489,3.5489,3.5489,3.5489,3.5489,3.5489,3.5489,3.5619,3.5619,3.5868,3.6326,3.6801,3.6847,3.6862,3.6831,3.6847,3.6861,3.6875,3.686,3.6832,3.6692,3.6477,3.6415,3.6305,3.5943,3.5943,3.6275,3.6615,3.7243,3.7899,3.89,3.9783,3.9902,3.9952,4.002,4.0087,4.0087,4.0087,4.0087,4.0087,4.0087,4.0087,4.0087,4.0087,4.0087,4.0087,4.0087,4.0087,4.0087,4.0087,4.0087,4.0087]},{"header":{"parameterUnit":"m.s-1","parameterCategory":1,"la1":31.0,"la2":29.5877,"lo1":-88.7671,"lo2":-86.6584,"dy":0.0162,"dx":0.0185,"nx":115,"ny":88,"refTime":"2023-06-04T18:00:00:Z","depth":0,"parameterNumber":3,"parameterNumberName":"V-component_of_WINDS"},"data":[0.0,0.0,0.0,0.0,0.0,0.0,0.0,0.0,0.0,0.0,0.0,0.0,0.0,0.0,0.0,0.0,0.0,0.0,0.0,0.0,0.0,0.0,0.0,0.0,0.0,0.0,0.0,0.0,0.0,0.0,0.0,0.0,0.0,0.0,0.0,0.0,0.0,0.0,0.0,0.0,0.0,0.0,0.0,0.0,0.0,0.0,0.0,0.0,0.0,0.0,0.0,0.0,0.0,0.0,0.0,0.0,0.0,0.0,0.0,0.0,0.0,0.0,0.0,0.0,0.0,0.0,0.0,0.0,0.0,0.0,0.0,0.0,0.0,0.0,0.0,0.0,0.0,0.0,0.0,0.0,0.0,0.0,0.0,0.0,0.0,0.0,0.0,0.0,0.0,0.0,0.0,0.0,0.0,0.0,0.0,0.0,0.0,0.0,0.0,0.0,0.0,0.0,0.0,0.0,0.0,0.0,0.0,0.0,0.0,0.0,0.0,0.0,0.0,0.0,0.0,0.0,0.0,0.0,0.0,0.0,0.0,0.0,0.0,0.0,0.0,0.0,0.0,0.0,0.0,0.0,0.0,0.0,0.0,0.0,0.0,0.0,0.0,0.0,0.0,0.0,0.0,0.0,0.0,0.0,0.0,0.0,0.0,0.0,0.0,0.0,0.0,0.0,0.0,0.0,0.0,0.0,0.0,0.0,0.0,0.0,0.0,0.0,0.0,0.0,0.0,0.0,0.0,0.0,0.0,0.0,0.0,0.0,0.0,0.0,0.0,0.0,0.0,0.0,0.0,0.0,0.0,0.0,0.0,0.0,0.0,0.0,0.0,0.0,0.0,0.0,0.0,0.0,0.0,0.0,0.0,0.0,0.0,0.0,0.0,0.0,0.0,0.0,0.0,0.0,0.0,0.0,0.0,0.0,0.0,0.0,0.0,0.0,0.0,0.0,0.0,0.0,0.0,0.0,0.0,0.0,0.0,0.0,0.0,0.0,0.0,0.0,0.0,0.0,0.0,0.0,0.0,0.0,0.0,0.0,0.0,0.0,0.0,0.0,0.0,0.0,0.0,0.0,0.0,0.0,0.0,0.0,0.0,0.0,0.0,0.0,0.0,0.0,0.0,0.0,0.0,0.0,0.0,0.0,0.0,0.0,0.0,0.0,0.0,0.0,0.0,0.0,0.0,0.0,0.0,0.0,0.0,0.0,0.0,0.0,0.0,0.0,0.0,0.0,0.0,0.0,0.0,0.0,0.0,0.0,0.0,0.0,0.0,0.0,0.0,0.0,0.0,0.0,0.0,0.0,0.0,0.0,0.0,0.0,0.0,0.0,0.0,0.0,0.0,0.0,0.0,0.0,0.0,0.0,0.0,0.0,0.0,0.0,0.0,0.0,0.0,0.0,0.0,0.0,0.0,0.0,0.0,0.0,0.0,0.0,0.0,0.0,0.0,0.0,0.0,0.0,0.0,0.0,0.0,0.0,0.0,0.0,0.0,0.0,0.0,0.0,0.0,0.0,0.0,0.0,0.0,0.0,0.0,0.0,0.0,0.0,0.0,0.0,0.0,0.0,0.0,0.0,0.0,0.0,0.0,0.0,0.0,0.0,0.0,0.0,0.0,0.0,0.0,0.0,0.0,0.0,0.0,0.0,0.0,0.0,0.0,0.0,0.0,0.0,0.0,0.0,0.0,0.0,0.0,0.0,0.0,0.0,0.0,0.0,0.0,0.0,0.0,0.0,0.0,0.0,0.0,0.0,0.0,0.0,0.0,0.0,0.0,0.0,0.0,0.0,0.0,0.0,0.0,0.0,0.0,0.0,0.0,0.0,0.0,0.0,0.0,0.0,0.0,0.0,0.0,0.0,0.0,0.0,0.0,0.0,0.0,0.0,0.0,0.0,0.0,0.0,0.0,0.0,0.0,0.0,0.0,0.0,0.0,0.0,0.0,0.0,0.0,0.0,0.0,0.0,0.0,0.0,0.0,0.0,0.0,0.0,0.0,0.0,0.0,0.0,0.0,0.0,0.0,0.0,0.0,0.0,0.0,0.0,0.0,0.0,0.0,0.0,0.0,0.0,0.0,0.0,0.0,0.0,0.0,0.0,0.0,0.0,0.0,0.0,0.0,0.0,0.0,0.0,0.0,0.0,0.0,0.0,0.0,0.0,0.0,0.0,0.0,0.0,0.0,0.0,0.0,0.0,0.0,0.0,0.0,0.0,0.0,0.0,0.0,0.0,0.0,0.0,0.0,0.0,0.0,0.0,0.0,0.0,0.0,0.0,0.0,0.0,0.0,0.0,0.0,0.0,0.0,0.0,0.0,0.0,0.0,0.0,0.0,0.0,0.0,0.0,0.0,0.0,0.0,0.0,0.0,0.0,0.0,0.0,0.0,0.0,0.0,0.0,0.0,0.0,0.0,0.0,0.0,0.0,0.0,0.0,0.0,0.0,0.0,0.0,0.0,0.0,0.0,0.0,0.0,0.0,0.0,0.0,0.0,0.0,0.0,0.0,0.0,0.0,0.0,0.0,0.0,0.0,0.0,0.0,0.0,0.0,0.0,0.0,0.0,0.0,0.0,0.0,0.0,0.0,0.0,0.0,0.0,0.0,0.0,0.0,0.0,0.0,0.0,0.0,0.0,0.0,0.0,0.0,0.0,0.0,0.0,0.0,0.0,0.0,0.0,0.0,0.0,0.0,0.0,0.0,0.0,0.0,0.0,0.0,0.0,0.0,0.0,0.0,0.0,0.0,0.0,0.0,0.0,0.0,0.0,0.0,0.0,0.0,0.0,0.0,0.0,0.0,0.0,0.0,0.0,0.0,0.0,0.0,0.0,0.0,0.0,0.0,0.0,0.0,0.0,0.0,0.0,0.0,0.0,0.0,0.0,0.0,0.0,0.0,0.0,0.0,0.0,0.0,0.0,0.0,0.0,0.0,0.0,0.0,0.0,0.0,0.0,0.0,0.0,0.0,0.0,0.0,0.0,0.0,0.0,0.0,0.0,0.0,0.0,0.0,0.0,0.0,0.0,0.0,0.0,0.0,0.0,0.0,0.0,0.0,0.0,0.0,0.0,0.0,0.0,0.0,0.0,0.0,0.0,0.0,0.0,0.0,0.0,0.0,0.0,0.0,0.0,0.0,0.0,0.0,0.0,0.0,0.0,0.0,0.0,0.0,0.0,0.0,0.0,0.0,0.0,0.0,0.0,0.0,0.0,0.0,0.0,0.0,0.0,0.0,0.0,0.0,0.0,0.0,0.0,0.0,0.0,0.0,0.0,0.0,0.0,0.0,0.0,0.0,0.0,0.0,0.0,0.0,0.0,0.0,0.0,0.0,0.0,0.0,0.0,0.0,0.0,0.0,0.0,0.0,0.0,0.0,0.0,0.0,0.0,0.0,0.0,0.0,0.0,0.0,0.0,0.0,0.0,0.0,0.0,0.0,0.0,0.0,0.0,0.0,0.0,0.0,0.0,0.0,0.0,0.0,0.0,0.0,0.0,0.0,0.0,0.0,0.0,0.0,0.0,0.0,0.0,0.0,0.0,0.0,0.0,0.0,0.0,0.0,0.0,0.0,0.0,0.0,0.0,0.0,0.0,0.0,0.0,0.0,0.0,0.0,0.0,0.0,0.0,0.0,0.0,0.0,0.0,0.0,0.0,0.0,0.0,0.0,0.0,0.0,0.0,0.0,0.0,0.0,0.0,0.0,0.0,0.0,0.0,0.0,0.0,0.0,0.0,0.0,0.0,0.0,0.0,0.0,0.0,0.0,0.0,0.0,0.0,0.0,0.0,0.0,0.0,0.0,0.0,0.0,0.0,0.0,0.0,0.0,0.0,0.0,0.0,0.0,0.0,0.0,0.0,0.0,0.0,0.0,0.0,0.0,0.0,0.0,0.0,0.0,0.0,0.0,0.0,0.0,0.0,0.0,0.0,0.0,0.0,0.0,0.0,0.0,0.0,0.0,0.0,0.0,0.0,0.0,0.0,0.0,0.0,0.0,0.0,0.0,0.0,0.0,0.0,0.0,0.0,0.0,0.0,0.0,0.0,0.0,0.0,0.0,0.0,0.0,0.0,0.0,0.0,0.0,0.0,0.0,0.0,0.0,0.0,0.0,0.0,0.0,0.0,0.0,0.0,0.0,0.0,0.0,0.0,0.0,0.0,0.0,0.0,0.0,0.0,0.0,0.0,0.0,0.0,0.0,0.0,0.0,0.0,0.0,0.0,0.0,0.0,0.0,0.0,0.0,0.0,0.0,0.0,0.0,0.0,0.0,0.0,0.0,-0.2818,0.0,0.0,0.0,0.0,0.0,0.0,0.0,0.0,0.0,0.0,0.0,0.0,0.0,0.0,0.0,0.0,0.0,0.0,0.0,0.0,0.0,0.0,0.0,0.0,0.0,0.0,0.0,0.0,0.0,0.0,0.0,0.0,0.0,0.0,0.0,0.0,0.0,0.0,0.0,0.0,0.0,0.0,0.0,0.0,0.0,0.0,0.0,0.0,0.0,0.0,0.0,0.0,0.0,0.0,0.0,0.0,0.0,0.0,0.0,0.0,0.0,0.0,0.0,0.0,0.0,0.0,0.0,0.0,0.0,0.0,0.0,0.0,0.0,0.0,0.0,0.0,0.0,0.0,0.0,0.0,0.0,0.0,0.0,0.0,0.0,0.0,0.0,0.0,0.0,0.0,0.0,0.0,0.0,0.0,0.0,0.0,0.0,0.0,0.0,0.0,0.0,0.0,0.0,0.0,0.0,0.0,0.0,0.0,0.0,0.0,-0.3409,-0.2846,-0.3673,-0.3687,-0.2737,0.0,0.0,0.0,0.0,0.0,0.0,0.0,0.0,0.0,0.0,0.0,0.0,0.0,0.0,0.0,0.0,0.0,0.0,0.0,0.0,0.0,0.0,0.0,0.0,0.0,0.0,0.0,0.0,0.0,0.0,0.0,0.0,0.0,0.0,0.0,0.0,0.0,0.0,0.0,0.0,0.0,0.0,0.0,0.0,0.0,0.0,0.0,0.0,0.0,0.0,0.0,0.0,0.0,0.0,0.0,0.0,0.0,0.0,0.0,0.0,0.0,0.0,0.0,0.0,0.0,0.0,0.0,0.0,0.0,0.0,0.0,0.0,0.0,0.0,0.0,0.0,0.0,0.0,0.0,0.0,0.0,0.0,0.0,0.0,0.0,0.0,0.0,0.0,0.0,0.0,0.0,0.0,0.0,0.0,0.0,0.0,0.0,0.0,0.0,0.0,0.0,0.0,0.0,0.0,0.0,0.0,0.0,0.0,0.0,0.0,0.0,0.0,-0.3547,-0.3522,-0.2716,0.0,0.0,0.0,0.0,0.0,0.0,0.0,0.0,0.0,0.0,0.0,0.0,0.0,0.0,0.0,0.0,0.0,0.0,0.0,0.0,0.0,0.0,0.0,0.0,0.0,0.0,0.0,0.0,0.0,0.0,0.0,0.0,0.0,0.0,0.0,0.0,0.0,0.0,0.0,0.0,0.0,0.0,0.0,0.0,0.0,0.0,0.0,0.0,0.0,0.0,0.0,0.0,0.0,0.0,0.0,0.0,0.0,0.0,0.0,0.0,0.0,0.0,0.0,0.0,0.0,0.0,0.0,0.0,0.0,0.0,0.0,0.0,0.0,0.0,0.0,0.0,0.0,0.0,0.0,0.0,0.0,0.0,0.0,0.0,0.0,0.0,0.0,0.0,0.0,0.0,0.0,0.0,0.0,0.0,0.0,0.0,0.0,0.0,0.0,0.0,0.0,0.0,0.0,0.0,0.0,0.0,0.0,0.0,0.0,0.0,-0.3433,-0.3074,-0.2903,0.0,-0.2715,0.0,0.0,0.0,0.0,0.0,0.0,0.0,0.0,0.0,0.0,0.0,0.0,0.0,0.0,0.0,0.0,0.0,0.0,0.0,0.0,0.0,0.0,0.0,0.0,0.0,0.0,0.0,0.0,0.0,0.0,0.0,0.0,0.0,0.0,0.0,0.0,0.0,0.0,0.0,0.0,0.0,0.0,0.0,0.0,0.0,0.0,0.0,0.0,0.0,0.0,0.0,0.0,0.0,0.0,0.0,0.0,0.0,0.0,0.0,0.0,0.0,0.0,0.0,0.0,0.0,0.0,0.0,0.0,0.0,0.0,0.0,0.0,0.0,0.0,0.0,0.0,0.0,0.0,0.0,0.0,0.0,0.0,0.0,0.0,0.0,0.0,0.0,0.0,0.0,0.0,0.0,0.0,0.0,0.0,0.0,0.0,0.0,0.0,0.0,0.0,0.0,0.0,0.0,0.0,0.0,0.0,0.0,0.0,0.0,0.0,-0.2454,-0.2307,-0.2018,-0.1869,0.0,0.0,0.0,0.0,0.0,0.0,0.0,0.0,0.0,0.0,0.0,0.0,0.0,0.0,0.0,0.0,0.0,0.0,0.0,0.0,0.0,0.0,0.0,0.0,0.0,0.0,0.0,0.0,0.0,0.0,0.0,0.0,0.0,0.0,0.0,0.0,0.0,0.0,0.0,0.0,0.0,0.0,0.0,0.0,0.0,0.0,0.0,0.0,0.0,0.0,0.0,0.0,0.0,0.0,0.0,0.0,0.0,0.0,0.0,0.0,0.0,0.0,0.0,0.0,0.0,0.0,0.0,0.0,0.0,0.0,0.0,0.0,0.0,0.0,0.0,0.0,0.0,0.0,0.0,0.0,0.0,0.0,0.0,0.0,0.0,0.0,0.0,0.0,0.0,0.0,0.0,0.0,0.0,0.0,0.0,0.0,0.0,0.0,0.0,0.0,0.0,0.0,0.0,0.0,0.0,0.0,0.0,0.0,0.0,0.0,-0.129,-0.1323,-0.127,-0.1067,-0.094,-0.0973,0.0,0.0,0.0,0.0,0.0,0.0,0.0,0.0,0.0,0.0,0.0,0.0,0.0,0.0,0.0,0.0,0.0,0.0,0.0,0.0,0.0,0.0,0.0,0.0,0.0,0.0,0.0,0.0,0.0,0.0,0.0,0.0,0.0,0.0,0.0,0.0,0.0,0.0,0.0,0.0,0.0,0.0,0.0,0.0,0.0,0.0,0.0,0.0,0.0,0.0,0.0,0.0,0.0,0.0,0.0,0.0,0.0,0.0,0.0,0.0,0.0,0.0,0.0,0.0,0.0,0.0,0.0,0.0,0.0,0.0,0.0,0.0,0.0,0.0,0.0,0.0,0.0,0.0,0.0,0.0,0.0,0.0,0.0,0.0,0.0,0.0,0.0,0.0,0.0,0.0,0.0,0.0,0.0,0.0,0.0,0.0,0.0,0.0,0.0,0.0,0.0,0.0,0.0,0.0,0.0,0.0,0.0,0.0,0.0,0.0,0.0,0.0,0.0,0.0,0.0,0.0,0.0,0.0,0.0,0.0,0.0,0.0,0.0,0.0,0.0,0.0,0.0,0.0,0.0,0.0,0.0,0.0,0.0,0.0,0.0,0.0,0.0,0.0,0.0,0.0,0.0,0.0,0.0,0.0,0.0,0.0,0.0,0.0,0.0,0.0,0.0,0.0,0.0,0.0,0.0,0.0,0.0,0.0,0.0,0.0,0.0,0.0,0.0,0.0,0.0,0.0,0.0,0.0,0.0,0.0,0.0,0.0,0.0,0.0,0.0,0.0,0.0,0.0,0.0,0.0,0.0,0.0,0.0,0.0,0.0,0.0,0.0,0.0,0.0,0.0,0.0,0.0,0.0,0.0,0.0,0.0,0.0,0.0,0.0,0.0,0.0,0.0,0.0,0.0,0.0,0.0,0.0,0.0,0.0,0.0,0.0,0.0,0.0,0.0,0.0,0.0,0.0,0.0,0.0,0.0,0.0,0.0,0.0,0.0,0.0,0.0,0.0,0.0,0.0,0.0,0.0,0.0,0.0,0.0,0.0,0.0,0.0,0.0,0.0,0.0,0.0,0.0,0.0,0.0,0.0,0.0,0.0,0.0,0.0,0.0,0.0,0.0,0.0,0.0,0.0,0.0,0.0,0.0,0.0,0.0,0.0,0.0,0.0,0.0,0.0,0.0,0.0,0.0,0.0,0.0,0.0,0.0,0.0,0.0,0.0,0.0,0.0,0.0,0.0,0.0,0.0,0.0,0.0,0.0,0.0,0.0,0.0,0.0,0.0,0.0,0.0,0.0,0.0,0.0,0.0,0.0,0.0,0.0,0.0,0.0,0.0,0.0,0.0,0.0,0.0,0.0,0.0,0.0,0.0,0.0,0.0,0.0,0.0,0.0,0.0,0.0,0.0,0.0,0.0,0.0,0.0,0.0,0.0,0.0,0.0,0.0,0.0,0.0,0.0,0.0,0.0,0.0,0.0,0.0,0.0,0.0,0.0,0.0,0.1972,0.0,0.1376,0.0,0.0,0.0,0.0,0.0,0.0,0.0,0.0,0.0,0.0,0.0,0.0,0.0,0.0,0.0,0.0,0.0,0.0,0.0,0.0,0.0,0.0,0.0,0.0,0.0,0.0,0.0,0.0,0.0,0.0,0.0,0.0,0.0,0.0,0.0,0.0,0.0,0.0,0.0,0.0,0.0,0.0,0.0,0.0,0.0,0.0,0.0,0.0,0.0,0.0,0.0,0.0,0.0,0.0,0.0,0.0,0.0,0.0,0.0,0.0,0.0,0.0,0.0,0.0,0.0,0.0,0.0,0.0,0.0,0.0,0.0,0.0,0.0,0.0,0.0,0.0,0.0,0.0,0.0,0.0,0.0,0.0,0.0,0.0,0.0,0.0,0.0,0.0,0.0,0.0,0.0,0.0,0.0,0.0,0.0,0.0,0.0,0.0,0.0,0.0,0.0,0.0,0.0,0.0,0.0,0.0,0.0,0.0,0.0,0.0,0.0,0.2123,0.599,0.6133,0.4176,0.0,0.0,0.0,0.0,0.0,0.0,0.0,0.0,0.0,0.0,0.0,0.0,0.0,0.0,0.0,0.0,0.0,0.0,0.0,0.0,0.0,0.0,0.0,0.0,0.0,0.0,0.0,0.0,0.0,0.0,0.0,0.0,0.0,0.0,0.0,0.0,0.0,0.0,0.0,0.0,0.0,0.0,0.0,0.0,0.0,0.0,0.0,0.0,0.0,0.0,0.0,0.0,0.0,0.0,0.0,0.0,0.0,0.0,0.0,0.0,0.0,0.0,0.0,0.0,0.0,0.0,0.0,0.0,0.0,0.0,0.0,0.0,0.0,0.0,0.0,0.0,0.0,0.0,0.0,0.0,0.0,0.0,0.0,0.0,0.0,0.0,0.0,0.0,0.0,0.0,0.0,0.0,0.0,0.0,0.0,0.0,0.0,0.0,0.0,0.0,0.0,0.0,0.0,0.0,0.0,0.0,0.0,0.0,0.0,0.0,0.0,0.0,0.6216,0.6314,0.5703,0.4338,0.1507,0.0,0.0,0.0,0.0,0.0,0.0,0.0,0.0,0.0,0.0,0.0,0.0,0.0,0.0,0.0,0.0,0.0,0.0,0.0,0.0,0.0,0.0,0.0,0.0,0.0,0.0,0.0,0.0,0.0,0.0,0.0,0.0,0.0,0.0,0.0,0.0,0.0,0.0,0.0,0.0,0.0,0.0,0.0,0.0,0.0,0.0,0.0,0.0,0.0,0.0,0.0,0.0,0.0,0.0,0.0,0.0,0.0,0.0,0.0,0.0,0.0,0.0,0.0,0.0,0.0,0.0,0.0,0.0,0.0,0.0,0.0,0.0,0.0,0.0,0.0,0.0,0.0,0.0,0.0,0.0,0.0,0.0,0.0,0.0,0.0,0.0,0.0,0.0,0.0,0.0,0.0,0.0,0.0,0.0,0.0,0.0,0.0,0.0,0.0,0.0,0.0,0.0,0.0,0.0,0.0,0.0,0.0,0.0,0.0,0.0,0.6233,0.6298,0.6317,0.6255,0.3745,0.1845,0.0735,0.0,0.0,0.0,0.0,0.0,0.0,0.0,0.0,0.0,0.0,0.0,0.0,0.0,0.0,0.0,0.0,0.0,0.0,0.0,0.0,0.0,0.0,0.0,0.0,0.0,0.0,0.0,0.0,0.0,0.0,0.0,0.0,0.0,0.0,0.0,0.0,0.0,0.0,0.0,0.0,0.0,0.0,0.0,0.0,0.0,0.0,0.0,0.0,0.0,0.0,0.0,0.0,0.0,0.0,0.0,0.0,0.0,0.0,0.0,0.0,0.0,0.0,0.0,0.0,0.0,0.0,0.0,0.0,0.0,0.0,0.0,0.0,0.0,0.0,0.0,0.0,0.0,0.0,0.0,0.0,0.0,0.0,0.0,0.0,0.0,0.0,0.0,0.0,0.0,0.0,0.0,0.0,0.0,0.0,0.0,0.0,0.0,0.0,0.0,0.0,0.0,0.0,0.0,0.0,0.0,0.0,0.0,0.0,0.6306,0.6294,0.6278,0.6257,0.6234,0.4877,0.0,0.0,0.0,0.0,0.0,0.0,0.0,0.0,0.0,0.0,0.0,0.0,0.0,0.0,0.0,0.0,0.0,0.0,0.0,0.0,0.0,0.0,0.0,0.0,0.0,0.0,0.0,0.0,0.0,0.0,0.0,0.0,0.0,0.0,0.0,0.0,0.0,0.0,0.0,0.0,0.0,0.0,0.0,0.0,0.0,0.0,0.0,0.0,0.0,0.0,0.0,0.0,0.0,0.0,0.0,0.0,0.0,0.0,0.0,0.0,0.0,0.0,0.0,0.0,0.0,0.0,0.0,0.0,0.0,0.0,0.0,0.0,0.0,0.0,0.0,0.0,0.0,0.0,0.0,0.0,0.0,0.0,0.0,0.0,0.0,0.0,0.0,0.0,0.0,0.0,0.0,0.0,0.0,0.0,0.0,0.0,0.0,0.0,0.0,0.0,0.0,0.0,0.0,0.0,0.0,0.0,0.0,0.0,0.0,0.6619,0.6603,0.6488,0.6268,0.5881,0.4799,0.0,0.0,0.0,0.0,0.0,0.0,0.0,0.0,0.0,0.0,0.0,0.0,0.0,0.0,0.0,0.0,0.0,0.0,0.0,0.0,0.0,0.0,0.0,0.0,0.0,0.0,0.0,0.0,0.0,0.0,0.0,0.0,0.0,0.0,0.0,0.0,0.0,0.0,0.0,0.0,0.0,0.0,0.0,0.0,0.0,0.0,0.0,0.0,0.0,0.0,0.0,0.0,0.0,0.0,0.0,0.0,0.0,0.0,0.0,0.0,0.0,0.0,0.0,0.0,0.0,0.0,0.0,0.0,0.0,0.0,0.0,0.0,0.0,0.0,0.0,0.0,0.0,0.0,0.0,0.0,0.0,0.0,0.0,0.0,0.0,0.0,0.0,0.0,0.0,0.0,0.0,0.0,0.0,0.0,0.0,0.0,0.0,0.0,0.0,0.0,0.0,0.0,0.0,0.0,0.0,0.0,0.0,0.0,0.6799,0.6869,0.6798,0.6688,0.6458,0.6068,0.5243,0.0,0.0,0.0,0.0,0.0,0.0,0.0,0.0,0.0,0.0,0.0,0.0,0.0,0.0,0.0,0.0,0.0,0.0,0.0,0.0,0.0,0.0,0.0,0.0,0.0,0.0,0.0,0.0,0.0,0.0,0.0,0.0,0.0,0.0,0.0,0.0,0.0,0.0,0.0,0.0,0.0,0.0,0.0,0.0,0.0,0.0,0.0,0.0,0.0,0.0,0.0,0.0,0.0,0.0,0.0,0.0,0.0,0.0,0.0,0.0,0.0,0.0,0.0,0.0,0.0,0.0,0.0,0.0,0.0,0.0,0.0,0.0,0.0,0.0,0.0,0.0,0.0,0.0,0.0,0.0,0.0,0.0,0.0,0.0,0.0,0.0,0.0,0.0,0.0,0.0,0.0,0.0,0.0,0.0,0.0,0.0,0.0,0.0,0.0,0.0,0.0,0.0,0.0,0.0,0.0,0.0,0.0,0.0,0.6503,0.6929,0.6953,0.6878,0.6715,0.6388,0.5844,0.0,0.0,0.0,0.0,0.0,0.0,0.0,0.0,0.0,0.0,0.0,0.0,0.0,0.0,0.0,0.0,0.0,0.0,0.0,0.0,0.0,0.0,0.0,0.0,0.0,0.0,0.0,0.0,0.0,0.0,0.0,0.0,0.0,0.0,0.0,0.0,0.0,0.0,0.0,0.0,0.0,0.0,0.0,0.0,0.0,0.0,0.0,0.0,0.0,0.0,0.0,0.0,0.0,0.0,0.0,0.0,0.0,0.0,0.0,0.0,0.0,0.0,0.0,0.0,0.0,0.0,0.0,0.0,0.0,0.0,0.0,0.0,0.0,0.0,0.0,0.0,0.0,0.0,0.0,0.0,0.0,0.0,0.0,0.0,0.0,0.0,0.0,0.0,0.0,0.0,0.0,0.0,0.0,0.0,0.0,0.0,0.0,0.0,0.0,0.0,0.0,0.0,0.0,0.0,0.0,0.0,0.0,0.0,0.6556,0.7068,0.7095,0.7027,0.6881,0.6379,0.5705,0.0,0.0,0.0,0.0,0.0,0.0,0.0,0.0,0.0,0.0,0.0,0.0,0.0,0.0,0.0,0.0,0.0,0.0,0.0,0.0,0.0,0.0,0.0,0.0,0.0,0.0,0.0,0.0,0.0,0.0,0.0,0.0,0.0,0.0,0.0,0.0,0.0,0.0,0.0,0.0,0.0,0.0,0.0,0.0,0.0,0.0,0.0,0.0,-0.2953,0.0,0.0,0.0,0.0,0.0,0.0,0.0,0.0,0.0,0.0,0.0,0.0,0.0,0.0,0.0,0.0,0.0,0.0,0.0,0.0,0.0,0.0,0.0,0.0,0.0,0.0,0.0,0.0,0.0,0.0,0.0,0.0,0.0,0.0,0.0,0.0,0.0,0.0,0.0,0.0,0.0,0.0,0.0,0.0,0.0,0.0,0.0,0.0,0.0,0.0,0.0,0.0,0.0,0.0,0.0,0.0,0.0,0.0,0.0,0.6621,0.7112,0.7139,0.7105,0.7021,0.6719,0.6139,0.0,0.0,0.0,0.0,0.0,0.0,0.0,0.0,0.0,0.0,0.0,0.0,0.0,0.0,0.0,0.0,0.0,0.0,0.0,0.0,0.0,0.0,0.0,0.0,0.0,0.0,0.0,0.0,0.0,0.0,0.0,0.0,0.0,0.0,0.0,0.0,0.0,0.0,0.0,0.0,0.0,0.0,0.0,0.0,0.0,0.0,0.0,0.0,0.0,0.0,0.0,0.0,0.0,0.0,0.0,0.0,0.0,0.0,0.0,0.0,0.0,0.0,0.0,0.0,0.0,0.0,0.0,0.0,0.0,0.0,0.0,0.0,0.0,0.0,0.0,0.0,0.0,0.0,0.0,0.0,0.0,0.0,0.0,0.0,0.0,0.0,0.0,0.0,0.0,0.0,0.0,0.0,0.0,0.0,0.0,0.0,0.0,0.0,0.0,0.0,0.0,0.0,0.0,0.0,0.0,0.0,0.0,0.6339,0.662,0.7115,0.7139,0.7139,0.7139,0.7139,0.6603,0.5549,0.0,0.0,0.0,0.0,0.0,0.0,0.0,0.0,0.0,0.0,0.0,0.0,0.0,0.0,0.0,0.0,0.0,0.0,0.0,0.0,0.0,0.0,0.0,0.0,0.0,0.0,0.0,0.0,0.0,0.0,0.0,0.0,0.0,0.0,0.0,0.0,0.0,0.0,-0.2177,0.0755,0.0,0.0,0.0,0.0,0.0,0.0,0.0,0.0,-0.2091,0.0,0.0,0.0,0.0,0.0,0.0,0.0,0.0,0.0,0.0,0.0,0.0,0.0,0.0,0.0,0.0,0.0,0.0,0.0,0.0,0.0,0.0,0.0,0.0,0.0,0.0,0.0,0.0,0.0,0.0,0.0,0.0,0.0,0.0,0.0,0.0,0.0,0.0,0.0,0.0,0.0,0.0,0.0,0.0,0.0,0.0,0.0,0.0,0.0,0.0,0.0,0.0,0.0,0.0,0.0,0.0,0.5868,0.5878,0.6308,0.7115,0.7139,0.7139,0.7139,0.7139,0.6698,0.5789,0.0,0.0,0.0,0.0,0.0,0.0,0.0,0.0,0.0,0.0,0.0,0.0,0.0,0.0,0.0,0.0,0.0,0.0,0.0,0.0,0.0,0.0,0.0,0.0,0.0,0.0,0.0,0.0,0.0,0.0,0.0,0.0,0.0,0.0,0.0,0.0,0.0,0.0,0.0,0.1399,0.2148,0.0,0.0,0.0,0.0,0.0,0.0,0.0,0.0,-0.1393,0.0,0.0,0.0,0.0,0.0,0.0,0.0,0.0,0.0,0.0,0.0,0.0,0.0,0.0,0.0,0.0,0.0,0.0,0.0,0.0,0.0,0.0,0.0,0.0,0.0,0.0,0.0,0.0,0.0,0.0,0.0,0.0,0.0,0.0,0.0,0.0,0.0,0.0,0.0,0.0,0.0,0.0,0.0,0.0,0.0,0.0,0.0,0.0,0.0,0.0,0.0,0.0,0.0,0.0,0.0,0.58,0.6257,0.6705,0.7122,0.7753,0.8013,0.8017,0.8619,0.8193,0.0,0.0,0.0,0.0,0.0,0.0,0.0,0.0,0.0,0.0,0.0,0.0,0.0,0.0,0.0,0.0,0.0,0.0,0.0,0.0,0.0,0.0,0.0,0.0,0.0,0.0,0.0,0.0,0.0,0.0,0.0,0.0,0.0,0.0,0.0,0.0,0.0,0.0,0.0,0.0,0.3784,0.4274,0.4661,0.0,0.0,0.0,0.0,0.0,0.0,-0.1583,-0.0965,0.0,0.0,0.0,0.0,0.0,0.0,0.0,0.0,0.0,0.0,0.0,0.0,0.0,0.0,0.0,0.0,0.0,0.0,0.0,0.0,0.0,0.0,0.0,0.0,0.0,0.0,0.0,0.0,0.0,0.0,0.0,0.0,0.0,0.0,0.0,0.0,0.0,0.0,0.0,0.0,0.0,0.0,0.0,0.0,0.0,0.0,0.0,0.0,0.0,0.0,0.0,0.0,0.0,0.0,0.0,0.5827,0.6593,0.7051,0.7132,0.8277,0.889,0.889,1.0009,0.9663,0.0,0.0,0.0,0.0,0.0,0.0,0.0,0.0,0.0,0.0,0.0,0.0,0.0,0.0,0.0,0.0,0.0,0.0,0.0,0.0,0.0,0.0,0.0,0.0,0.0,0.0,0.0,0.0,0.0,0.0,0.0,0.0,0.0,0.0,0.0,0.0,0.0,0.0,0.0,0.0,0.0,0.6626,0.6308,0.4801,0.0,0.0,0.0,0.0,-0.0783,-0.0842,0.0,0.0,0.0,0.0,0.0,0.0,0.0,0.0,0.0,0.0,0.0,0.0,0.0,0.0,0.0,0.0,0.0,0.0,0.0,0.0,0.0,0.0,0.0,0.0,0.0,0.0,0.0,0.0,0.0,0.0,0.0,0.0,0.0,0.0,0.0,0.0,0.0,0.0,0.0,0.0,0.0,0.0,0.0,0.0,0.0,0.0,0.0,0.0,0.0,0.0,0.0,0.0,0.0,0.0,0.0,0.0,0.58,0.6295,0.6739,0.7115,0.8281,0.889,0.889,1.0009,0.9577,0.0,0.0,0.0,0.0,0.0,0.0,0.0,0.0,0.0,0.0,0.0,0.0,0.0,0.0,0.0,0.0,0.0,0.0,0.0,0.0,0.0,0.0,0.0,0.0,0.0,0.0,0.0,0.0,0.0,0.0,0.0,0.0,0.0,0.0,0.0,0.0,0.0,0.0,0.0,0.0,0.0,0.766,0.6461,0.6104,0.5168,0.0,0.0,0.0559,0.2206,0.1014,0.0,0.0,0.0,0.0,0.0,0.0,0.0,0.0,0.0,0.0,0.0,0.0,0.0,0.0,0.0,0.0,0.0,0.0,0.0,0.0,0.0,0.0,0.0,0.0,0.0,0.0,0.0,0.0,0.0,0.0,0.0,0.0,0.0,0.0,0.0,0.0,0.0,0.0,0.0,0.0,0.0,0.0,0.0,0.0,0.0,0.0,0.0,0.0,0.0,0.0,0.0,0.0,0.0,0.0,0.0,0.5606,0.582,0.6495,0.6943,0.7132,0.8281,0.9231,0.984,1.0956,1.0632,0.0,0.0,0.0,0.0,0.0,0.0,0.0,0.0,0.0,0.0,0.0,0.0,0.0,0.0,0.0,0.0,0.0,0.0,0.0,0.0,0.0,0.0,0.0,0.0,0.0,0.0,0.0,0.0,0.0,0.0,0.0,0.0,0.0,0.0,0.0,0.0,0.0,0.0,0.0,0.0,0.0,0.0,0.8513,0.7319,0.0,0.0,0.0,0.3901,0.4705,0.0,0.0,0.0,0.0,0.0,0.0,0.0,0.0,0.0,0.0,0.0,0.0,0.0,0.0,0.0,0.0,0.0,0.0,0.0,0.0,0.0,0.0,0.0,0.0,0.0,0.0,0.0,0.0,0.0,0.0,0.0,0.0,0.0,0.0,0.0,0.0,0.0,0.0,0.0,0.0,0.0,0.0,0.0,0.0,0.0,0.0,0.0,0.0,0.0,0.0,0.0,0.0,0.0,0.0,0.0,0.0,0.0,0.5817,0.6685,0.7228,0.7577,0.8711,0.9836,1.1037,1.2163,0.0,0.0,0.0,0.0,0.0,0.0,0.0,0.0,0.0,0.0,0.0,0.0,0.0,0.0,0.0,0.0,0.0,0.0,0.0,0.0,0.0,0.0,0.0,0.0,0.0,0.0,0.0,-0.2501,0.0,0.0,0.0,0.0,0.0,0.0,0.0,0.0,0.0,0.0,0.0,0.0,0.0,0.0,0.8264,0.971,0.8502,0.6916,0.0,0.0,0.6352,0.6388,0.6452,0.5616,0.0,0.0,0.0,0.0,0.0,0.0,0.0,0.0,0.0,0.0,0.0,0.0,0.0,0.0,0.0,0.0,0.0,0.0,0.0,0.0,0.0,0.0,0.0,0.0,0.0,0.0,0.0,0.0,0.0,0.0,0.0,0.0,0.0,0.0,0.0,0.0,0.0,0.0,0.0,0.0,0.0,0.0,0.0,0.0,0.0,0.0,0.0,0.0,0.0,0.0,0.0,0.0,0.0,0.0,0.0,0.5833,0.6685,0.7669,0.8715,0.9923,1.1037,1.2157,1.3379,1.2517,0.0,0.0,0.0,0.0,0.0,0.0,0.0,0.0,0.0,0.0,0.0,0.0,0.0,0.0,0.0,0.0,0.0,0.0,0.0,0.0,0.0,0.0,0.0,0.0,0.0,0.0,0.0,0.0,0.0,0.0,0.0,0.0,0.0,0.0,0.0,0.0,0.0,0.0,0.0,0.0,0.0,0.6898,0.8497,0.9765,0.9929,0.0,0.0,0.6396,0.6676,0.6859,0.6808,0.6037,0.0,0.0,0.0,0.0,0.0,0.0,0.0,0.0,0.0,0.0,0.0,0.0,0.0,0.0,0.0,0.0,0.0,0.0,0.0,0.0,0.0,0.0,0.0,0.0,0.0,0.0,0.0,0.0,0.0,0.0,0.0,0.0,0.0,0.0,0.0,0.0,0.0,0.0,0.0,0.0,0.0,0.0,0.0,0.0,0.0,0.0,0.0,0.0,0.0,0.0,0.0,0.0,0.0,0.58,0.5813,0.7424,0.8452,0.8886,1.0009,1.1123,1.2237,1.2766,1.2243,0.0,0.0,0.0,0.0,0.0,0.0,0.0,0.0,0.0,0.0,0.0,0.0,0.0,0.0,0.0,0.0,0.0,0.0,0.0,0.0,0.0,0.0,0.0,0.0,0.0,0.0,0.0,0.0,-0.1599,-0.1666,0.0873,0.0,0.0,0.0,0.0,0.0,0.0,0.0,0.0,0.0,0.0,0.9856,1.1377,1.1904,0.0,0.0,0.7832,0.6788,0.675,0.6888,0.6993,0.6579,0.505,0.0,0.0,0.0,0.0,0.0,0.0,0.0,0.0,0.0,0.0,0.0,0.0,0.0,0.0,0.0,0.0,0.0,0.0,0.0,0.0,0.0,0.0,0.0,0.0,0.0,0.0,0.0,0.0,0.0,0.0,0.0,0.0,0.0,0.0,0.0,0.0,0.0,0.0,0.0,0.0,0.0,0.0,0.0,0.0,0.0,0.0,0.0,0.0,0.0,0.0,0.0,0.0,0.6297,0.6301,0.8319,0.9579,0.9923,1.0697,1.1643,1.2766,1.2851,1.2471,0.0,0.0,0.0,0.0,0.0,0.0,0.0,0.0,0.0,0.0,0.0,0.0,0.0,0.0,0.0,0.0,0.0,0.0,0.0,0.0,0.0,0.0,0.0,0.0,0.0,0.0,0.0,0.0,-0.1145,-0.0512,0.3079,0.0,0.0,0.0,0.0,0.0,0.0,0.0,0.0,0.0,0.0,1.2249,1.3227,1.2978,1.1996,1.0213,0.8953,0.7831,0.7,0.702,0.6861,0.6266,0.0,0.0,0.0,0.0,0.0,0.0,0.0,0.0,0.0,0.0,0.0,0.0,0.0,0.0,0.0,0.0,0.0,0.0,0.0,0.0,0.0,0.0,0.0,0.0,0.0,0.0,0.0,0.0,0.0,0.0,0.0,0.0,0.0,0.0,0.0,0.0,0.0,0.0,0.0,0.0,0.0,0.0,0.0,0.0,0.0,0.0,0.0,0.0,0.0,0.0,0.0,0.0,0.0,0.7433,0.7451,0.9528,1.1123,1.2151,1.2237,1.2857,1.399,1.4082,1.3326,1.1747,0.0,0.0,0.0,0.0,0.0,0.0,0.0,0.0,0.0,0.0,0.0,0.0,0.0,0.0,0.0,0.0,0.0,0.0,0.0,0.0,0.0,0.0,0.0,0.0,0.0,0.0,0.0107,-0.0,0.078,0.0,0.0,0.0,0.0,0.0,0.0,0.0,0.0,0.0,0.0,1.2641,1.3347,1.3247,1.245,1.1615,1.0444,1.0343,0.9722,0.7474,0.7126,0.6596,0.0,0.0,0.0,0.0,0.0,0.0,0.0,0.0,0.0,0.0,0.0,0.0,0.0,0.0,0.0,0.0,0.0,0.0,0.0,0.0,0.0,0.0,0.0,0.0,0.0,0.0,0.0,0.1452,0.1452,0.0,0.0,0.0,0.0,0.0,0.0,0.0,0.0,0.0,0.0,0.0,0.8102,0.8102,0.0,0.0,0.0,0.0,0.0,0.0,0.0,0.0,0.0,0.0,0.0,0.0,0.7504,0.7624,1.0256,1.1895,1.2328,1.3118,1.3646,1.4088,1.4088,1.3326,1.1747,0.0,0.0,0.0,0.0,0.0,0.0,0.0,0.0,0.0,0.0,0.0,0.0,0.0,0.0,0.0,0.0,0.0,0.0,0.0,0.0,0.0,0.0,0.0,0.0,0.0,0.3718,0.0,0.0,0.0,0.0,0.0,0.0,0.0,0.0,0.0,0.0,0.0,1.0796,1.1851,1.287,1.3621,1.3768,1.3528,1.2903,0.0,0.0,0.0,0.0,0.0,0.0,0.0,0.0,0.0,0.0,0.0,0.0,0.0,0.0,0.4806,0.3177,0.0325,-0.1461,-0.0243,0.0,0.0,0.0,0.0,0.0,0.0,0.0,0.0,0.0,0.0,0.0,0.0,0.0,0.0,0.0,0.0,0.3159,0.0,0.0,0.0,0.0,0.0,0.0,0.0,0.0,0.7064,0.787,0.8886,0.9323,1.0091,0.0,1.0783,1.0078,0.0,0.0,0.0,0.0,0.0,0.0,0.0,0.0,0.8451,0.8778,1.1514,1.2942,1.2942,1.3737,1.4088,1.4088,1.4088,1.3642,1.2578,1.2033,1.1759,0.0,0.0,0.0,0.0,0.0,0.0,0.0,0.0,0.0,0.0,0.0,0.0,0.0,0.0,0.0,0.0,0.0,0.0,0.0,0.0,0.0,0.0,0.0,0.6069,0.0,0.0,0.0,0.0,0.0,0.0,0.0,0.0,0.0,0.8875,1.0513,1.2062,1.2742,1.3367,1.3868,1.4062,0.0,0.0,0.0,0.0,0.0,0.0,0.0,0.9235,0.8412,0.8013,0.7616,0.7183,0.7084,0.7078,0.7081,0.0,0.0,0.7071,0.4625,0.2925,0.4532,0.484,0.4287,0.2741,0.2541,0.2615,0.0,0.0,0.0,0.0,0.0,0.0,0.0,0.0,0.5745,0.5731,0.0,0.4818,0.0,0.0,0.0,0.0,0.0,0.5818,0.0,0.0,0.8163,0.896,0.9148,1.0178,1.1209,1.2242,1.1295,1.1289,1.2172,1.0756,0.0,0.0,0.0,0.0,0.0,0.0,1.0296,1.0887,1.2927,1.4082,1.4088,1.4088,1.4088,1.4088,1.4088,1.4075,1.4048,1.2603,1.2531,1.3887,0.8152,0.0,0.0,0.0,0.0,0.0,0.0,0.0,0.0,0.0,0.0,0.0,0.0,0.0,0.0,0.0,0.0,0.0,0.0,0.0,0.0,0.9301,0.0,0.0,0.0,0.0,0.0,0.0,0.0,0.0,0.0,0.0,1.0663,1.1532,1.2652,1.3873,0.0,0.0,0.0,0.0,1.2413,1.2413,1.1466,1.0783,1.0778,1.2573,1.3244,1.0982,0.0,0.0,0.7344,0.7153,0.7234,0.7081,0.7156,0.7139,0.7139,0.6979,0.6897,0.6989,0.6982,0.7078,0.7081,0.6599,0.677,0.5462,0.0,0.0,0.0,0.0,0.6429,0.6283,0.581,0.5813,0.5813,0.58,0.5316,0.0,0.0,0.0,0.0,0.0,0.0,0.7228,0.7815,0.9015,1.0233,1.1381,1.1638,1.2419,1.3555,1.3209,1.33,1.3548,1.3144,1.1214,0.8056,0.0,0.0,0.0,0.0,1.1076,1.1004,1.3022,1.4088,1.4088,1.4088,1.4088,1.4088,1.4088,1.4088,1.4088,1.3662,1.3642,1.4014,1.0914,0.0,0.0,0.0,0.0,0.0,0.0,0.0,0.0,0.0,0.0,0.0,0.0,0.0,0.0,0.0,0.0,0.0,0.0,0.0,1.3127,1.2706,1.203,0.0,0.0,0.0,0.0,0.0,0.0,0.0,0.0,0.0,1.1951,1.3464,1.4532,0.0,0.0,1.4088,1.4088,1.3822,1.3561,1.3555,0.0,0.0,0.0,1.3658,1.3604,1.2089,1.0869,0.9749,0.8548,0.8644,0.8468,0.7326,0.7146,0.7139,0.7139,0.7146,0.7153,0.7153,0.7149,0.7149,0.7149,0.7146,0.7139,0.7272,0.6757,0.578,0.5755,0.6481,0.6645,0.6556,0.6332,0.6332,0.6332,0.6315,0.5911,0.5914,0.6057,0.5732,0.0,0.0,0.0,0.7622,0.8548,0.9688,1.0968,1.231,1.2766,1.3379,1.4082,1.3646,1.3646,1.4088,1.3639,1.2194,0.9943,0.0,0.0,0.9504,1.1078,1.2024,1.2197,1.3457,1.4088,1.4088,1.4088,1.4088,1.4088,1.4088,1.4088,1.4088,1.4088,1.413,1.409,1.2239,1.0355,0.0,0.0,0.0,0.0,0.0,0.0,0.0,0.0,0.0,0.0,0.0,0.6597,0.7721,0.0,0.0,0.0,0.907,0.8704,1.3605,1.3276,0.0,0.0,0.0,0.0,0.0,0.0,0.0,1.396,1.5153,1.5718,1.5065,1.616,1.6273,1.4328,1.4088,1.4088,1.4088,0.0,1.4088,1.4088,1.4088,1.4088,1.4088,1.4128,1.3704,1.251,1.1724,1.0869,0.9836,0.9052,0.8352,0.7925,0.7404,0.7139,0.7139,0.7139,0.7139,0.7139,0.7139,0.7139,0.7139,0.7139,0.7139,0.7732,0.76,0.7581,0.7572,0.7399,0.7396,0.7293,0.7173,0.7173,0.717,0.7126,0.6552,0.6451,0.6502,0.6095,0.0,0.7123,0.6774,0.7567,0.9061,1.0183,1.1386,1.2498,1.3555,1.4088,1.4082,1.2942,1.3027,1.4004,1.3052,1.2443,1.2448,1.2466,1.2454,1.2322,1.2407,1.3027,1.4082,1.4082,1.4088,1.4088,1.4088,1.4088,1.4088,1.4088,1.4088,1.4088,1.4088,1.4088,1.4062,1.2721,1.2596,1.3895,0.0,0.0,0.0,0.0,0.0,0.0,0.0,0.0,0.0,0.0,0.0,0.0,0.0,0.0,0.0,0.8662,0.0,1.3652,1.2308,0.0,0.0,0.0,1.2974,1.4283,1.5226,1.6157,1.721,0.0,0.0,1.8877,0.0,1.7658,1.4657,1.4257,1.4173,1.4088,1.4088,1.4088,1.4088,1.4088,1.4088,1.4088,1.4095,1.3743,1.2766,1.2413,1.1809,1.0783,0.9387,0.8337,0.8444,0.7841,0.7139,0.7139,0.7139,0.7139,0.7139,0.7139,0.7139,0.7139,0.7139,0.7139,0.7933,0.7926,0.7925,0.7729,0.7583,0.758,0.7523,0.7492,0.7489,0.7424,0.7305,0.7022,0.6913,0.6976,0.6868,0.6885,0.7163,0.7928,0.9013,1.0265,1.1381,1.251,1.3646,1.3997,1.4088,1.4082,1.3822,1.3815,1.4095,1.4038,1.3963,1.3976,1.4278,1.3711,1.2431,1.3209,1.3815,1.4088,1.4088,1.4088,1.4088,1.4088,1.4088,1.4088,1.4088,1.4088,1.4088,1.4088,1.4088,1.4082,1.3715,1.3698,1.4062,1.3369,0.0,0.0,0.0,0.0,0.0,0.0,0.0,0.0,0.0,0.6434,1.0243,0.0,1.2614,0.0,1.265,1.2807,1.3888,1.4986,0.0,0.0,1.5778,1.5896,1.8699,1.7709,1.7227,1.8426,1.8868,1.8638,1.7827,1.7001,1.6183,1.5379,1.5296,1.5061,1.4243,1.4088,1.4088,1.4088,1.4088,1.4088,1.4088,1.4088,1.3997,1.3737,1.2942,1.1895,1.0783,1.1712,1.1422,0.8392,0.7316,0.7139,0.7139,0.7139,0.7139,0.7139,0.7139,0.7139,0.7139,0.7139,0.7139,0.8038,0.8038,0.8038,0.7831,0.7506,0.7638,0.7658,0.76,0.7597,0.7553,0.7475,0.7379,0.7329,0.7343,0.7346,0.7346,0.7434,0.8595,0.975,1.0998,1.2153,1.3311,1.4476,1.4476,1.4476,1.4476,1.4476,1.4476,1.4489,1.4636,1.4716,1.4723,1.4883,1.4523,1.358,1.4202,1.4469,1.4376,1.4182,1.413,1.4289,1.4183,1.4117,1.4088,1.4088,1.4088,1.4088,1.4088,1.4088,1.4088,1.4088,1.4088,1.4082,1.409,1.3136,0.0,0.0,0.0,0.0,0.0,0.0,0.0,0.0,0.0,0.0,0.0,1.4307,1.4809,1.5264,1.5463,1.5405,1.7432,1.8754,1.8789,1.7802,1.808,2.0313,1.9464,1.8973,1.9668,1.9678,1.9441,1.8868,1.8221,1.7721,1.7245,1.6764,1.5869,1.4412,1.4088,1.4088,1.4088,1.4088,1.4088,1.4088,1.4088,1.4088,1.4088,1.3555,1.2857,1.226,1.32,1.291,0.9428,0.7819,0.7115,0.7136,0.7139,0.7139,0.7139,0.7139,0.7139,0.7139,0.7139,0.7139,0.8038,0.8038,0.8038,0.7814,0.7475,0.7733,0.7706,0.7485,0.7485,0.7509,0.764,0.7584,0.7597,0.76,0.7597,0.7691,0.7872,0.8971,1.026,1.1558,1.266,1.3857,1.4963,1.506,1.506,1.506,1.506,1.506,1.506,1.5003,1.5023,1.5023,1.5064,1.5077,1.5077,1.5077,1.494,1.4757,1.4456,1.4428,1.4583,1.4287,1.4149,1.4162,1.4142,1.4122,1.4088,1.4088,1.4088,1.4088,1.4088,1.4088,1.4088,1.4095,1.2246,0.0,1.1838,0.0,0.0,0.0,0.0,0.0,0.0,0.0,0.0,1.2377,1.5323,1.6293,1.7233,1.7695,1.7721,1.9448,2.0632,2.0543,1.972,1.9599,2.0479,2.0576,2.0576,2.0576,2.0576,2.0566,2.0489,2.0489,2.0001,1.8957,1.79,1.6609,1.4985,1.4334,1.4088,1.4088,1.4088,1.4088,1.4088,1.4088,1.4088,1.4088,1.373,1.3815,1.3652,1.3247,1.2484,1.0788,0.8926,0.7705,0.757,0.739,0.7115,0.7115,0.7119,0.7129,0.7136,0.7139,0.7139,0.8038,0.8038,0.8038,0.7991,0.7919,0.7974,0.7567,0.6871,0.6871,0.7274,0.7893,0.7684,0.76,0.7695,0.76,0.8149,0.9153,0.9427,1.0716,1.2848,1.3126,1.3857,1.4963,1.506,1.506,1.506,1.506,1.506,1.497,1.5197,1.5317,1.5317,1.5551,1.5665,1.5665,0.0,0.0,0.0,1.5273,1.5239,1.4883,1.4877,1.473,1.4456,1.4436,0.0,1.4102,1.4088,1.4088,1.4088,1.4088,0.0,0.0,0.0,0.0,0.0,0.0,0.0,0.0,0.0,0.0,0.0,1.4398,1.327,1.44,1.749,1.8967,1.8143,1.9191,1.9953,1.9991,2.0362,2.0635,2.0547,2.043,2.0401,2.0566,2.0576,2.0576,2.0576,2.0576,2.0576,2.0566,1.9844,1.9274,1.9045,1.7989,1.718,1.6772,1.5228,1.4166,1.4088,1.4088,1.4088,1.4088,1.4088,1.4088,1.3997,1.3008,1.2486,1.2583,1.0424,0.9388,1.0235,1.0255,0.9899,0.9826,0.845,0.7201,0.7107,0.7142,0.7095,0.7132,0.7139,0.7139,0.8258,0.0,0.8184,0.8028,0.0,0.7743,0.7326,0.6732,0.717,0.7543,0.7983,0.7849,0.7818,0.7804,0.8045,0.8479,0.9188,0.9976,1.1231,1.2927,1.3564,1.4417,1.5391,1.5391,1.5391,1.5398,1.5384,1.5398,1.5398,1.5538,1.5611,1.5618,1.5758,1.5825,1.5825,1.5825,1.5685,1.5391,1.5701,1.5633,1.519,1.5379,1.5237,1.475,0.0,0.0,0.0,0.0,0.0,0.0,0.0,0.0,0.0,0.0,0.0,1.4142,1.4095,1.602,2.009,1.8516,1.7448,1.7831,1.7023,1.7053,1.8244,1.9748,2.0272,1.9562,2.0138,2.0576,2.0576,2.0576,2.0576,2.0576,2.0576,2.0576,2.0576,2.0576,2.0576,2.0576,2.0576,2.0576,2.0576,2.0167,1.9844,1.9756,1.8868,1.8149,1.7989,1.6281,1.4734,1.425,1.4088,1.4088,1.4088,1.4088,1.4088,1.3997,1.3457,1.3105,1.3203,1.1753,1.0776,1.1455,1.1935,1.2043,1.0697,0.9325,0.8418,0.8784,0.9174,0.9209,0.8882,0.7921,0.7139,0.8587,0.8472,0.8353,0.8096,0.7746,0.7621,0.7343,0.7021,0.0,0.0,0.0,0.7905,0.8038,0.8014,0.8393,0.8662,0.9001,1.055,1.1895,1.2831,1.4116,1.5137,1.5818,1.5825,1.5825,1.5825,1.5825,1.5825,1.5825,1.5825,1.5825,1.5825,1.5825,1.5825,1.5825,1.5825,1.5825,1.5825,1.5825,1.5712,1.5484,1.5683,1.5541,1.505,1.5044,1.4903,1.4609,1.4549,1.4409,1.409,1.4108,1.4088,1.4088,1.4088,1.4092,1.4096,1.4814,1.6828,2.0339,2.06,1.9839,1.7997,1.8718,1.9687,2.0566,2.0576,2.0576,2.0576,2.0576,2.0576,2.0576,2.0576,2.0576,2.0576,2.0576,2.0576,2.0576,2.0576,2.0576,2.0576,2.0576,2.0576,2.0576,2.0566,2.0576,2.0479,1.9599,1.8798,1.8221,1.6472,1.4935,1.4237,1.4088,1.4088,1.4088,1.4088,1.4088,1.4088,1.4088,1.4088,1.4088,1.4088,1.373,1.276,1.3528,1.3187,1.166,1.0833,1.0565,1.1128,1.1699,1.1986,1.116,0.9253,0.7591,0.8699,0.8479,0.8459,0.8414,0.8357,0.8333,0.8221,0.8021,0.7641,0.7372,0.7297,0.7771,0.8038,0.8038,0.8069,0.8721,0.9875,1.123,1.2479,0.0,1.5068,1.5705,1.5825,1.5825,1.5825,1.5825,1.5825,1.5825,1.5825,1.5825,1.5825,1.5825,1.5825,1.5825,1.5825,1.5825,1.5825,1.5825,1.5825,1.5812,1.5765,1.5772,1.5638,1.5351,1.5337,1.5204,1.4917,1.4663,1.4402,1.4163,1.4123,1.4088,1.4088,1.4082,1.4099,1.4283,1.7597,2.0012,2.0569,2.0614,2.0469,2.0177,2.0323,2.0479,2.0566,2.0576,2.0576,2.0576,2.0576,2.0576,2.0576,2.0576,2.0576,2.0576,2.0576,2.0576,2.0576,2.0576,2.0576,2.0576,2.0576,2.0576,2.0576,2.0576,2.0576,2.0489,1.9678,1.839,1.6659,1.5083,1.4345,1.4126,1.4088,1.4088,1.4088,1.4088,1.4088,1.4088,1.4088,1.4088,1.4088,1.4108,1.403,1.3828,1.3979,1.3894,1.3515,1.3561,1.3247,1.3363,1.3519,1.3544,1.328,1.1215,0.8899,0.8841,0.872,0.8642,0.8604,0.8601,0.852,0.8445,0.8357,0.8014,0.7811,0.7657,0.7851,0.8038,0.8018,0.8254,0.8698,0.9341,1.0845,1.2137,1.3238,1.4553,1.5378,1.5805,1.5825,1.5825,1.5825,1.5825,1.5825,1.5825,1.5825,1.5825,1.5825,1.5825,1.5825,1.5825,1.5825,1.5825,1.5825,1.5825,1.5825,1.5825,1.5825,1.5765,1.5631,1.5631,1.5491,1.5211,1.507,1.4747,1.4141,1.4203,1.4294,1.4135,1.4115,1.4083,1.4258,1.8193,2.0569,2.0575,2.0625,2.0576,2.0576,2.0576,2.0576,2.0576,2.0576,2.0576,2.0576,2.0576,2.0576,2.0576,2.0576,2.0576,2.0576,2.0576,2.0576,2.0576,2.0576,2.0576,2.0576,2.0576,2.0576,2.0576,2.0576,2.0576,2.0489,1.9678,1.8141,1.6026,1.5321,1.4719,1.423,1.4088,1.4088,1.4088,1.4088,1.4088,1.4088,1.4088,1.4088,1.4102,1.4097,1.421,1.4335,1.4436,1.4556,1.4556,1.4274,1.4167,1.4161,1.4388,1.4427,1.3969,1.3111,1.1342,0.8937,0.8923,0.8811,0.8764,0.8747,0.8598,0.8533,0.852,0.8381,0.8252,0.8039,0.7972,0.8038,0.8001,0.8415,0.8521,0.883,1.0463,1.1732,1.2586,1.4085,1.5177,1.5778,1.5825,1.5825,1.5825,1.5825,1.5825,1.5825,1.5825,1.5825,1.5825,1.5825,1.5825,1.5825,1.5825,1.5825,1.5825,1.5825,1.5825,1.5825,1.5825,1.5825,1.5825,1.5825,1.5718,1.5511,1.5438,1.5086,1.4553,1.4555,1.4688,1.4796,1.4844,1.5025,1.5808,1.8744,2.0574,2.0596,2.0576,2.0576,2.0576,2.0576,2.0576,2.0576,2.0576,2.0576,2.0576,2.0576,2.0576,2.0576,2.0576,2.0576,2.0576,2.0576,2.0576,2.0576,2.0576,2.0576,2.0576,2.0576,2.0576,2.0576,2.0576,2.0489,2.0089,1.9274,1.7819,1.6108,1.559,1.5077,1.4501,1.4135,1.4088,1.4088,1.4162,1.4195,1.4182,1.4163,1.4223,1.4263,1.4402,1.4495,1.4643,1.4885,1.4986,1.4943,1.4641,1.4417,1.4397,1.4794,1.504,1.452,1.4546,1.3748,0.8937,0.8937,0.8916,0.8916,0.8893,0.8754,0.8689,0.8672,0.8526,0.8351,0.8304,0.8059,0.8048,0.8035,0.8086,0.8048,0.8241,1.0729,1.1864,1.2294,1.4551,1.5752,1.5825,1.5825,1.5825,1.5825,1.5825,1.5825,1.5825,1.5825,1.5825,1.5825,1.5825,1.5825,1.5825,1.5825,1.5825,1.5825,1.5825,1.5825,1.5825,1.5825,1.5825,1.5825,1.5825,1.5818,1.5772,1.5538,1.5476,1.5613,1.5161,1.5599,1.6823,1.6955,1.7829,1.9743,2.0375,2.0574,2.0596,2.0576,2.0576,2.0576,2.0576,2.0576,2.0576,2.0576,2.0576,2.0576,2.0576,2.0576,2.0576,2.0576,2.0576,2.0576,2.0576,2.0576,2.0576,2.0576,2.0576,2.0576,2.0576,2.0576,2.0576,2.0576,2.0235,1.9441,1.8442,1.7318,1.6193,1.5248,1.4895,1.4515,1.4275,1.4142,1.4162,1.4322,1.4456,1.4496,1.4298,1.4376,1.4701,1.515,1.5528,1.5026,1.508,1.5147,1.5127,1.4963,1.4907,1.498,1.5285,1.5576,1.5068,1.5035,1.427,1.1,1.0241,1.0241,0.9699,0.8927,0.8872,0.8845,0.8828,0.8682,0.8615,0.8485,0.8391,0.8255,0.8174,0.8082,0.8038,0.8233,1.0681,1.1945,1.2145,1.4567,1.5825,1.5825,1.5825,1.5825,1.5825,1.5825,1.5825,1.5825,1.5825,1.5825,1.5825,1.5825,1.5825,1.5825,1.5825,1.5825,1.5825,1.5825,1.5825,1.5825,1.5825,1.5825,1.5825,1.5825,1.5825,1.5818,1.5712,1.5678,1.5729,1.5481,1.6267,1.8476,1.7728,1.828,2.0387,2.0574,2.0586,2.0576,2.0576,2.0576,2.0576,2.0576,2.0576,2.0576,2.0576,2.0576,2.0576,2.0576,2.0576,2.0576,2.0576,2.0576,2.0576,2.0576,2.0576,2.0576,2.0576,2.0576,2.0576,2.0576,2.0576,2.0576,2.0576,2.0167,1.9161,1.816,1.749,1.7016,1.5778,1.5184,1.5616,1.5175,1.4704,1.4603,1.4689,1.4776,1.4796,1.4678,1.4757,1.5003,1.5443,1.5629,1.5315,1.5436,1.553,1.5504,1.5478,1.5478,1.555,1.5577,1.5731,1.5531,1.545,1.5371,1.3418,1.176,1.1324,1.0457,0.9482,0.9047,0.8937,0.8927,0.8818,0.8774,0.8757,0.8611,0.8489,0.8374,0.8191,0.8106,0.8396,1.0413,1.1556,1.2139,1.4274,1.5432,1.573,1.5825,1.5825,1.5825,1.5825,1.5825,1.5825,1.5825,1.5825,1.5825,1.5825,1.5825,1.5825,1.5825,1.5825,1.5825,1.5825,1.5825,1.5825,1.5825,1.5825,1.5825,1.5825,1.5825,1.5825,1.5825,1.6028,1.6295,1.6167,1.71,1.9384,1.8679,1.8948,2.0361,2.0796,2.085,2.0644,2.0732,2.0693,2.0586,2.0576,2.0576,2.0576,2.0576,2.0576,2.0576,2.0576,2.0576,2.0576,2.0576,2.0576,2.0576,2.0576,2.0576,2.0576,2.0576,2.0576,2.0576,2.0576,2.0625,2.0723,2.0771,2.0495,2.0009,1.9124,1.8448,1.8322,1.7029,1.5949,1.6736,1.5922,1.5208,1.5017,1.5037,1.5064,1.5117,1.515,1.5251,1.5204,1.5616,1.5824,1.5545,1.5732,1.5785,1.5712,1.5765,1.5805,1.5818,1.5812,1.5798,1.5785,1.5818,1.5818,1.5731,1.3166,1.1647,1.0996,1.0891,0.9482,0.8937,0.8937,0.8927,0.8923,0.8896,0.8767,0.8696,0.8662,0.8394,0.8262,0.8547,0.9697,1.0993,1.2063,1.3494,1.4657,1.573,1.5825,1.5825,1.5825,1.5825,1.5825,1.5825,1.5825,1.5825,1.5825,1.5825,1.5825,1.5825,1.5825,1.5825,1.5825,1.5825,1.5825,1.5825,1.5825,1.5825,1.5825,1.5825,1.5825,1.5825,1.5825,1.6379,1.7576,1.7461,1.8276,1.9747,2.027,2.0598,2.0754,2.138,2.151,2.0851,2.1002,2.1045,2.0693,2.0684,2.0605,2.0693,2.0703,2.0693,2.0605,2.0684,2.0664,2.0635,2.0605,2.0576,2.0576,2.0576,2.0576,2.0576,2.0605,2.0576,2.0605,2.0664,2.085,2.1162,2.1201,2.1286,2.1284,2.0671,2.0093,1.98,1.8417,1.7289,1.7017,1.6423,1.5598,1.5137,1.5217,1.5364,1.5404,1.5518,1.5712,1.5778,1.5812,1.5798,1.5792,1.5812,1.5818,1.5825,1.5825,1.5825,1.5825,1.5825,1.5825,1.5825,1.5825,1.5825,1.6474,1.4449,1.2077,1.1109,1.0891,0.9588,0.8937,0.8937,0.8937,0.8937,0.893,0.8876,0.8855,0.8845,0.8645,0.9014,0.9927,1.0956,1.2147,1.3509,1.4641,1.5343,1.573,1.5825,1.5825,1.5825,1.5825,1.5825,1.5825,1.5825,1.5825,1.5825,1.5825,1.5825,1.5825,1.5825,1.5825,1.5825,1.5825,1.5825,1.5825,1.5825,1.5825,1.5825,1.5825,1.5825,1.5825,1.5825,1.6386,1.7684,1.7684,1.8609,2.0589,2.1689,2.2235,2.2201,2.2472,2.2489,2.2227,2.1863,2.1592,2.1445,2.1406,2.1377,2.1406,2.1416,2.1416,2.1396,2.1396,2.1205,2.0751,2.0593,2.0576,2.0576,2.0576,2.0605,2.0615,2.0605,2.0591,2.0709,2.1002,2.1484,2.1572,2.165,2.1719,2.1783,2.1128,2.0918,2.101,1.9335,1.7835,1.8125,1.7022,1.5765,1.5605,1.5591,1.5678,1.5691,1.5758,1.5778,1.5818,1.5825,1.5812,1.5805,1.5825,1.5825,1.5825,1.5825,1.5825,1.5825,1.5825,1.5825,1.5825,1.5825,1.5825,1.6605,1.5636,1.2512,1.1428,1.1542,0.9695,0.8937,0.8937,0.8937,0.8937,0.8937,0.8937,0.8937,0.9034,0.9258,1.0214,1.1431,1.1699,1.2672,1.4465,1.5199,1.566,1.5979,1.5972,1.5919,1.5838,1.5825,1.5825,1.5825,1.5825,1.5825,1.5825,1.5825,1.5825,1.5825,1.5825,1.5825,1.5825,1.5825,1.5825,1.5825,1.5825,1.5825,1.5825,1.5825,1.5825,1.5825,1.6204,1.6943,1.8141,1.8688,1.977,2.1738,2.265,2.308,2.3137,2.3128,2.3116,2.3016,2.2438,2.2021,2.1894,2.1885,2.1894,2.1997,2.1987,2.1977,2.1987,2.1894,2.1569,2.1221,2.1018,2.0996,2.0996,2.0986,2.0996,2.1006,2.0742,2.0895,2.1475,2.1974,2.2211,2.2154,2.209,2.2168,2.2266,2.1749,2.1891,2.214,2.0669,1.8864,1.9231,1.7863,1.6864,1.6404,1.6209,1.5961,1.588,1.5792,1.5818,1.5825,1.5825,1.5825,1.5825,1.5825,1.5825,1.5825,1.5825,1.5825,1.5825,1.5825,1.5825,1.5825,1.5825,1.5825,1.628,1.6711,1.2945,1.1864,1.2403,1.0025,0.8937,0.8937,0.8937,0.8937,0.8937,0.8937,0.9047,0.9261,1.0327,1.1842,1.2817,1.1968,1.272,1.4844,1.501,1.5482,1.6279,1.6273,1.6126,1.5885,1.5845,1.5838,1.5825,1.5825,1.5825,1.5825,1.5825,1.5825,1.5825,1.5825,1.5825,1.5825,1.5825,1.5825,1.5825,1.5825,1.5825,1.5825,1.5825,1.5825,1.592,1.7037,1.8133,1.9397,2.0486,2.1756,2.2765,2.3105,2.3125,2.3105,2.3105,2.3132,2.3037,2.2748,2.2353,2.2119,2.1963,2.2134,2.2286,2.2144,2.2124,2.2266,2.2134,2.1963,2.1899,2.1914,2.1938,2.1855,2.184,2.1728,2.1666,2.1104,2.1244,2.2506,2.2925,2.2892,2.2621,2.251,2.2627,2.2804,2.2843,2.2785,2.2863,2.163,2.0747,1.977,1.868,1.7762,1.7217,1.6756,1.6386,1.6015,1.5913,1.5825,1.5825,1.5825,1.5825,1.5825,1.5825,1.5825,1.5825,1.5825,1.5825,1.5825,1.5825,1.5825,1.5825,1.5825,1.5825,1.6605,1.5849,1.3588,1.2299,1.1651,0.9699,0.8937,0.8937,0.8937,0.8937,0.8937,0.8937,0.9482,1.0351,1.0996,1.2398,1.4539,1.4166,1.4868,1.6164,1.6188,1.626,1.6487,1.6567,1.642,1.6179,1.6132,1.6025,1.5865,1.5832,1.5825,1.5825,1.5825,1.5825,1.5825,1.5825,1.5825,1.5825,1.5825,1.5825,1.5825,1.5825,1.5825,1.5825,1.5825,1.6204,1.7037,1.7505,1.868,2.0576,2.1114,2.1845,2.2862,2.3144,2.3144,2.3144,2.3144,2.3115,2.3104,2.2959,2.2871,2.2764,2.2734,2.2764,2.2859,2.2734,2.2725,2.284,2.2754,2.2754,2.2754,2.2744,2.2719,2.2722,2.2221,2.1934,2.1982,2.1707,2.1996,2.283,2.31,2.3054,2.292,2.293,2.2959,2.3086,2.3144,2.3144,2.295,2.212,2.1293,2.0666,1.9546,1.874,1.858,1.8735,1.8698,1.7692,1.6908,1.6278,1.619,1.6494,1.64,1.6103,1.6103,1.5906,1.5812,1.5825,1.5825,1.5825,1.5825,1.5825,1.5825,1.5825,1.5825,1.6605,1.5956,1.348,1.2295,1.1647,0.9809,0.9268,0.9699,0.9699,1.0025,1.0457,1.0566,1.1,1.186,1.2403,1.3691,1.5417,1.5956,1.6622,1.7204,1.7134,1.6981,1.6867,1.674,1.662,1.6466,1.6433,1.6279,1.6012,1.5985,1.5939,1.5845,1.5825,1.5825,1.5825,1.5825,1.5825,1.5825,1.5825,1.5825,1.5825,1.5825,1.6021,1.6386,1.648,1.7397,1.8864,1.9039,1.977,2.1114,2.1667,2.2394,2.3047,2.3144,2.3144,2.3144,2.3144,2.3135,2.3144,2.3115,2.3144,2.3144,2.3144,2.3135,2.3135,2.3144,2.3144,2.3144,2.3115,2.3144,2.3125,2.3135,2.3113,2.3118,2.263,2.2353,2.2383,2.2349,2.2486,2.3037,2.3115,2.3144,2.3144,2.3144,2.3144,2.3144,2.3144,2.3144,2.296,2.2492,2.1933,2.1587,2.1096,2.0546,2.0249,2.0516,2.101,1.9679,1.8249,1.7453,1.6922,1.7908,1.8303,1.7684,1.739,1.6404,1.6209,1.59,1.5825,1.5825,1.5825,1.5825,1.5825,1.5825,1.5825,1.628,1.6935,1.3156,1.2186,1.2837,1.0457,1.0131,1.1109,1.1214,1.1864,1.294,1.2837,1.3156,1.3696,1.4449,1.5198,1.5743,1.6829,1.7364,1.7555,1.7502,1.7382,1.7161,1.6954,1.682,1.674,1.6727,1.6553,1.6239,1.6226,1.6112,1.5852,1.5825,1.5825,1.5825,1.5825,1.5825,1.5825,1.5825,1.5825,1.5825,1.5825,1.6386,1.7505,1.7591,1.8588,2.0576,2.1123,2.1302,2.1569,2.2492,2.296,2.3047,2.3144,2.3144,2.3144,2.3144,2.3144,2.3144,2.3144,2.3144,2.3144,2.3144,2.3144,2.3144,2.3144,2.3144,2.3144,2.3144,2.3144,2.3144,2.3144,2.3105,2.3125,2.2998,2.3008,2.3105,2.2999,2.3008,2.3028,2.3144,2.3144,2.3144,2.3144,2.3144,2.3144,2.3144,2.3144,2.3047,2.2775,2.2492,2.2255,2.2036,2.1937,2.1526,2.1679,2.2067,2.141,1.9991,1.9099,1.8018,1.8819,1.9512,1.8896,1.8295,1.7208,1.6348,1.5947,1.5812,1.5825,1.5825,1.5825,1.5825,1.5825,1.5825,1.6605,1.5849,1.477,1.3911,1.3264,1.2403,1.2295,1.2729,1.2724,1.3053,1.3372,1.3264,1.4019,1.4877,1.5204,1.5962,1.6823,1.7371,1.7589,1.7589,1.7589,1.7555,1.7475,1.7388,1.7228,1.7061,1.6994,1.6767,1.6306,1.6279,1.6119,1.5838,1.5825,1.5825,1.5825,1.5825,1.5825,1.5825,1.5825,1.5825,1.5825,1.5825,1.648,1.7598,1.7777,1.8956,2.1114,2.2217,2.2589,2.2677,2.2872,2.3144,2.3144,2.3144,2.3144,2.3144,2.3144,2.3144,2.3144,2.3144,2.3144,2.3144,2.3144,2.3144,2.3144,2.3144,2.3144,2.3144,2.3144,2.3144,2.3144,2.3144,2.3144,2.3144,2.3144,2.3144,2.3144,2.3144,2.3144,2.3144,2.3144,2.3144,2.3144,2.3144,2.3144,2.3144,2.3144,2.3144,2.3144,2.3047,2.2775,2.2862,2.2803,2.2803,2.2813,2.2871,2.289,2.2735,2.1933,2.1123,1.9943,1.9422,1.9621,1.9322,1.8856,1.8064,1.6721,1.59,1.5853,1.5792,1.5825,1.5825,1.5825,1.5825,1.5825,1.7035,1.628,1.5636,1.4877,1.4126,1.3588,1.3583,1.4126,1.4234,1.4556,1.499,1.5102,1.553,1.628,1.6387,1.6717,1.7582,1.7589,1.7589,1.7589,1.7589,1.7582,1.7575,1.7582,1.7488,1.7335,1.7311,1.6887,1.6506,1.6346,1.6112,1.5879,1.5825,1.5825,1.5825,1.5825,1.5825,1.5825,1.5825,1.5825,1.5825,1.5825,1.6619,1.7717,1.828,1.9588,2.1765,2.2765,2.3144,2.3057,2.3144,2.3144,2.3144,2.3144,2.3144,2.3144,2.3144,2.3144,2.3144,2.3144,2.3144,2.3144,2.3144,2.3144,2.3144,2.3144,2.3144,2.3144,2.3144,2.3144,2.3144,2.3144,2.3144,2.3144,2.3144,2.3144,2.3144,2.3144,2.3144,2.3144,2.3144,2.3144,2.3144,2.3144,2.3144,2.3144,2.3144,2.3144,2.3144,2.3144,2.3144,2.3144,2.3144,2.3057,2.2969,2.3018,2.3125,2.3057,2.2862,2.2236,2.1587,2.0486,2.0584,2.0494,1.9679,1.8924,1.7942,1.6786,1.5852,1.5799,1.5772,1.5818,1.5818,1.6109,1.6015,1.7589,1.747,1.6174,1.5636,1.5417,1.4341,1.4663,1.5524,1.563,1.628,1.7147,1.7477,1.7259,1.7589,1.7364,1.7589,1.7589,1.7589,1.7589,1.7589,1.7582,1.7562,1.7495,1.7562,1.7522,1.7428,1.7248,1.6947,1.6607,1.6359,1.6126,1.5899,1.5825,1.5825,1.5825,1.5825,1.5825,1.5825,1.5825,1.5825,1.5825,1.5913,1.6605,1.8164,1.962,2.0854,2.2413,2.3144,2.3144,2.3144,2.3144,2.3144,2.3144,2.3144,2.3144,2.3144,2.3144,2.3144,2.3144,2.3144,2.3144,2.3144,2.3144,2.3144,2.3144,2.3144,2.3144,2.3144,2.3144,2.3144,2.3144,2.3144,2.3144,2.3144,2.3144,2.3144,2.3144,2.3144,2.3144,2.3144,2.3144,2.3144,2.3144,2.3144,2.3144,2.3144,2.3144,2.3144,2.3144,2.3144,2.3144,2.3144,2.3144,2.3144,2.3057,2.3057,2.3067,2.3047,2.3047,2.2775,2.2687,2.2041,2.2217,2.1943,2.0854,2.0369,2.0138,1.8704,1.7121,1.6593,1.7159,1.6539,1.5988,1.6379,1.6574,1.7589,1.7582,1.7259,1.7147,1.7035,1.6823,1.6823,1.7041,1.7041,1.7252,1.7582,1.7589,1.7589,1.7589,1.7589,1.7589,1.7589,1.7589,1.7589,1.7589,1.7589,1.7435,1.7341,1.7428,1.7428,1.7275,1.7188,1.6867,1.6466,1.6286,1.6119,1.5872,1.5825,1.5825,1.5825,1.5825,1.5825,1.5825,1.5825,1.5825,1.5832,1.592,1.6786,1.8506,2.0873,2.2315,2.2872,2.3144,2.3144,2.3144,2.3144,2.3144,2.3144,2.3144,2.3144,2.3144,2.3144,2.3144,2.3144,2.3144,2.3144,2.3144,2.3144,2.3144,2.3144,2.3144,2.3144,2.3144,2.3144,2.3144,2.3144,2.3144,2.3144,2.3144,2.3144,2.3144,2.3144,2.3144,2.3144,2.3144,2.3144,2.3144,2.3144,2.3144,2.3144,2.3144,2.3144,2.3144,2.3144,2.3144,2.3144,2.3144,2.3144,2.3144,2.3144,2.3144,2.3144,2.3144,2.3144,2.3144,2.296,2.296,2.2862,2.2492,2.1845,2.1542,2.1435,2.0468,1.8808,1.8724,1.8441,1.774,1.7304,1.7311,1.6662,1.7589,1.7589,1.7589,1.7589,1.7589,1.7589,1.7589,1.7589,1.7589,1.7589,1.7589,1.7589,1.7589,1.7589,1.7589,1.7589,1.7589,1.7582,1.7502,1.7415,1.7361,1.7215,1.7007,1.7068,1.7074,1.6927,1.6787,1.6533,1.6319,1.6132,1.5972,1.5845,1.5825,1.5825,1.5825,1.5825,1.5825,1.5825,1.5825,1.5825,1.5832,1.648,1.774,1.9579,2.1808,2.3144,2.3144,2.3144,2.3144,2.3144,2.3144,2.3144,2.3144,2.3144,2.3144,2.3144,2.3144,2.3144,2.3144,2.3144,2.3144,2.3144,2.3144,2.3144,2.3144,2.3144,2.3144,2.3144,2.3144,2.3144,2.3144,2.3144,2.3144,2.3144,2.3144,2.3144,2.3144,2.3144,2.3144,2.3144,2.3144,2.3144,2.3144,2.3144,2.3144,2.3144,2.3144,2.3144,2.3144,2.3144,2.3144,2.3144,2.3144,2.3144,2.3144,2.3144,2.3144,2.3144,2.3144,2.3144,2.3047,2.3047,2.3047,2.2677,2.2394,2.2511,2.2325,2.1374,2.052,1.9777,1.9208,1.884,1.8342,1.7792,1.6951,1.7589,1.7589,1.7589,1.7589,1.7589,1.7589,1.7589,1.7589,1.7589,1.7589,1.7589,1.7589,1.7589,1.7589,1.7589,1.7575,1.7515,1.7482,1.7348,1.7108,1.7081,1.6907,1.6714,1.6667,1.6627,1.656,1.6433,1.6279,1.6139,1.5979,1.5872,1.5825,1.5825,1.5825,1.5825,1.5825,1.5825,1.5825,1.5825,1.5792,1.5974,1.7008,1.8672,2.0836,2.2296,2.3047,2.3144,2.3144,2.3144,2.3144,2.3144,2.3144,2.3144,2.3144,2.3144,2.3144,2.3144,2.3144,2.3144,2.3144,2.3144,2.3144,2.3144,2.3144,2.3144,2.3144,2.3144,2.3144,2.3144,2.3144,2.3144,2.3144,2.3144,2.3144,2.3144,2.3144,2.3144,2.3144,2.3144,2.3144,2.3144,2.3144,2.3144,2.3144,2.3144,2.3144,2.3144,2.3144,2.3144,2.3144,2.3144,2.3144,2.3144,2.3144,2.3144,2.3144,2.3144,2.3144,2.3144,2.3144,2.3144,2.3144,2.3144,2.3144,2.296,2.3067,2.3008,2.2489,2.1587,2.0704,1.9979,1.9521,1.8948,1.8257,1.7326,1.7589,1.7589,1.7589,1.7589,1.7589,1.7589,1.7589,1.7589,1.7589,1.7589,1.7589,1.7589,1.7589,1.7589,1.7589,1.7455,1.7308,1.7228,1.7061,1.682,1.6767,1.662,1.6393,1.6339,1.6233,1.6092,1.6106,1.6126,1.5972,1.5845,1.5825,1.5825,1.5825,1.5825,1.5825,1.5825,1.5825,1.5825,1.5825,1.5772,1.606,1.7539,1.9147,2.14,2.2589,2.3047,2.3144,2.3144,2.3144,2.3144,2.3144,2.3144,2.3144,2.3144,2.3144,2.3144,2.3144,2.3144,2.3144,2.3144,2.3144,2.3144,2.3144,2.3144,2.3144,2.3144,2.3144,2.3144,2.3144,2.3144,2.3144,2.3144,2.3144,2.3144,2.3144,2.3144,2.3144,2.3144,2.3144,2.3144,2.3144,2.3144,2.3144,2.3144,2.3144,2.3144,2.3144,2.3144,2.3144,2.3144,2.3144,2.3144,2.3144,2.3144,2.3144,2.3144,2.3144,2.3144,2.3144,2.3144,2.3144,2.3144,2.3144,2.3144,2.3144,2.3057,2.3086,2.3125,2.2803,2.1957,2.1042,2.0219,1.9513,1.8816,1.8172,1.7589,1.7589,1.7589,1.7589,1.7589,1.7589,1.7589,1.7589,1.7589,1.7589,1.7589,1.7589,1.7589,1.7589,1.7589,1.7422,1.7168,1.6967,1.6767,1.6533,1.6466,1.6326,1.6079,1.6052,1.5965,1.5899,1.5965,1.5992,1.5845,1.5832,1.5825,1.5825,1.5825,1.5825,1.5825,1.5825,1.5825,1.5825,1.5818,1.5839,1.6258,1.8572,2.114,2.1971,2.2677,2.3047,2.3144,2.3144,2.3144,2.3144,2.3144,2.3144,2.3144,2.3144,2.3144,2.3144,2.3144,2.3144,2.3144,2.3144,2.3144,2.3144,2.3144,2.3144,2.3144,2.3144,2.3144,2.3144,2.3144,2.3144,2.3144,2.3144,2.3144,2.3144,2.3144,2.3144,2.3144,2.3144,2.3144,2.3144,2.3144,2.3144,2.3144,2.3144,2.3144,2.3144,2.3144,2.3144,2.3144,2.3144,2.3144,2.3144,2.3144,2.3144,2.3144,2.3144,2.3144,2.3144,2.3144,2.3144,2.3144,2.3144,2.3144,2.3144,2.3144,2.3144,2.3057,2.3086,2.3067,2.3144,2.2306,2.1364,2.0283,1.9472,1.8848,1.7589,1.7589,1.7589,1.7589,1.7589,1.7589,1.7589,1.7589,1.7589,1.7589,1.7589,1.7589,1.7589,1.7569,1.7475,1.7295,1.6981,1.67,1.6466,1.6233,1.6179,1.6046,1.5899,1.5825,1.5838,1.5845,1.5845,1.5825,1.5832,1.5825,1.5825,1.5825,1.5825,1.5825,1.5825,1.5825,1.5825,1.5825,1.6103,1.6303,1.7827,2.0718,2.3075,2.3076,2.3144,2.3144,2.3144,2.3144,2.3144,2.3144,2.3144,2.3144,2.3144,2.3144,2.3144,2.3144,2.3144,2.3144,2.3144,2.3144,2.3144,2.3144,2.3144,2.3144,2.3144,2.3144,2.3144,2.3144,2.3144,2.3144,2.3144,2.3144,2.3144,2.3144,2.3144,2.3144,2.3144,2.3144,2.3144,2.3144,2.3144,2.3144,2.3144,2.3144,2.3144,2.3144,2.3144,2.3144,2.3144,2.3144,2.3144,2.3144,2.3144,2.3144,2.3144,2.3144,2.3144,2.3144,2.3144,2.3144,2.3144,2.3144,2.3144,2.3144,2.3144,2.3144,2.3144,2.3144,2.3144,2.3067,2.3096,2.2656,2.1642,2.0747,2.0034,1.7589,1.7589,1.7589,1.7589,1.7589,1.7589,1.7589,1.7589,1.7589,1.7589,1.7589,1.7582,1.7582,1.7495,1.7261,1.6881,1.6526,1.6346,1.6186,1.5965,1.5932,1.5905,1.5832,1.5825,1.5825,1.5825,1.5825,1.5825,1.5825,1.5825,1.5825,1.5825,1.5825,1.5825,1.5825,1.5825,1.5825,1.6015,1.6828,1.8364,2.0271,2.2148,2.2901,2.3067,2.3144,2.3144,2.3144,2.3144,2.3144,2.3144,2.3144,2.3144,2.3144,2.3144,2.3144,2.3144,2.3144,2.3135,2.3135,2.3144,2.3144,2.3144,2.3144,2.3144,2.3144,2.3144,2.3144,2.3144,2.3144,2.3144,2.3144,2.3144,2.3144,2.3144,2.3144,2.3144,2.3144,2.3144,2.3144,2.3144,2.3144,2.3144,2.3144,2.3144,2.3144,2.3144,2.3144,2.3144,2.3144,2.3144,2.3144,2.3144,2.3144,2.3144,2.3144,2.3144,2.3144,2.3144,2.3144,2.3144,2.3144,2.3144,2.3144,2.3144,2.3144,2.3144,2.3144,2.3144,2.3144,2.3076,2.3106,2.3134,2.2993,2.2147,2.115,1.7589,1.7589,1.7589,1.7589,1.7589,1.7589,1.7589,1.7589,1.7589,1.7589,1.7589,1.7582,1.7384,1.7145,1.6759,1.6526,1.6266,1.6112,1.5965,1.5858,1.5825,1.5825,1.5825,1.5825,1.5825,1.5825,1.5825,1.5825,1.5825,1.5825,1.5825,1.5825,1.5825,1.5825,1.5825,1.5825,1.5765,1.5933,1.6515,1.8234,2.073,2.2403,2.3144,2.3144,2.3144,2.3144,2.3144,2.3144,2.3144,2.3144,2.3144,2.3144,2.3144,2.3125,2.3076,2.309,2.31,2.3103,2.3096,2.3135,2.3115,2.3135,2.3135,2.3144,2.3144,2.3144,2.3144,2.3144,2.3144,2.3144,2.3144,2.3144,2.3144,2.3144,2.3144,2.3144,2.3144,2.3144,2.3144,2.3144,2.3144,2.3144,2.3144,2.3144,2.3144,2.3144,2.3144,2.3144,2.3144,2.3144,2.3144,2.3144,2.3144,2.3144,2.3144,2.3144,2.3144,2.3144,2.3144,2.3144,2.3144,2.3144,2.3144,2.3144,2.3144,2.3144,2.3144,2.3144,2.3144,2.3086,2.3135,2.3115,2.3075,2.3017,2.1765,1.7589,1.7589,1.7589,1.7589,1.7589,1.7589,1.7589,1.7589,1.7589,1.7589,1.7562,1.7488,1.7145,1.657,1.6388,1.6266,1.6146,1.5932,1.5852,1.5825,1.5825,1.5825,1.5825,1.5825,1.5825,1.5825,1.5825,1.5825,1.5825,1.5825,1.5825,1.5825,1.5825,1.5825,1.5825,1.5913,1.6055,1.7135,1.7918,1.951,2.1514,2.258,2.3047,2.3144,2.3144,2.3144,2.3144,2.3144,2.3144,2.3144,2.3144,2.3144,2.3135,2.3104,2.314,2.3554,2.4165,2.5359,2.488,2.4303,2.3308,2.3124,2.3125,2.3144,2.3144,2.3144,2.3144,2.3144,2.3144,2.3144,2.3144,2.3144,2.3144,2.3144,2.3144,2.3144,2.3144,2.3144,2.3144,2.3144,2.3144,2.3144,2.3144,2.3144,2.3144,2.3144,2.3144,2.3144,2.3144,2.3144,2.3144,2.3144,2.3144,2.3144,2.3144,2.3144,2.3144,2.3144,2.3144,2.3144,2.3144,2.3144,2.3144,2.3144,2.3144,2.3144,2.3144,2.3144,2.3144,2.3076,2.3086,2.3076,2.3076,2.3144,2.2432,1.7589,1.7589,1.7575,1.7582,1.7589,1.7589,1.7589,1.7589,1.7589,1.7569,1.7502,1.7268,1.672,1.6124,1.6182,1.6092,1.5872,1.5838,1.5832,1.5825,1.5825,1.5825,1.5825,1.5825,1.5825,1.5825,1.5825,1.5825,1.5825,1.5825,1.5825,1.5825,1.5825,1.5825,1.5906,1.617,1.7188,1.874,2.0374,2.1679,2.2646,2.3047,2.3047,2.3144,2.3144,2.3144,2.3144,2.3144,2.3144,2.3144,2.3144,2.3076,2.3114,2.311,2.3123,2.4661,2.679,2.7962,2.7762,2.5687,2.3533,2.3202,2.3103,2.3144,2.3144,2.3144,2.3144,2.3144,2.3144,2.3144,2.3144,2.3144,2.3144,2.3144,2.3144,2.3144,2.3144,2.3144,2.3144,2.3144,2.3144,2.3144,2.3144,2.3144,2.3144,2.3144,2.3144,2.3144,2.3144,2.3144,2.3144,2.3144,2.3144,2.3144,2.3144,2.3144,2.3144,2.3144,2.3144,2.3144,2.3144,2.3144,2.3144,2.3144,2.3144,2.3144,2.3144,2.3144,2.3144,2.3144,2.3144,2.3144,2.3144,2.3144,2.2283,1.7644,1.7562,1.7395,1.7415,1.7589,1.7589,1.7589,1.7589,1.7582,1.7462,1.7164,1.682,1.6368,1.594,1.5846,1.5952,1.5832,1.5825,1.5825,1.5825,1.5825,1.5825,1.5825,1.5825,1.5825,1.5825,1.5825,1.5825,1.5825,1.5825,1.5825,1.5825,1.5825,1.5825,1.6001,1.6692,1.8157,1.9596,2.1662,2.3017,2.3145,2.3144,2.3144,2.3144,2.3144,2.3144,2.3144,2.3144,2.3144,2.3144,2.3144,2.3124,2.3256,2.3228,2.4609,2.6427,2.897,2.9528,2.9782,2.7789,2.6234,2.3333,2.3093,2.3125,2.3105,2.3135,2.3135,2.3144,2.3144,2.3144,2.3144,2.3144,2.3144,2.3144,2.3144,2.3144,2.3144,2.3144,2.3144,2.3144,2.3144,2.3144,2.3144,2.3144,2.3144,2.3144,2.3144,2.3144,2.3144,2.3144,2.3144,2.3144,2.3144,2.3144,2.3144,2.3144,2.3144,2.3144,2.3144,2.3144,2.3144,2.3144,2.3144,2.3144,2.3144,2.3144,2.3144,2.3144,2.3144,2.3144,2.3144,2.3144,2.3144,2.3144,2.2293,1.736,1.7295,1.7101,1.7181,1.7422,1.7361,1.7315,1.7321,1.7301,1.7154,1.686,1.644,1.6102,1.5879,1.5843,1.5845,1.5832,1.5825,1.5825,1.5825,1.5825,1.5825,1.5825,1.5825,1.5825,1.5825,1.5825,1.5825,1.5825,1.5825,1.5825,1.5825,1.5825,1.5825,1.6177,1.7316,1.8768,2.0279,2.1042,2.2629,2.2833,2.3144,2.3144,2.3144,2.3144,2.3144,2.3144,2.3144,2.3144,2.3144,2.3105,2.3122,2.3403,2.4315,2.6378,2.8429,2.9811,2.9808,2.9704,2.8979,2.7554,2.4588,2.378,2.3547,2.3201,2.3066,2.3135,2.3144,2.3144,2.3144,2.3144,2.3144,2.3144,2.3144,2.3144,2.3144,2.3144,2.3144,2.3144,2.3144,2.3144,2.3144,2.3144,2.3144,2.3144,2.3144,2.3144,2.3144,2.3144,2.3144,2.3144,2.3144,2.3144,2.3144,2.3144,2.3144,2.3144,2.3144,2.3144,2.3144,2.3144,2.3144,2.3144,2.3144,2.3144,2.3144,2.3144,2.3144,2.3144,2.3144,2.3144,2.3144,2.3144,2.3057,2.2735,1.6734,1.672,1.6727,1.6881,1.7094,1.6854,1.676,1.6814,1.6774,1.6733,1.6623,1.6363,1.6099,1.5817,1.5845,1.5832,1.5825,1.5825,1.5825,1.5825,1.5825,1.5825,1.5825,1.5825,1.5825,1.5825,1.5825,1.5825,1.5825,1.5825,1.5825,1.592,1.6015,1.6109,1.6008,1.7124,1.8948,2.072,2.0269,2.152,2.2629,2.3144,2.3144,2.3144,2.3144,2.3144,2.3144,2.3144,2.3144,2.3144,2.3299,2.3275,2.3213,2.5583,2.7662,2.9481,2.9745,2.9752,2.9714,2.8457,2.7117,2.5617,2.4946,2.4077,2.3328,2.3083,2.3135,2.3144,2.3144,2.3144,2.3144,2.3144,2.3144,2.3144,2.3144,2.3144,2.3144,2.3144,2.3144,2.3144,2.3144,2.3144,2.3144,2.3144,2.3144,2.3144,2.3144,2.3144,2.3144,2.3144,2.3144,2.3144,2.3144,2.3144,2.3144,2.3144,2.3144,2.3144,2.3144,2.3144,2.3144,2.3144,2.3144,2.3144,2.3144,2.3144,2.3144,2.3144,2.3144,2.3144,2.3144,2.3144,2.3144,2.3057,2.2823,1.6315,1.6687,1.65,1.6473,1.658,1.668,1.67,1.6667,1.6506,1.6471,1.6454,1.6092,1.5945,1.5845,1.5825,1.5825,1.5825,1.5825,1.5825,1.5825,1.5825,1.5825,1.5825,1.5825,1.5825,1.5825,1.5825,1.592,1.5825,1.6103,1.592,1.592,1.6756,1.7037,1.7404,1.8319,1.9852,2.1105,2.1673,2.2416,2.3038,2.3144,2.3144,2.3144,2.3144,2.3144,2.3144,2.3144,2.3144,2.3222,2.3551,2.3921,2.3919,2.6017,2.7797,2.9253,2.9792,2.9792,2.9792,2.9172,2.8548,2.7198,2.5771,2.4545,2.3388,2.3122,2.3086,2.3135,2.3125,2.3135,2.3144,2.3144,2.3144,2.3144,2.3144,2.3144,2.3144,2.3144,2.3144,2.3144,2.3144,2.3144,2.3144,2.3144,2.3144,2.3144,2.3144,2.3144,2.3144,2.3144,2.3144,2.3144,2.3144,2.3144,2.3144,2.3144,2.3144,2.3144,2.3144,2.3144,2.3144,2.3144,2.3144,2.3144,2.3144,2.3144,2.3144,2.3144,2.3144,2.3144,2.3144,2.3144,2.3144,2.3144,2.3057,1.6011,1.6373,1.6677,1.678,1.6718,1.6515,1.6406,1.6366,1.6199,1.6126,1.6079,1.5905,1.5832,1.5832,1.5825,1.5825,1.5825,1.5825,1.5825,1.5825,1.5825,1.5825,1.5825,1.592,1.5825,1.592,1.6292,1.6473,1.6662,1.6936,1.721,1.7483,1.7855,1.8588,1.9039,1.9943,2.0764,2.1845,2.2561,2.2931,2.3144,2.3144,2.3144,2.3144,2.3144,2.3144,2.3144,2.3144,2.3144,2.3387,2.3988,2.5041,2.5502,2.6323,2.7985,2.9201,2.9779,2.9779,2.9792,2.9792,2.9172,2.8664,2.686,2.5529,2.442,2.4111,2.3477,2.3268,2.325,2.3115,2.3125,2.3125,2.3144,2.3144,2.3144,2.3144,2.3144,2.3144,2.3144,2.3144,2.3144,2.3144,2.3144,2.3144,2.3144,2.3144,2.3144,2.3144,2.3144,2.3144,2.3144,2.3144,2.3144,2.3144,2.3144,2.3144,2.3144,2.3144,2.3144,2.3144,2.3144,2.3144,2.3144,2.3144,2.3144,2.3144,2.3144,2.3144,2.3144,2.3144,2.3144,2.3144,2.3144,2.3144,2.3144,1.5825,1.6109,1.7131,1.7613,1.7512,1.6543,1.5967,1.5852,1.5933,1.594,1.5838,1.5845,1.5825,1.5825,1.5825,1.5825,1.592,1.592,1.6103,1.6197,1.6473,1.6285,1.6379,1.6379,1.6473,1.6567,1.6936,1.7584,1.777,1.8403,1.8948,1.9397,1.9397,2.0124,2.0854,2.14,2.1943,2.2589,2.296,2.3144,2.3144,2.3144,2.3144,2.3144,2.3144,2.3144,2.3144,2.3144,2.3144,2.3474,2.4114,2.6623,2.7987,2.83,2.8864,2.9328,2.9779,2.9779,2.9779,2.9779,2.9779,2.9365,2.8597,2.7631,2.6621,2.5583,2.4661,2.3982,2.3766,2.3394,2.3086,2.3115,2.3144,2.3144,2.3144,2.3144,2.3144,2.3144,2.3144,2.3144,2.3144,2.3144,2.3144,2.3144,2.3144,2.3144,2.3144,2.3144,2.3144,2.3144,2.3144,2.3144,2.3144,2.3144,2.3144,2.3144,2.3144,2.3144,2.3144,2.3144,2.3144,2.3144,2.3144,2.3144,2.3144,2.3144,2.3144,2.3144,2.3144,2.3144,2.3144,2.3144,2.3144,2.3144,2.3144,1.6822,1.8295,1.6936,1.7397,1.868,1.7684,1.6662,1.6015,1.6669,1.6756,1.5825,1.5825,1.5825,1.5825,1.5825,1.5825,1.6197,1.6662,1.7037,1.7311,1.7762,1.8211,1.8303,1.8126,1.7863,1.777,1.8133,1.868,1.8234,1.9047,2.0215,2.0657,2.0755,2.1578,2.2129,2.2589,2.2775,2.296,2.3057,2.3144,2.3144,2.3144,2.3144,2.3144,2.3144,2.3144,2.3144,2.3144,2.3144,2.3299,2.4211,2.6389,2.9284,2.9343,2.9621,2.9636,2.9779,2.9779,2.9779,2.9779,2.9779,2.9779,2.9365,2.9369,2.8411,2.7162,2.5909,2.5271,2.4587,2.4235,2.37,2.3451,2.3308,2.3144,2.3086,2.3144,2.3144,2.3144,2.3144,2.3144,2.3144,2.3144,2.3144,2.3144,2.3144,2.3144,2.3135,2.3222,2.3135,2.3135,2.3144,2.3144,2.3144,2.3144,2.3144,2.3144,2.3144,2.3144,2.3144,2.3144,2.3144,2.3144,2.3144,2.3144,2.3144,2.3144,2.3144,2.3144,2.3144,2.3144,2.3144,2.3144,2.3144,2.3144,2.3144,1.7546,1.7933,1.7569,1.8118,1.9314,1.9222,1.794,1.6292,1.6669,1.648,1.5825,1.5825,1.5825,1.592,1.6292,1.6669,1.6763,1.7855,1.8403,1.8588,1.9231,1.9222,1.9497,1.9588,1.8956,1.9047,1.9405,1.9943,1.9497,2.0223,2.1489,2.1933,2.2022,2.2394,2.2862,2.296,2.3047,2.3047,2.3144,2.3144,2.3144,2.3144,2.3144,2.3144,2.3144,2.3144,2.3144,2.3144,2.3144,2.3222,2.4211,2.5273,2.78,2.8378,2.965,2.9792,2.9779,2.9779,2.9779,2.9779,2.9779,2.9779,2.9792,2.9711,2.9175,2.8099,2.7337,2.6699,2.5898,2.5157,2.4492,2.3846,2.3523,2.3199,2.3124,2.3135,2.3144,2.3144,2.3144,2.3144,2.3144,2.3144,2.3144,2.3135,2.3135,2.3222,2.3551,2.3963,2.3714,2.3377,2.3222,2.3144,2.3144,2.3144,2.3144,2.3144,2.3144,2.3144,2.3144,2.3144,2.3144,2.3144,2.3144,2.3144,2.3144,2.3144,2.3144,2.3144,2.3144,2.3144,2.3144,2.3144,2.3144,2.3144,2.3144,1.8006,1.6473,1.8664,1.9488,1.967,2.0576,1.9381,1.6379,1.6473,1.6109,1.6109,1.6103,1.6379,1.6842,1.7404,1.7777,1.8226,1.9039,1.967,1.967,2.0215,2.0314,2.0314,1.9861,2.0042,2.0215,2.0666,2.1302,2.1667,2.212,2.2501,2.3144,2.296,2.3047,2.3047,2.3144,2.3144,2.3144,2.3144,2.3144,2.3144,2.3144,2.3144,2.3144,2.3144,2.3144,2.3144,2.3144,2.3144,2.3474,2.3816,2.4093,2.5376,2.7599,2.9246,2.9764,2.9752,2.9779,2.9779,2.9779,2.9779,2.9779,2.9792,2.9817,2.9337,2.8919,2.8335,2.7888,2.7163,2.6835,2.6295,2.5198,2.4577,2.4036,2.3725,2.374,2.3714,2.3704,2.3501,2.3724,2.4308,2.4191,2.38,2.3887,2.4135,2.3887,2.4221,2.4787,2.4617,2.4039,2.3714,2.3474,2.3135,2.3135,2.3144,2.3144,2.3144,2.3144,2.3144,2.3144,2.3144,2.3144,2.3144,2.3144,2.3144,2.3144,2.3144,2.3144,2.3144,2.3144,2.3144,2.3144,2.3144,2.3144,2.3144,1.7487,1.8764,2.0215,2.0395,1.9679,2.0755,2.0836,1.9926,1.8932,1.8133,1.7498,1.8126,1.8488,1.8403,1.8764,1.9039,1.9314,2.0215,2.0755,2.1203,2.1578,2.1676,2.2041,2.1774,2.1587,2.1489,2.1943,2.2492,2.2589,2.295,2.3144,2.3144,2.3144,2.3144,2.3144,2.3144,2.3144,2.3144,2.3144,2.3144,2.3144,2.3144,2.3144,2.3144,2.3144,2.3144,2.3144,2.3144,2.3144,2.3222,2.3309,2.3786,2.4598,2.787,2.9499,2.9762,2.9774,2.9817,2.9779,2.9779,2.9779,2.9779,2.9779,2.9779,2.9702,2.9534,2.9275,2.8924,2.8621,2.8399,2.794,2.673,2.5742,2.5166,2.4503,2.4438,2.4457,2.4139,2.4012,2.4625,2.5338,2.5296,2.4892,2.4713,2.4967,2.5305,2.5724,2.5964,2.5703,2.5284,2.4787,2.4382,2.3387,2.3222,2.3135,2.3144,2.3144,2.3144,2.3144,2.3144,2.3144,2.3144,2.3144,2.3144,2.3144,2.3144,2.3144,2.3144,2.3144,2.3144,2.3144,2.3144,2.3144,2.3144,2.3144,1.6586,1.8025,1.9761,2.0486,2.0486,2.1025,2.1025,2.0477,2.0305,1.9943,1.9314,1.9497,1.9497,1.9679,2.0034,2.0305,2.0486,2.1569,2.1943,2.2394,2.258,2.2862,2.3144,2.3047,2.2687,2.2403,2.2677,2.3047,2.3144,2.3144,2.3144,2.3144,2.3144,2.3144,2.3144,2.3144,2.3144,2.3144,2.3144,2.3144,2.3144,2.3144,2.3144,2.3144,2.3144,2.3144,2.3144,2.3144,2.3144,2.3066,2.3152,2.3786,2.4809,2.6885,2.8655,2.945,2.9783,2.9779,2.9779,2.9779,2.9779,2.9779,2.9779,2.9779,2.9779,2.9611,2.9611,2.9353,2.9263,2.9113,2.8864,2.7855,2.7661,2.7336,2.6284,2.5681,2.4955,2.4347,2.4735,2.5684,2.6417,2.7037,2.649,2.5641,2.5891,2.6047,2.6554,2.7209,2.6942,2.6449,2.6036,2.5273,2.4276,2.3377,2.3135,2.3144,2.3144,2.3144,2.3144,2.3144,2.3144,2.3144,2.3144,2.3144,2.3144,2.3144,2.3144,2.3144,2.3144,2.3144,2.3144,2.3144,2.3144,2.3144,2.3144,1.6427,1.6648,1.8848,2.0296,2.1293,2.148,2.1025,2.0404,2.1114,2.1569,2.1302,2.0494,2.0042,2.0404,2.0944,2.1302,2.1756,2.2394,2.2862,2.295,2.3047,2.3144,2.3144,2.3047,2.296,2.296,2.3047,2.3144,2.3144,2.3144,2.3144,2.3144,2.3144,2.3144,2.3135,2.3144,2.3144,2.3144,2.3144,2.3144,2.3144,2.3144,2.3144,2.3144,2.3144,2.3144,2.3144,2.3144,2.3144,2.3066,2.3113,2.3564,2.4196,2.5496,2.6493,2.7728,2.8968,2.9263,2.9714,2.9779,2.9779,2.9779,2.9779,2.9779,2.9779,2.9779,2.9779,2.9779,2.9702,2.9624,2.9378,2.9246,2.9169,2.896,2.7789,2.6951,2.5991,2.5256,2.6106,2.6996,2.7602,2.8386,2.773,2.694,2.6894,2.7046,2.7371,2.7936,2.8176,2.7602,2.7105,2.6146,2.5125,2.4235,2.3377,2.3115,2.3105,2.3144,2.3144,2.3144,2.3144,2.3144,2.3144,2.3144,2.3144,2.3144,2.3144,2.3144,2.3144,2.3144,2.3144,2.3144,2.3144,2.3144,2.3144,1.8824,1.8948,2.0387,2.1105,2.148,2.2306,2.2589,2.2501,2.2589,2.2775,2.2589,2.2589,2.2403,2.2394,2.2589,2.2677,2.2492,2.3047,2.3047,2.3047,2.3144,2.3144,2.3144,2.3144,2.3144,2.3144,2.3144,2.3144,2.3144,2.3144,2.3047,2.296,2.3047,2.3047,2.3047,2.3047,2.296,2.3047,2.3144,2.3144,2.3144,2.3144,2.3144,2.3144,2.3144,2.3144,2.3144,2.3144,2.3144,2.3115,2.3153,2.3317,2.3564,2.3988,2.4628,2.5754,2.7128,2.8597,2.904,2.9365,2.9443,2.9534,2.9611,2.9779,2.9779,2.9779,2.9779,2.9779,2.9779,2.9779,2.9624,2.9624,2.9568,2.9285,2.8494,2.853,2.8158,2.8134,2.853,2.8799,2.894,2.8928,2.8262,2.8028,2.8371,2.845,2.8621,2.9106,2.9106,2.8597,2.8096,2.7059,2.5926,2.4544,2.3434,2.3153,2.3066,2.3105,2.3144,2.3144,2.3144,2.3144,2.3144,2.3144,2.3144,2.3144,2.3144,2.3144,2.3144,2.3144,2.3144,2.3144,2.3144,2.3144,2.3144]}]]